<?xml version="1.0" encoding="UTF-8"?>
<gpx version="1.1" creator="2bulu-scraper" xmlns="http://www.topografix.com/GPX/1/1">
  <metadata><name>方山小院环线</name><desc>source: 2bulu.com trackId=84037907; exported 2026-09-01T14:47:54.489Z</desc>
    <bounds minlat="28.8175692" minlon="105.2909481" maxlat="28.8414439" maxlon="105.3227302"/>
    <link href="https://www.2bulu.com/track/t-M8FNjLNwQILp%252FR2KBg5Tzw%253D%253D.htm"><text>2bulu 源页面</text></link>
  </metadata>
  <wpt lat="28.8412731" lon="105.3127879"><ele>293</ele><name>方山小院
        </name></wpt>
  <wpt lat="28.8345279" lon="105.3128057"><ele>433</ele><name>佛国130梯
        </name></wpt>
  <wpt lat="28.83344" lon="105.3117991"><ele>507</ele><name>后山佛国门
        </name></wpt>
  <wpt lat="28.8322164" lon="105.3106649"><ele>581</ele><name>后山登顶
        </name></wpt>
  <wpt lat="28.8316238" lon="105.3073469"><ele>573</ele><name>方山巅池
        </name></wpt>
  <wpt lat="28.8280644" lon="105.305003"><ele>568</ele><name>山巅秘境
        </name></wpt>
  <wpt lat="28.8245278" lon="105.3123219"><ele>452</ele><name>远眺泸天化
        </name></wpt>
  <wpt lat="28.8246703" lon="105.3099831"><ele>458</ele><name>韩懋公墓（飞霞洞）
        </name></wpt>
  <wpt lat="28.8214601" lon="105.3045591"><ele>566</ele><name>远眺江北电厂
        </name></wpt>
  <wpt lat="28.8321386" lon="105.2936659"><ele>342</ele><name>丹林梨花村
        </name></wpt>
  <wpt lat="28.8271049" lon="105.296217"><ele>312</ele><name>不在山林
        </name></wpt>
  <wpt lat="28.8251736" lon="105.2920748"><ele>358</ele><name>乡间小道
        </name></wpt>
  <wpt lat="28.8239832" lon="105.2960254"><ele>432</ele><name>杜鹃野径
        </name></wpt>
  <wpt lat="28.8191125" lon="105.2963414"><ele>389</ele><name>再见江北电厂
        </name></wpt>
  <wpt lat="28.8187427" lon="105.30719"><ele>373</ele><name>青杏小
        </name></wpt>
  <wpt lat="28.8177682" lon="105.3172826"><ele>316</ele><name>防火卡点
        </name></wpt>
  <wpt lat="28.8220775" lon="105.317204"><ele>294</ele><name>方山塔林
        </name></wpt>
  <wpt lat="28.8230069" lon="105.3186955"><ele>270</ele><name>前山景区
        </name></wpt>
  <wpt lat="28.8250628" lon="105.3181715"><ele>372</ele><name>黑脸观音殿
        </name></wpt>
  <wpt lat="28.8266435" lon="105.313746"><ele>548</ele><name>前山门登顶
        </name></wpt>
  <wpt lat="28.8342423" lon="105.3147836"><ele>561</ele><name>报晓亭
        </name></wpt>
  <wpt lat="28.8288043" lon="105.3170057"><ele>561</ele><name>俯瞰禅院
        </name></wpt>
  <wpt lat="28.8291558" lon="105.3180433"><ele>557</ele><name>薄刀岭
        </name></wpt>
  <wpt lat="28.8368453" lon="105.3146192"><ele>424</ele><name>野花芳径
        </name></wpt>
  <trk><name>方山小院环线</name>
      <trkseg>
        <trkpt lat="28.8412731" lon="105.3127879"><ele>293.13</ele><time>2026-05-10T15:08:17.000Z</time></trkpt>
        <trkpt lat="28.8412894" lon="105.3126703"><ele>293.13</ele><time>2026-05-10T15:08:27.000Z</time></trkpt>
        <trkpt lat="28.8413281" lon="105.3125514"><ele>292.34</ele><time>2026-05-10T15:08:37.000Z</time></trkpt>
        <trkpt lat="28.8413727" lon="105.3124298"><ele>291.41</ele><time>2026-05-10T15:08:46.000Z</time></trkpt>
        <trkpt lat="28.8413799" lon="105.3123149"><ele>292.12</ele><time>2026-05-10T15:08:56.000Z</time></trkpt>
        <trkpt lat="28.8413617" lon="105.3122011"><ele>292.48</ele><time>2026-05-10T15:09:04.000Z</time></trkpt>
        <trkpt lat="28.8413155" lon="105.312089"><ele>293.2</ele><time>2026-05-10T15:09:12.000Z</time></trkpt>
        <trkpt lat="28.8412335" lon="105.3120231"><ele>293.97</ele><time>2026-05-10T15:09:20.000Z</time></trkpt>
        <trkpt lat="28.8411366" lon="105.3120012"><ele>295.48</ele><time>2026-05-10T15:09:28.000Z</time></trkpt>
        <trkpt lat="28.8410337" lon="105.3119974"><ele>296.99</ele><time>2026-05-10T15:09:38.000Z</time></trkpt>
        <trkpt lat="28.8409256" lon="105.3120054"><ele>298.46</ele><time>2026-05-10T15:09:52.000Z</time></trkpt>
        <trkpt lat="28.8408209" lon="105.3120059"><ele>300.83</ele><time>2026-05-10T15:10:04.000Z</time></trkpt>
        <trkpt lat="28.8407222" lon="105.3120048"><ele>304.14</ele><time>2026-05-10T15:10:22.000Z</time></trkpt>
        <trkpt lat="28.840626" lon="105.3120073"><ele>307.19</ele><time>2026-05-10T15:10:36.000Z</time></trkpt>
        <trkpt lat="28.8405358" lon="105.3120379"><ele>309.83</ele><time>2026-05-10T15:10:52.000Z</time></trkpt>
        <trkpt lat="28.8404674" lon="105.3121095"><ele>313.52</ele><time>2026-05-10T15:11:08.000Z</time></trkpt>
        <trkpt lat="28.8403974" lon="105.3121875"><ele>316.91</ele><time>2026-05-10T15:11:20.000Z</time></trkpt>
        <trkpt lat="28.840317" lon="105.3122536"><ele>319.53</ele><time>2026-05-10T15:11:32.000Z</time></trkpt>
        <trkpt lat="28.8402273" lon="105.3123107"><ele>321.62</ele><time>2026-05-10T15:11:44.000Z</time></trkpt>
        <trkpt lat="28.8401297" lon="105.3123621"><ele>324.3</ele><time>2026-05-10T15:11:56.000Z</time></trkpt>
        <trkpt lat="28.8400377" lon="105.3124055"><ele>326.82</ele><time>2026-05-10T15:12:06.000Z</time></trkpt>
        <trkpt lat="28.8399421" lon="105.3124164"><ele>328.85</ele><time>2026-05-10T15:12:16.000Z</time></trkpt>
        <trkpt lat="28.8398374" lon="105.3124009"><ele>331.06</ele><time>2026-05-10T15:12:26.000Z</time></trkpt>
        <trkpt lat="28.8397323" lon="105.3123926"><ele>333.38</ele><time>2026-05-10T15:12:36.000Z</time></trkpt>
        <trkpt lat="28.8396213" lon="105.3123917"><ele>335.37</ele><time>2026-05-10T15:12:46.000Z</time></trkpt>
        <trkpt lat="28.8395099" lon="105.3123903"><ele>337.08</ele><time>2026-05-10T15:12:56.000Z</time></trkpt>
        <trkpt lat="28.83941" lon="105.3123879"><ele>338.92</ele><time>2026-05-10T15:13:04.000Z</time></trkpt>
        <trkpt lat="28.8393189" lon="105.3124038"><ele>340.46</ele><time>2026-05-10T15:13:12.000Z</time></trkpt>
        <trkpt lat="28.8392232" lon="105.3124323"><ele>341.5</ele><time>2026-05-10T15:13:22.000Z</time></trkpt>
        <trkpt lat="28.839124" lon="105.312461"><ele>341.96</ele><time>2026-05-10T15:13:32.000Z</time></trkpt>
        <trkpt lat="28.8390214" lon="105.3124947"><ele>343.89</ele><time>2026-05-10T15:13:42.000Z</time></trkpt>
        <trkpt lat="28.83892" lon="105.3125141"><ele>345.98</ele><time>2026-05-10T15:13:52.000Z</time></trkpt>
        <trkpt lat="28.8388238" lon="105.3125264"><ele>348.69</ele><time>2026-05-10T15:14:02.000Z</time></trkpt>
        <trkpt lat="28.8387226" lon="105.3125423"><ele>351.4</ele><time>2026-05-10T15:14:14.000Z</time></trkpt>
        <trkpt lat="28.8386244" lon="105.3125636"><ele>354.35</ele><time>2026-05-10T15:14:22.000Z</time></trkpt>
        <trkpt lat="28.8385191" lon="105.3125855"><ele>356.83</ele><time>2026-05-10T15:14:30.000Z</time></trkpt>
        <trkpt lat="28.8384309" lon="105.312535"><ele>358.59</ele><time>2026-05-10T15:14:38.000Z</time></trkpt>
        <trkpt lat="28.8383574" lon="105.312445"><ele>359.23</ele><time>2026-05-10T15:14:46.000Z</time></trkpt>
        <trkpt lat="28.8382665" lon="105.3124588"><ele>360.17</ele><time>2026-05-10T15:14:56.000Z</time></trkpt>
        <trkpt lat="28.8381928" lon="105.3125317"><ele>360.49</ele><time>2026-05-10T15:15:08.000Z</time></trkpt>
        <trkpt lat="28.8380971" lon="105.3125486"><ele>361.62</ele><time>2026-05-10T15:15:22.000Z</time></trkpt>
        <trkpt lat="28.8379958" lon="105.3125686"><ele>364.03</ele><time>2026-05-10T15:15:36.000Z</time></trkpt>
        <trkpt lat="28.8379132" lon="105.3126311"><ele>366.72</ele><time>2026-05-10T15:15:54.000Z</time></trkpt>
        <trkpt lat="28.8378507" lon="105.312717"><ele>370.47</ele><time>2026-05-10T15:16:08.000Z</time></trkpt>
        <trkpt lat="28.8377709" lon="105.3127874"><ele>375.09</ele><time>2026-05-10T15:16:22.000Z</time></trkpt>
        <trkpt lat="28.83768" lon="105.3128427"><ele>378.62</ele><time>2026-05-10T15:16:36.000Z</time></trkpt>
        <trkpt lat="28.8375863" lon="105.3128881"><ele>382.09</ele><time>2026-05-10T15:16:50.000Z</time></trkpt>
        <trkpt lat="28.8374905" lon="105.3129261"><ele>385.25</ele><time>2026-05-10T15:17:02.000Z</time></trkpt>
        <trkpt lat="28.8373967" lon="105.3129612"><ele>386.53</ele><time>2026-05-10T15:17:12.000Z</time></trkpt>
        <trkpt lat="28.8373021" lon="105.3130007"><ele>387.33</ele><time>2026-05-10T15:17:24.000Z</time></trkpt>
        <trkpt lat="28.8372116" lon="105.3130286"><ele>389.91</ele><time>2026-05-10T15:17:34.000Z</time></trkpt>
        <trkpt lat="28.8371273" lon="105.3130792"><ele>392.4</ele><time>2026-05-10T15:17:46.000Z</time></trkpt>
        <trkpt lat="28.837043" lon="105.3131308"><ele>394.76</ele><time>2026-05-10T15:17:58.000Z</time></trkpt>
        <trkpt lat="28.8369619" lon="105.3131849"><ele>397.21</ele><time>2026-05-10T15:18:08.000Z</time></trkpt>
        <trkpt lat="28.8368766" lon="105.3131535"><ele>399.88</ele><time>2026-05-10T15:18:18.000Z</time></trkpt>
        <trkpt lat="28.8367913" lon="105.3131034"><ele>402.53</ele><time>2026-05-10T15:18:28.000Z</time></trkpt>
        <trkpt lat="28.8367195" lon="105.3131402"><ele>404.2</ele><time>2026-05-10T15:18:40.000Z</time></trkpt>
        <trkpt lat="28.8366384" lon="105.3131251"><ele>405.36</ele><time>2026-05-10T15:18:52.000Z</time></trkpt>
        <trkpt lat="28.8366066" lon="105.3130902"><ele>407.37</ele><time>2026-05-10T15:19:04.000Z</time></trkpt>
        <trkpt lat="28.8365447" lon="105.3131157"><ele>409.87</ele><time>2026-05-10T15:19:16.000Z</time></trkpt>
        <trkpt lat="28.8364601" lon="105.3131528"><ele>410.35</ele><time>2026-05-10T15:19:26.000Z</time></trkpt>
        <trkpt lat="28.8363669" lon="105.3131759"><ele>410.63</ele><time>2026-05-10T15:19:32.000Z</time></trkpt>
        <trkpt lat="28.8362641" lon="105.3131517"><ele>411.2</ele><time>2026-05-10T15:19:40.000Z</time></trkpt>
        <trkpt lat="28.8361705" lon="105.3130834"><ele>412.8</ele><time>2026-05-10T15:19:48.000Z</time></trkpt>
        <trkpt lat="28.8360824" lon="105.3130033"><ele>414.11</ele><time>2026-05-10T15:19:56.000Z</time></trkpt>
        <trkpt lat="28.8360025" lon="105.3129201"><ele>415.45</ele><time>2026-05-10T15:20:04.000Z</time></trkpt>
        <trkpt lat="28.8359164" lon="105.3128634"><ele>417.02</ele><time>2026-05-10T15:20:12.000Z</time></trkpt>
        <trkpt lat="28.835824" lon="105.3128919"><ele>418.11</ele><time>2026-05-10T15:20:22.000Z</time></trkpt>
        <trkpt lat="28.8357319" lon="105.3128789"><ele>417.95</ele><time>2026-05-10T15:20:32.000Z</time></trkpt>
        <trkpt lat="28.8356305" lon="105.3128383"><ele>416.73</ele><time>2026-05-10T15:20:40.000Z</time></trkpt>
        <trkpt lat="28.8355327" lon="105.3128058"><ele>418.18</ele><time>2026-05-10T15:20:50.000Z</time></trkpt>
        <trkpt lat="28.8354418" lon="105.312757"><ele>419.79</ele><time>2026-05-10T15:20:58.000Z</time></trkpt>
        <trkpt lat="28.8353563" lon="105.3126827"><ele>420.89</ele><time>2026-05-10T15:21:06.000Z</time></trkpt>
        <trkpt lat="28.8352522" lon="105.3126715"><ele>422.76</ele><time>2026-05-10T15:21:14.000Z</time></trkpt>
        <trkpt lat="28.8351546" lon="105.3127189"><ele>423.5</ele><time>2026-05-10T15:21:24.000Z</time></trkpt>
        <trkpt lat="28.8350504" lon="105.3127728"><ele>423.97</ele><time>2026-05-10T15:21:34.000Z</time></trkpt>
        <trkpt lat="28.8349585" lon="105.3128254"><ele>424.48</ele><time>2026-05-10T15:21:42.000Z</time></trkpt>
        <trkpt lat="28.8348564" lon="105.3128571"><ele>425.4</ele><time>2026-05-10T15:21:52.000Z</time></trkpt>
        <trkpt lat="28.8347476" lon="105.3128879"><ele>426.28</ele><time>2026-05-10T15:22:02.000Z</time></trkpt>
        <trkpt lat="28.8346429" lon="105.3128924"><ele>428.78</ele><time>2026-05-10T15:22:16.000Z</time></trkpt>
        <trkpt lat="28.834555" lon="105.3128568"><ele>431.63</ele><time>2026-05-10T15:22:26.000Z</time></trkpt>
        <trkpt lat="28.8345279" lon="105.3128057"><ele>432.99</ele><time>2026-05-10T15:22:34.000Z</time></trkpt>
        <trkpt lat="28.8344706" lon="105.3128423"><ele>432.46</ele><time>2026-05-10T15:23:08.000Z</time></trkpt>
        <trkpt lat="28.8343852" lon="105.3128848"><ele>434.05</ele><time>2026-05-10T15:23:38.000Z</time></trkpt>
        <trkpt lat="28.8342943" lon="105.3129278"><ele>439.37</ele><time>2026-05-10T15:24:12.000Z</time></trkpt>
        <trkpt lat="28.8342039" lon="105.3129839"><ele>444.88</ele><time>2026-05-10T15:24:38.000Z</time></trkpt>
        <trkpt lat="28.8341142" lon="105.313021"><ele>451.56</ele><time>2026-05-10T15:24:50.000Z</time></trkpt>
        <trkpt lat="28.8340261" lon="105.313003"><ele>455.62</ele><time>2026-05-10T15:25:04.000Z</time></trkpt>
        <trkpt lat="28.8339686" lon="105.312917"><ele>458.56</ele><time>2026-05-10T15:25:20.000Z</time></trkpt>
        <trkpt lat="28.8339345" lon="105.3128046"><ele>461.22</ele><time>2026-05-10T15:25:36.000Z</time></trkpt>
        <trkpt lat="28.8339723" lon="105.3126964"><ele>464.52</ele><time>2026-05-10T15:25:48.000Z</time></trkpt>
        <trkpt lat="28.834032" lon="105.3125959"><ele>467.18</ele><time>2026-05-10T15:25:58.000Z</time></trkpt>
        <trkpt lat="28.8340579" lon="105.3124867"><ele>470.34</ele><time>2026-05-10T15:26:10.000Z</time></trkpt>
        <trkpt lat="28.8340022" lon="105.3124137"><ele>473.47</ele><time>2026-05-10T15:26:26.000Z</time></trkpt>
        <trkpt lat="28.8339042" lon="105.3123832"><ele>477.03</ele><time>2026-05-10T15:26:44.000Z</time></trkpt>
        <trkpt lat="28.8338263" lon="105.3123205"><ele>480.58</ele><time>2026-05-10T15:27:10.000Z</time></trkpt>
        <trkpt lat="28.8337541" lon="105.3122445"><ele>485.86</ele><time>2026-05-10T15:27:32.000Z</time></trkpt>
        <trkpt lat="28.8337541" lon="105.3122445"><ele>485.86</ele><time>2026-05-10T15:27:58.000Z</time></trkpt>
        <trkpt lat="28.8336613" lon="105.3121734"><ele>490.2</ele><time>2026-05-10T15:28:10.000Z</time></trkpt>
        <trkpt lat="28.8336613" lon="105.3121734"><ele>490.2</ele><time>2026-05-10T15:28:12.000Z</time></trkpt>
        <trkpt lat="28.8335948" lon="105.3120839"><ele>493.46</ele><time>2026-05-10T15:28:24.000Z</time></trkpt>
        <trkpt lat="28.8335341" lon="105.3119911"><ele>497.31</ele><time>2026-05-10T15:28:40.000Z</time></trkpt>
        <trkpt lat="28.8335341" lon="105.3119911"><ele>497.31</ele><time>2026-05-10T15:29:16.000Z</time></trkpt>
        <trkpt lat="28.8334932" lon="105.3117843"><ele>501.92</ele><time>2026-05-10T15:29:46.000Z</time></trkpt>
        <trkpt lat="28.8334932" lon="105.3117843"><ele>501.92</ele><time>2026-05-10T15:29:52.000Z</time></trkpt>
        <trkpt lat="28.8334932" lon="105.3117843"><ele>501.92</ele><time>2026-05-10T15:30:08.000Z</time></trkpt>
        <trkpt lat="28.83344" lon="105.3117991"><ele>506.8</ele><time>2026-05-10T15:30:10.000Z</time></trkpt>
        <trkpt lat="28.83344" lon="105.3117991"><ele>506.8</ele><time>2026-05-10T15:30:48.000Z</time></trkpt>
        <trkpt lat="28.8333651" lon="105.3117679"><ele>517.51</ele><time>2026-05-10T15:31:16.000Z</time></trkpt>
        <trkpt lat="28.8333758" lon="105.311685"><ele>524.51</ele><time>2026-05-10T15:31:28.000Z</time></trkpt>
        <trkpt lat="28.8334059" lon="105.3115817"><ele>529.14</ele><time>2026-05-10T15:31:48.000Z</time></trkpt>
        <trkpt lat="28.8333988" lon="105.3114685"><ele>533.44</ele><time>2026-05-10T15:32:06.000Z</time></trkpt>
        <trkpt lat="28.8334282" lon="105.3113629"><ele>537.26</ele><time>2026-05-10T15:32:24.000Z</time></trkpt>
        <trkpt lat="28.8334603" lon="105.3112595"><ele>541.87</ele><time>2026-05-10T15:32:38.000Z</time></trkpt>
        <trkpt lat="28.8334207" lon="105.3111646"><ele>546.7</ele><time>2026-05-10T15:32:54.000Z</time></trkpt>
        <trkpt lat="28.8333568" lon="105.3110836"><ele>549.46</ele><time>2026-05-10T15:33:06.000Z</time></trkpt>
        <trkpt lat="28.8332677" lon="105.311017"><ele>551.93</ele><time>2026-05-10T15:33:20.000Z</time></trkpt>
        <trkpt lat="28.8331761" lon="105.3109706"><ele>555.83</ele><time>2026-05-10T15:33:32.000Z</time></trkpt>
        <trkpt lat="28.8330828" lon="105.3109225"><ele>558.07</ele><time>2026-05-10T15:33:46.000Z</time></trkpt>
        <trkpt lat="28.8330002" lon="105.3108567"><ele>560.01</ele><time>2026-05-10T15:34:02.000Z</time></trkpt>
        <trkpt lat="28.8329253" lon="105.3107937"><ele>562.59</ele><time>2026-05-10T15:34:12.000Z</time></trkpt>
        <trkpt lat="28.8328535" lon="105.3107299"><ele>563.96</ele><time>2026-05-10T15:34:22.000Z</time></trkpt>
        <trkpt lat="28.8327618" lon="105.3106848"><ele>565.74</ele><time>2026-05-10T15:34:36.000Z</time></trkpt>
        <trkpt lat="28.832662" lon="105.3106796"><ele>567.86</ele><time>2026-05-10T15:34:55.000Z</time></trkpt>
        <trkpt lat="28.8325625" lon="105.3107007"><ele>569.85</ele><time>2026-05-10T15:35:11.000Z</time></trkpt>
        <trkpt lat="28.832463" lon="105.3107399"><ele>573.02</ele><time>2026-05-10T15:35:29.000Z</time></trkpt>
        <trkpt lat="28.8323708" lon="105.3107176"><ele>577.41</ele><time>2026-05-10T15:35:39.000Z</time></trkpt>
        <trkpt lat="28.8322768" lon="105.3106805"><ele>579.43</ele><time>2026-05-10T15:35:47.000Z</time></trkpt>
        <trkpt lat="28.8322164" lon="105.3106649"><ele>581.49</ele><time>2026-05-10T15:35:53.000Z</time></trkpt>
        <trkpt lat="28.8321437" lon="105.3106086"><ele>583.02</ele><time>2026-05-10T15:36:07.000Z</time></trkpt>
        <trkpt lat="28.8320814" lon="105.3105251"><ele>582.83</ele><time>2026-05-10T15:36:19.000Z</time></trkpt>
        <trkpt lat="28.8320102" lon="105.3104134"><ele>582.27</ele><time>2026-05-10T15:36:25.000Z</time></trkpt>
        <trkpt lat="28.8319487" lon="105.3102826"><ele>580.48</ele><time>2026-05-10T15:36:31.000Z</time></trkpt>
        <trkpt lat="28.8319556" lon="105.3101501"><ele>578.68</ele><time>2026-05-10T15:36:37.000Z</time></trkpt>
        <trkpt lat="28.8319921" lon="105.3100209"><ele>576.97</ele><time>2026-05-10T15:36:45.000Z</time></trkpt>
        <trkpt lat="28.8320331" lon="105.3099028"><ele>577.03</ele><time>2026-05-10T15:36:53.000Z</time></trkpt>
        <trkpt lat="28.8320913" lon="105.3097963"><ele>578.3</ele><time>2026-05-10T15:37:01.000Z</time></trkpt>
        <trkpt lat="28.8321374" lon="105.3096943"><ele>579.98</ele><time>2026-05-10T15:37:09.000Z</time></trkpt>
        <trkpt lat="28.8321692" lon="105.3095814"><ele>581.54</ele><time>2026-05-10T15:37:17.000Z</time></trkpt>
        <trkpt lat="28.8321741" lon="105.3094751"><ele>582.46</ele><time>2026-05-10T15:37:23.000Z</time></trkpt>
        <trkpt lat="28.8321921" lon="105.3093511"><ele>582.79</ele><time>2026-05-10T15:37:31.000Z</time></trkpt>
        <trkpt lat="28.8322608" lon="105.3092525"><ele>582.98</ele><time>2026-05-10T15:37:39.000Z</time></trkpt>
        <trkpt lat="28.8323438" lon="105.309172"><ele>581.97</ele><time>2026-05-10T15:37:45.000Z</time></trkpt>
        <trkpt lat="28.8324124" lon="105.3090863"><ele>581.3</ele><time>2026-05-10T15:37:49.000Z</time></trkpt>
        <trkpt lat="28.8324742" lon="105.3090008"><ele>579.89</ele><time>2026-05-10T15:37:53.000Z</time></trkpt>
        <trkpt lat="28.8324878" lon="105.3088766"><ele>579.48</ele><time>2026-05-10T15:37:59.000Z</time></trkpt>
        <trkpt lat="28.8324766" lon="105.3087551"><ele>578.75</ele><time>2026-05-10T15:38:05.000Z</time></trkpt>
        <trkpt lat="28.8324551" lon="105.3086303"><ele>579.28</ele><time>2026-05-10T15:38:13.000Z</time></trkpt>
        <trkpt lat="28.8324482" lon="105.3085046"><ele>579.28</ele><time>2026-05-10T15:38:21.000Z</time></trkpt>
        <trkpt lat="28.8324759" lon="105.3083828"><ele>580.26</ele><time>2026-05-10T15:38:29.000Z</time></trkpt>
        <trkpt lat="28.8325157" lon="105.3082532"><ele>581.02</ele><time>2026-05-10T15:38:37.000Z</time></trkpt>
        <trkpt lat="28.832524" lon="105.3081093"><ele>580.73</ele><time>2026-05-10T15:38:45.000Z</time></trkpt>
        <trkpt lat="28.8324715" lon="105.3079994"><ele>579.9</ele><time>2026-05-10T15:38:51.000Z</time></trkpt>
        <trkpt lat="28.832369" lon="105.3079191"><ele>579.38</ele><time>2026-05-10T15:38:57.000Z</time></trkpt>
        <trkpt lat="28.8322489" lon="105.3078884"><ele>577.82</ele><time>2026-05-10T15:39:03.000Z</time></trkpt>
        <trkpt lat="28.8321418" lon="105.3079051"><ele>575.23</ele><time>2026-05-10T15:39:07.000Z</time></trkpt>
        <trkpt lat="28.8320153" lon="105.3079008"><ele>573.46</ele><time>2026-05-10T15:39:13.000Z</time></trkpt>
        <trkpt lat="28.8319194" lon="105.3078691"><ele>572.43</ele><time>2026-05-10T15:39:17.000Z</time></trkpt>
        <trkpt lat="28.8318308" lon="105.3078166"><ele>572.15</ele><time>2026-05-10T15:39:23.000Z</time></trkpt>
        <trkpt lat="28.8317432" lon="105.3077356"><ele>572.2</ele><time>2026-05-10T15:39:31.000Z</time></trkpt>
        <trkpt lat="28.8316738" lon="105.307636"><ele>572.91</ele><time>2026-05-10T15:39:39.000Z</time></trkpt>
        <trkpt lat="28.8316319" lon="105.3075183"><ele>573.82</ele><time>2026-05-10T15:39:45.000Z</time></trkpt>
        <trkpt lat="28.8316075" lon="105.3074013"><ele>573.77</ele><time>2026-05-10T15:39:51.000Z</time></trkpt>
        <trkpt lat="28.8316238" lon="105.3073469"><ele>572.75</ele><time>2026-05-10T15:39:57.000Z</time></trkpt>
        <trkpt lat="28.8315941" lon="105.3072734"><ele>572.06</ele><time>2026-05-10T15:40:07.000Z</time></trkpt>
        <trkpt lat="28.831548" lon="105.3071745"><ele>571.04</ele><time>2026-05-10T15:40:23.000Z</time></trkpt>
        <trkpt lat="28.8314982" lon="105.3070724"><ele>571.26</ele><time>2026-05-10T15:40:29.000Z</time></trkpt>
        <trkpt lat="28.8314366" lon="105.3069595"><ele>571.07</ele><time>2026-05-10T15:40:37.000Z</time></trkpt>
        <trkpt lat="28.8313768" lon="105.3068393"><ele>570.63</ele><time>2026-05-10T15:40:45.000Z</time></trkpt>
        <trkpt lat="28.8313161" lon="105.3067167"><ele>570.08</ele><time>2026-05-10T15:40:53.000Z</time></trkpt>
        <trkpt lat="28.8312802" lon="105.3066088"><ele>568.95</ele><time>2026-05-10T15:40:59.000Z</time></trkpt>
        <trkpt lat="28.8312934" lon="105.306509"><ele>569.49</ele><time>2026-05-10T15:41:05.000Z</time></trkpt>
        <trkpt lat="28.831334" lon="105.3064136"><ele>570.03</ele><time>2026-05-10T15:41:11.000Z</time></trkpt>
        <trkpt lat="28.8313364" lon="105.3062948"><ele>570.92</ele><time>2026-05-10T15:41:19.000Z</time></trkpt>
        <trkpt lat="28.8313012" lon="105.3061697"><ele>570.69</ele><time>2026-05-10T15:41:27.000Z</time></trkpt>
        <trkpt lat="28.8312409" lon="105.3060519"><ele>571.04</ele><time>2026-05-10T15:41:35.000Z</time></trkpt>
        <trkpt lat="28.8312352" lon="105.305925"><ele>570.8</ele><time>2026-05-10T15:41:41.000Z</time></trkpt>
        <trkpt lat="28.8312206" lon="105.3057901"><ele>570.7</ele><time>2026-05-10T15:41:47.000Z</time></trkpt>
        <trkpt lat="28.8312134" lon="105.3056601"><ele>568.24</ele><time>2026-05-10T15:41:53.000Z</time></trkpt>
        <trkpt lat="28.8312142" lon="105.305513"><ele>564.75</ele><time>2026-05-10T15:41:59.000Z</time></trkpt>
        <trkpt lat="28.8311893" lon="105.3053863"><ele>561.66</ele><time>2026-05-10T15:42:03.000Z</time></trkpt>
        <trkpt lat="28.8311207" lon="105.3052749"><ele>559.97</ele><time>2026-05-10T15:42:09.000Z</time></trkpt>
        <trkpt lat="28.83105" lon="105.305184"><ele>559.83</ele><time>2026-05-10T15:42:15.000Z</time></trkpt>
        <trkpt lat="28.8309653" lon="105.3050977"><ele>559.73</ele><time>2026-05-10T15:42:21.000Z</time></trkpt>
        <trkpt lat="28.8308694" lon="105.3050517"><ele>560.31</ele><time>2026-05-10T15:42:27.000Z</time></trkpt>
        <trkpt lat="28.8307687" lon="105.3050387"><ele>560.45</ele><time>2026-05-10T15:42:33.000Z</time></trkpt>
        <trkpt lat="28.8306887" lon="105.304979"><ele>560.35</ele><time>2026-05-10T15:42:41.000Z</time></trkpt>
        <trkpt lat="28.8306432" lon="105.3048696"><ele>561.29</ele><time>2026-05-10T15:42:49.000Z</time></trkpt>
        <trkpt lat="28.8306412" lon="105.3047317"><ele>561.96</ele><time>2026-05-10T15:42:57.000Z</time></trkpt>
        <trkpt lat="28.8306583" lon="105.30461"><ele>564.09</ele><time>2026-05-10T15:43:03.000Z</time></trkpt>
        <trkpt lat="28.8306471" lon="105.3044843"><ele>566.08</ele><time>2026-05-10T15:43:11.000Z</time></trkpt>
        <trkpt lat="28.8305896" lon="105.3043802"><ele>567.19</ele><time>2026-05-10T15:43:19.000Z</time></trkpt>
        <trkpt lat="28.8305015" lon="105.3043231"><ele>567.53</ele><time>2026-05-10T15:43:25.000Z</time></trkpt>
        <trkpt lat="28.830393" lon="105.3042943"><ele>568.54</ele><time>2026-05-10T15:43:31.000Z</time></trkpt>
        <trkpt lat="28.8302787" lon="105.3042664"><ele>568.53</ele><time>2026-05-10T15:43:39.000Z</time></trkpt>
        <trkpt lat="28.8301797" lon="105.3042468"><ele>568.5</ele><time>2026-05-10T15:43:45.000Z</time></trkpt>
        <trkpt lat="28.8300586" lon="105.3042358"><ele>567.25</ele><time>2026-05-10T15:43:53.000Z</time></trkpt>
        <trkpt lat="28.8299476" lon="105.3042065"><ele>566.81</ele><time>2026-05-10T15:43:59.000Z</time></trkpt>
        <trkpt lat="28.8298513" lon="105.3042085"><ele>567.69</ele><time>2026-05-10T15:44:05.000Z</time></trkpt>
        <trkpt lat="28.8297898" lon="105.3041484"><ele>568.46</ele><time>2026-05-10T15:44:13.000Z</time></trkpt>
        <trkpt lat="28.8297539" lon="105.3040559"><ele>568.88</ele><time>2026-05-10T15:44:19.000Z</time></trkpt>
        <trkpt lat="28.8297055" lon="105.3039676"><ele>568.07</ele><time>2026-05-10T15:44:25.000Z</time></trkpt>
        <trkpt lat="28.8296167" lon="105.3039304"><ele>567.6</ele><time>2026-05-10T15:44:33.000Z</time></trkpt>
        <trkpt lat="28.8295117" lon="105.3039668"><ele>566.59</ele><time>2026-05-10T15:44:41.000Z</time></trkpt>
        <trkpt lat="28.829422" lon="105.3040291"><ele>565.44</ele><time>2026-05-10T15:44:47.000Z</time></trkpt>
        <trkpt lat="28.829343" lon="105.3040992"><ele>563.87</ele><time>2026-05-10T15:44:53.000Z</time></trkpt>
        <trkpt lat="28.8292469" lon="105.304155"><ele>561.22</ele><time>2026-05-10T15:44:59.000Z</time></trkpt>
        <trkpt lat="28.8291969" lon="105.3042468"><ele>560.4</ele><time>2026-05-10T15:45:03.000Z</time></trkpt>
        <trkpt lat="28.8292025" lon="105.3043614"><ele>560.92</ele><time>2026-05-10T15:45:07.000Z</time></trkpt>
        <trkpt lat="28.829213" lon="105.3045073"><ele>562.68</ele><time>2026-05-10T15:45:13.000Z</time></trkpt>
        <trkpt lat="28.8292234" lon="105.3046412"><ele>564.02</ele><time>2026-05-10T15:45:19.000Z</time></trkpt>
        <trkpt lat="28.829177" lon="105.3047364"><ele>563.44</ele><time>2026-05-10T15:45:27.000Z</time></trkpt>
        <trkpt lat="28.8291035" lon="105.304807"><ele>561.27</ele><time>2026-05-10T15:45:35.000Z</time></trkpt>
        <trkpt lat="28.828982" lon="105.3048391"><ele>559.53</ele><time>2026-05-10T15:45:43.000Z</time></trkpt>
        <trkpt lat="28.8288586" lon="105.3048675"><ele>557.37</ele><time>2026-05-10T15:45:47.000Z</time></trkpt>
        <trkpt lat="28.8287393" lon="105.3049119"><ele>556.18</ele><time>2026-05-10T15:45:51.000Z</time></trkpt>
        <trkpt lat="28.8286308" lon="105.3049434"><ele>557.3</ele><time>2026-05-10T15:45:55.000Z</time></trkpt>
        <trkpt lat="28.8285249" lon="105.3049365"><ele>559.52</ele><time>2026-05-10T15:46:01.000Z</time></trkpt>
        <trkpt lat="28.8284681" lon="105.3049122"><ele>561.59</ele><time>2026-05-10T15:46:07.000Z</time></trkpt>
        <trkpt lat="28.8284004" lon="105.3048342"><ele>562.67</ele><time>2026-05-10T15:46:21.000Z</time></trkpt>
        <trkpt lat="28.828312" lon="105.3047837"><ele>563.1</ele><time>2026-05-10T15:46:27.000Z</time></trkpt>
        <trkpt lat="28.8282193" lon="105.3047895"><ele>564.17</ele><time>2026-05-10T15:46:33.000Z</time></trkpt>
        <trkpt lat="28.8281515" lon="105.3048613"><ele>565.64</ele><time>2026-05-10T15:46:39.000Z</time></trkpt>
        <trkpt lat="28.8280794" lon="105.3049679"><ele>566.8</ele><time>2026-05-10T15:46:47.000Z</time></trkpt>
        <trkpt lat="28.8280644" lon="105.305003"><ele>567.69</ele><time>2026-05-10T15:46:49.000Z</time></trkpt>
        <trkpt lat="28.8279946" lon="105.305049"><ele>568.26</ele><time>2026-05-10T15:47:05.000Z</time></trkpt>
        <trkpt lat="28.8279111" lon="105.3051043"><ele>567.97</ele><time>2026-05-10T15:47:11.000Z</time></trkpt>
        <trkpt lat="28.8278459" lon="105.3051881"><ele>568.4</ele><time>2026-05-10T15:47:17.000Z</time></trkpt>
        <trkpt lat="28.8277994" lon="105.3052862"><ele>568.51</ele><time>2026-05-10T15:47:23.000Z</time></trkpt>
        <trkpt lat="28.8277977" lon="105.3053939"><ele>568.47</ele><time>2026-05-10T15:47:29.000Z</time></trkpt>
        <trkpt lat="28.8278684" lon="105.3054864"><ele>568.67</ele><time>2026-05-10T15:47:37.000Z</time></trkpt>
        <trkpt lat="28.827987" lon="105.305507"><ele>568.86</ele><time>2026-05-10T15:47:45.000Z</time></trkpt>
        <trkpt lat="28.8280845" lon="105.3054593"><ele>568.08</ele><time>2026-05-10T15:47:51.000Z</time></trkpt>
        <trkpt lat="28.8281789" lon="105.305417"><ele>568.61</ele><time>2026-05-10T15:47:57.000Z</time></trkpt>
        <trkpt lat="28.8282688" lon="105.3053776"><ele>569.16</ele><time>2026-05-10T15:48:03.000Z</time></trkpt>
        <trkpt lat="28.828364" lon="105.3053767"><ele>569.61</ele><time>2026-05-10T15:48:09.000Z</time></trkpt>
        <trkpt lat="28.8284431" lon="105.305427"><ele>569.73</ele><time>2026-05-10T15:48:15.000Z</time></trkpt>
        <trkpt lat="28.8285243" lon="105.3055047"><ele>568.22</ele><time>2026-05-10T15:48:21.000Z</time></trkpt>
        <trkpt lat="28.8286159" lon="105.3055796"><ele>565.43</ele><time>2026-05-10T15:48:25.000Z</time></trkpt>
        <trkpt lat="28.8286906" lon="105.3056619"><ele>563.56</ele><time>2026-05-10T15:48:29.000Z</time></trkpt>
        <trkpt lat="28.8287508" lon="105.3057594"><ele>562.66</ele><time>2026-05-10T15:48:35.000Z</time></trkpt>
        <trkpt lat="28.828794" lon="105.3058734"><ele>561.97</ele><time>2026-05-10T15:48:43.000Z</time></trkpt>
        <trkpt lat="28.8288429" lon="105.3059884"><ele>562.42</ele><time>2026-05-10T15:48:51.000Z</time></trkpt>
        <trkpt lat="28.8288879" lon="105.3061073"><ele>563.17</ele><time>2026-05-10T15:48:59.000Z</time></trkpt>
        <trkpt lat="28.8288649" lon="105.3062124"><ele>564.98</ele><time>2026-05-10T15:49:07.000Z</time></trkpt>
        <trkpt lat="28.8287685" lon="105.306241"><ele>566.58</ele><time>2026-05-10T15:49:17.000Z</time></trkpt>
        <trkpt lat="28.8286668" lon="105.3062028"><ele>565.94</ele><time>2026-05-10T15:49:25.000Z</time></trkpt>
        <trkpt lat="28.8285666" lon="105.3061448"><ele>566.21</ele><time>2026-05-10T15:49:33.000Z</time></trkpt>
        <trkpt lat="28.8284597" lon="105.3061241"><ele>567.62</ele><time>2026-05-10T15:49:41.000Z</time></trkpt>
        <trkpt lat="28.8283798" lon="105.3061696"><ele>568.8</ele><time>2026-05-10T15:49:47.000Z</time></trkpt>
        <trkpt lat="28.8283181" lon="105.3062478"><ele>570.87</ele><time>2026-05-10T15:49:53.000Z</time></trkpt>
        <trkpt lat="28.8282437" lon="105.3063102"><ele>571.43</ele><time>2026-05-10T15:49:59.000Z</time></trkpt>
        <trkpt lat="28.8281479" lon="105.3062914"><ele>570.58</ele><time>2026-05-10T15:50:07.000Z</time></trkpt>
        <trkpt lat="28.8280672" lon="105.3062165"><ele>569.59</ele><time>2026-05-10T15:50:15.000Z</time></trkpt>
        <trkpt lat="28.8279999" lon="105.3061057"><ele>571.7</ele><time>2026-05-10T15:50:23.000Z</time></trkpt>
        <trkpt lat="28.8279339" lon="105.3059848"><ele>573.95</ele><time>2026-05-10T15:50:31.000Z</time></trkpt>
        <trkpt lat="28.8278319" lon="105.3059599"><ele>575.06</ele><time>2026-05-10T15:50:37.000Z</time></trkpt>
        <trkpt lat="28.8277286" lon="105.3059461"><ele>574.81</ele><time>2026-05-10T15:50:43.000Z</time></trkpt>
        <trkpt lat="28.8276199" lon="105.3059126"><ele>574.74</ele><time>2026-05-10T15:50:51.000Z</time></trkpt>
        <trkpt lat="28.8275182" lon="105.3058692"><ele>576.95</ele><time>2026-05-10T15:50:59.000Z</time></trkpt>
        <trkpt lat="28.8274248" lon="105.3058117"><ele>579.14</ele><time>2026-05-10T15:51:07.000Z</time></trkpt>
        <trkpt lat="28.827336" lon="105.3057497"><ele>581.88</ele><time>2026-05-10T15:51:15.000Z</time></trkpt>
        <trkpt lat="28.8272432" lon="105.3056568"><ele>582.41</ele><time>2026-05-10T15:51:21.000Z</time></trkpt>
        <trkpt lat="28.8271318" lon="105.3055677"><ele>582.24</ele><time>2026-05-10T15:51:27.000Z</time></trkpt>
        <trkpt lat="28.8270242" lon="105.3055019"><ele>582.33</ele><time>2026-05-10T15:51:33.000Z</time></trkpt>
        <trkpt lat="28.8269186" lon="105.3054478"><ele>583.28</ele><time>2026-05-10T15:51:41.000Z</time></trkpt>
        <trkpt lat="28.8268314" lon="105.3053899"><ele>583.04</ele><time>2026-05-10T15:51:47.000Z</time></trkpt>
        <trkpt lat="28.8267445" lon="105.3053304"><ele>583.58</ele><time>2026-05-10T15:51:53.000Z</time></trkpt>
        <trkpt lat="28.8266938" lon="105.3053186"><ele>584</ele><time>2026-05-10T15:51:57.000Z</time></trkpt>
        <trkpt lat="28.8266107" lon="105.3052649"><ele>585.41</ele><time>2026-05-10T15:52:03.000Z</time></trkpt>
        <trkpt lat="28.8265283" lon="105.3051906"><ele>584.62</ele><time>2026-05-10T15:52:11.000Z</time></trkpt>
        <trkpt lat="28.8264411" lon="105.3051379"><ele>583.28</ele><time>2026-05-10T15:52:19.000Z</time></trkpt>
        <trkpt lat="28.8264262" lon="105.3051711"><ele>582.83</ele><time>2026-05-10T15:52:29.000Z</time></trkpt>
        <trkpt lat="28.8264534" lon="105.3052643"><ele>581.8</ele><time>2026-05-10T15:52:41.000Z</time></trkpt>
        <trkpt lat="28.8264885" lon="105.3053867"><ele>580.62</ele><time>2026-05-10T15:52:49.000Z</time></trkpt>
        <trkpt lat="28.8265286" lon="105.3055131"><ele>579.7</ele><time>2026-05-10T15:52:57.000Z</time></trkpt>
        <trkpt lat="28.826561" lon="105.3056275"><ele>577.91</ele><time>2026-05-10T15:53:03.000Z</time></trkpt>
        <trkpt lat="28.8266014" lon="105.3057301"><ele>576.46</ele><time>2026-05-10T15:53:09.000Z</time></trkpt>
        <trkpt lat="28.8266643" lon="105.305822"><ele>574.58</ele><time>2026-05-10T15:53:15.000Z</time></trkpt>
        <trkpt lat="28.8267648" lon="105.3058825"><ele>572.91</ele><time>2026-05-10T15:53:21.000Z</time></trkpt>
        <trkpt lat="28.8268691" lon="105.3059211"><ele>572</ele><time>2026-05-10T15:53:27.000Z</time></trkpt>
        <trkpt lat="28.8269402" lon="105.3059892"><ele>571.79</ele><time>2026-05-10T15:53:33.000Z</time></trkpt>
        <trkpt lat="28.8269385" lon="105.3061035"><ele>571.39</ele><time>2026-05-10T15:53:41.000Z</time></trkpt>
        <trkpt lat="28.8268925" lon="105.3062106"><ele>570.38</ele><time>2026-05-10T15:53:47.000Z</time></trkpt>
        <trkpt lat="28.8268504" lon="105.3063148"><ele>570.66</ele><time>2026-05-10T15:53:53.000Z</time></trkpt>
        <trkpt lat="28.826839" lon="105.306444"><ele>570.24</ele><time>2026-05-10T15:54:01.000Z</time></trkpt>
        <trkpt lat="28.826842" lon="105.3065591"><ele>570.42</ele><time>2026-05-10T15:54:07.000Z</time></trkpt>
        <trkpt lat="28.8268499" lon="105.3066665"><ele>570.71</ele><time>2026-05-10T15:54:13.000Z</time></trkpt>
        <trkpt lat="28.8268691" lon="105.3067679"><ele>570.48</ele><time>2026-05-10T15:54:19.000Z</time></trkpt>
        <trkpt lat="28.8269061" lon="105.306864"><ele>570.74</ele><time>2026-05-10T15:54:25.000Z</time></trkpt>
        <trkpt lat="28.8269711" lon="105.3069357"><ele>570.26</ele><time>2026-05-10T15:54:31.000Z</time></trkpt>
        <trkpt lat="28.8270545" lon="105.3069828"><ele>569.49</ele><time>2026-05-10T15:54:37.000Z</time></trkpt>
        <trkpt lat="28.8271434" lon="105.3070266"><ele>570.08</ele><time>2026-05-10T15:54:43.000Z</time></trkpt>
        <trkpt lat="28.8272265" lon="105.3071032"><ele>571.12</ele><time>2026-05-10T15:54:49.000Z</time></trkpt>
        <trkpt lat="28.8272138" lon="105.3072138"><ele>571.19</ele><time>2026-05-10T15:54:55.000Z</time></trkpt>
        <trkpt lat="28.8271383" lon="105.3073177"><ele>569.71</ele><time>2026-05-10T15:54:59.000Z</time></trkpt>
        <trkpt lat="28.8270255" lon="105.3073844"><ele>568.16</ele><time>2026-05-10T15:55:05.000Z</time></trkpt>
        <trkpt lat="28.8269463" lon="105.3074934"><ele>566.81</ele><time>2026-05-10T15:55:11.000Z</time></trkpt>
        <trkpt lat="28.8269112" lon="105.3076076"><ele>566.75</ele><time>2026-05-10T15:55:17.000Z</time></trkpt>
        <trkpt lat="28.8269216" lon="105.3077143"><ele>565.32</ele><time>2026-05-10T15:55:23.000Z</time></trkpt>
        <trkpt lat="28.8269643" lon="105.3078174"><ele>564.31</ele><time>2026-05-10T15:55:29.000Z</time></trkpt>
        <trkpt lat="28.8270102" lon="105.3079143"><ele>564.24</ele><time>2026-05-10T15:55:35.000Z</time></trkpt>
        <trkpt lat="28.8270589" lon="105.308015"><ele>564.34</ele><time>2026-05-10T15:55:41.000Z</time></trkpt>
        <trkpt lat="28.8271148" lon="105.3081104"><ele>563.89</ele><time>2026-05-10T15:55:47.000Z</time></trkpt>
        <trkpt lat="28.8271845" lon="105.3081994"><ele>563.29</ele><time>2026-05-10T15:55:53.000Z</time></trkpt>
        <trkpt lat="28.8272721" lon="105.3082706"><ele>563.29</ele><time>2026-05-10T15:55:59.000Z</time></trkpt>
        <trkpt lat="28.8273631" lon="105.3083125"><ele>563.6</ele><time>2026-05-10T15:56:03.000Z</time></trkpt>
        <trkpt lat="28.8274654" lon="105.3083265"><ele>563.59</ele><time>2026-05-10T15:56:07.000Z</time></trkpt>
        <trkpt lat="28.8275829" lon="105.308343"><ele>563.48</ele><time>2026-05-10T15:56:11.000Z</time></trkpt>
        <trkpt lat="28.8276616" lon="105.3084163"><ele>563.84</ele><time>2026-05-10T15:56:15.000Z</time></trkpt>
        <trkpt lat="28.8276558" lon="105.3085203"><ele>564.59</ele><time>2026-05-10T15:56:21.000Z</time></trkpt>
        <trkpt lat="28.8276214" lon="105.3086353"><ele>565.34</ele><time>2026-05-10T15:56:27.000Z</time></trkpt>
        <trkpt lat="28.8275923" lon="105.3087687"><ele>564.8</ele><time>2026-05-10T15:56:35.000Z</time></trkpt>
        <trkpt lat="28.8275762" lon="105.3088839"><ele>563.86</ele><time>2026-05-10T15:56:41.000Z</time></trkpt>
        <trkpt lat="28.8275626" lon="105.3090129"><ele>563.4</ele><time>2026-05-10T15:56:49.000Z</time></trkpt>
        <trkpt lat="28.8274893" lon="105.3090726"><ele>563.56</ele><time>2026-05-10T15:56:55.000Z</time></trkpt>
        <trkpt lat="28.8273933" lon="105.3090755"><ele>563.22</ele><time>2026-05-10T15:57:01.000Z</time></trkpt>
        <trkpt lat="28.8273133" lon="105.3091287"><ele>562.82</ele><time>2026-05-10T15:57:09.000Z</time></trkpt>
        <trkpt lat="28.8273146" lon="105.3092395"><ele>562.56</ele><time>2026-05-10T15:57:15.000Z</time></trkpt>
        <trkpt lat="28.8273284" lon="105.3093535"><ele>562.9</ele><time>2026-05-10T15:57:21.000Z</time></trkpt>
        <trkpt lat="28.8273373" lon="105.3094874"><ele>563.57</ele><time>2026-05-10T15:57:29.000Z</time></trkpt>
        <trkpt lat="28.8273674" lon="105.3096235"><ele>563.92</ele><time>2026-05-10T15:57:37.000Z</time></trkpt>
        <trkpt lat="28.8273964" lon="105.3097507"><ele>564.33</ele><time>2026-05-10T15:57:43.000Z</time></trkpt>
        <trkpt lat="28.8274497" lon="105.3098586"><ele>564.5</ele><time>2026-05-10T15:57:49.000Z</time></trkpt>
        <trkpt lat="28.8275106" lon="105.3099446"><ele>565.2</ele><time>2026-05-10T15:57:55.000Z</time></trkpt>
        <trkpt lat="28.8275796" lon="105.3100443"><ele>566.21</ele><time>2026-05-10T15:58:03.000Z</time></trkpt>
        <trkpt lat="28.8276237" lon="105.3101417"><ele>565.79</ele><time>2026-05-10T15:58:09.000Z</time></trkpt>
        <trkpt lat="28.8276142" lon="105.3102507"><ele>566.04</ele><time>2026-05-10T15:58:15.000Z</time></trkpt>
        <trkpt lat="28.8275735" lon="105.3103515"><ele>566.14</ele><time>2026-05-10T15:58:19.000Z</time></trkpt>
        <trkpt lat="28.8275229" lon="105.3104435"><ele>567.24</ele><time>2026-05-10T15:58:23.000Z</time></trkpt>
        <trkpt lat="28.8274646" lon="105.3105362"><ele>568.5</ele><time>2026-05-10T15:58:29.000Z</time></trkpt>
        <trkpt lat="28.8274029" lon="105.3106488"><ele>568.93</ele><time>2026-05-10T15:58:37.000Z</time></trkpt>
        <trkpt lat="28.8273555" lon="105.3107531"><ele>569.39</ele><time>2026-05-10T15:58:43.000Z</time></trkpt>
        <trkpt lat="28.8273293" lon="105.3108592"><ele>570.12</ele><time>2026-05-10T15:58:49.000Z</time></trkpt>
        <trkpt lat="28.8273693" lon="105.3109651"><ele>570.8</ele><time>2026-05-10T15:58:57.000Z</time></trkpt>
        <trkpt lat="28.82739" lon="105.311005"><ele>571.87</ele><time>2026-05-10T15:58:59.000Z</time></trkpt>
        <trkpt lat="28.8273544" lon="105.310924"><ele>573.11</ele><time>2026-05-10T15:59:23.000Z</time></trkpt>
        <trkpt lat="28.8273062" lon="105.310838"><ele>572.92</ele><time>2026-05-10T15:59:31.000Z</time></trkpt>
        <trkpt lat="28.8272082" lon="105.31082"><ele>574.33</ele><time>2026-05-10T15:59:41.000Z</time></trkpt>
        <trkpt lat="28.8270996" lon="105.3108384"><ele>573.08</ele><time>2026-05-10T15:59:47.000Z</time></trkpt>
        <trkpt lat="28.8269798" lon="105.3108386"><ele>569.86</ele><time>2026-05-10T15:59:53.000Z</time></trkpt>
        <trkpt lat="28.8268615" lon="105.310842"><ele>563.55</ele><time>2026-05-10T15:59:57.000Z</time></trkpt>
        <trkpt lat="28.8267477" lon="105.3108632"><ele>559.33</ele><time>2026-05-10T16:00:01.000Z</time></trkpt>
        <trkpt lat="28.8266426" lon="105.3108778"><ele>555.96</ele><time>2026-05-10T16:00:05.000Z</time></trkpt>
        <trkpt lat="28.826531" lon="105.3108901"><ele>554.1</ele><time>2026-05-10T16:00:09.000Z</time></trkpt>
        <trkpt lat="28.8264068" lon="105.310938"><ele>552.62</ele><time>2026-05-10T16:00:13.000Z</time></trkpt>
        <trkpt lat="28.826299" lon="105.3109706"><ele>552.3</ele><time>2026-05-10T16:00:17.000Z</time></trkpt>
        <trkpt lat="28.8261837" lon="105.3110272"><ele>552.3</ele><time>2026-05-10T16:00:21.000Z</time></trkpt>
        <trkpt lat="28.8260886" lon="105.3110841"><ele>552.01</ele><time>2026-05-10T16:00:25.000Z</time></trkpt>
        <trkpt lat="28.8260049" lon="105.3111443"><ele>551.19</ele><time>2026-05-10T16:00:31.000Z</time></trkpt>
        <trkpt lat="28.8259655" lon="105.3110775"><ele>550.34</ele><time>2026-05-10T16:00:55.000Z</time></trkpt>
        <trkpt lat="28.8259628" lon="105.3109557"><ele>545.84</ele><time>2026-05-10T16:01:07.000Z</time></trkpt>
        <trkpt lat="28.8259467" lon="105.310833"><ele>542.76</ele><time>2026-05-10T16:01:17.000Z</time></trkpt>
        <trkpt lat="28.8259178" lon="105.3107114"><ele>538.79</ele><time>2026-05-10T16:01:23.000Z</time></trkpt>
        <trkpt lat="28.8258803" lon="105.3105754"><ele>535.54</ele><time>2026-05-10T16:01:29.000Z</time></trkpt>
        <trkpt lat="28.8258362" lon="105.3104635"><ele>533.34</ele><time>2026-05-10T16:01:35.000Z</time></trkpt>
        <trkpt lat="28.8257891" lon="105.3103678"><ele>530.43</ele><time>2026-05-10T16:01:41.000Z</time></trkpt>
        <trkpt lat="28.8257251" lon="105.3104139"><ele>526.35</ele><time>2026-05-10T16:01:53.000Z</time></trkpt>
        <trkpt lat="28.8256436" lon="105.3104119"><ele>523.17</ele><time>2026-05-10T16:02:03.000Z</time></trkpt>
        <trkpt lat="28.825615" lon="105.3104932"><ele>518.88</ele><time>2026-05-10T16:02:11.000Z</time></trkpt>
        <trkpt lat="28.8255389" lon="105.3105144"><ele>515.1</ele><time>2026-05-10T16:02:23.000Z</time></trkpt>
        <trkpt lat="28.8254383" lon="105.3105034"><ele>508.87</ele><time>2026-05-10T16:02:33.000Z</time></trkpt>
        <trkpt lat="28.8253401" lon="105.3104359"><ele>503.26</ele><time>2026-05-10T16:02:39.000Z</time></trkpt>
        <trkpt lat="28.8253067" lon="105.3104885"><ele>499.72</ele><time>2026-05-10T16:02:45.000Z</time></trkpt>
        <trkpt lat="28.825358" lon="105.3105971"><ele>497.17</ele><time>2026-05-10T16:02:51.000Z</time></trkpt>
        <trkpt lat="28.8253848" lon="105.3107385"><ele>495.93</ele><time>2026-05-10T16:02:57.000Z</time></trkpt>
        <trkpt lat="28.8253489" lon="105.3108519"><ele>494.72</ele><time>2026-05-10T16:03:03.000Z</time></trkpt>
        <trkpt lat="28.8253057" lon="105.3109643"><ele>494.33</ele><time>2026-05-10T16:03:09.000Z</time></trkpt>
        <trkpt lat="28.8252768" lon="105.3110818"><ele>493.46</ele><time>2026-05-10T16:03:15.000Z</time></trkpt>
        <trkpt lat="28.8252658" lon="105.3111896"><ele>491.84</ele><time>2026-05-10T16:03:19.000Z</time></trkpt>
        <trkpt lat="28.825232" lon="105.311306"><ele>491.26</ele><time>2026-05-10T16:03:27.000Z</time></trkpt>
        <trkpt lat="28.8251958" lon="105.3114215"><ele>491.75</ele><time>2026-05-10T16:03:35.000Z</time></trkpt>
        <trkpt lat="28.8251369" lon="105.3115268"><ele>492.22</ele><time>2026-05-10T16:03:43.000Z</time></trkpt>
        <trkpt lat="28.8250564" lon="105.3116178"><ele>492.8</ele><time>2026-05-10T16:03:51.000Z</time></trkpt>
        <trkpt lat="28.8250448" lon="105.3117233"><ele>493.29</ele><time>2026-05-10T16:03:59.000Z</time></trkpt>
        <trkpt lat="28.8250998" lon="105.3118214"><ele>494.02</ele><time>2026-05-10T16:04:07.000Z</time></trkpt>
        <trkpt lat="28.825201" lon="105.3118928"><ele>493.66</ele><time>2026-05-10T16:04:13.000Z</time></trkpt>
        <trkpt lat="28.8252979" lon="105.3119633"><ele>491.58</ele><time>2026-05-10T16:04:19.000Z</time></trkpt>
        <trkpt lat="28.825352" lon="105.3120541"><ele>489.74</ele><time>2026-05-10T16:04:25.000Z</time></trkpt>
        <trkpt lat="28.8254373" lon="105.3121515"><ele>488.43</ele><time>2026-05-10T16:04:31.000Z</time></trkpt>
        <trkpt lat="28.8255219" lon="105.3122142"><ele>487.7</ele><time>2026-05-10T16:04:35.000Z</time></trkpt>
        <trkpt lat="28.8256282" lon="105.3122806"><ele>486.9</ele><time>2026-05-10T16:04:41.000Z</time></trkpt>
        <trkpt lat="28.8257033" lon="105.3123686"><ele>486.24</ele><time>2026-05-10T16:04:47.000Z</time></trkpt>
        <trkpt lat="28.8257618" lon="105.3124555"><ele>486.81</ele><time>2026-05-10T16:04:53.000Z</time></trkpt>
        <trkpt lat="28.8257655" lon="105.3125673"><ele>487.09</ele><time>2026-05-10T16:05:01.000Z</time></trkpt>
        <trkpt lat="28.8257614" lon="105.3126968"><ele>486.44</ele><time>2026-05-10T16:05:07.000Z</time></trkpt>
        <trkpt lat="28.8257411" lon="105.3128222"><ele>486.11</ele><time>2026-05-10T16:05:13.000Z</time></trkpt>
        <trkpt lat="28.8256881" lon="105.3129202"><ele>485.15</ele><time>2026-05-10T16:05:19.000Z</time></trkpt>
        <trkpt lat="28.8255983" lon="105.312979"><ele>483.83</ele><time>2026-05-10T16:05:25.000Z</time></trkpt>
        <trkpt lat="28.8254981" lon="105.313017"><ele>482.52</ele><time>2026-05-10T16:05:31.000Z</time></trkpt>
        <trkpt lat="28.825413" lon="105.3130978"><ele>481.94</ele><time>2026-05-10T16:05:39.000Z</time></trkpt>
        <trkpt lat="28.8253452" lon="105.3131786"><ele>481.42</ele><time>2026-05-10T16:05:45.000Z</time></trkpt>
        <trkpt lat="28.8253415" lon="105.3131078"><ele>481.09</ele><time>2026-05-10T16:05:55.000Z</time></trkpt>
        <trkpt lat="28.8253964" lon="105.3130124"><ele>479.76</ele><time>2026-05-10T16:05:59.000Z</time></trkpt>
        <trkpt lat="28.8254787" lon="105.3129218"><ele>478.13</ele><time>2026-05-10T16:06:03.000Z</time></trkpt>
        <trkpt lat="28.8255462" lon="105.3128276"><ele>476.84</ele><time>2026-05-10T16:06:07.000Z</time></trkpt>
        <trkpt lat="28.825557" lon="105.3127002"><ele>475.21</ele><time>2026-05-10T16:06:13.000Z</time></trkpt>
        <trkpt lat="28.8255062" lon="105.312592"><ele>474.09</ele><time>2026-05-10T16:06:19.000Z</time></trkpt>
        <trkpt lat="28.8254125" lon="105.3125384"><ele>473.17</ele><time>2026-05-10T16:06:25.000Z</time></trkpt>
        <trkpt lat="28.8252977" lon="105.3124984"><ele>471.94</ele><time>2026-05-10T16:06:31.000Z</time></trkpt>
        <trkpt lat="28.8251742" lon="105.3124605"><ele>470.35</ele><time>2026-05-10T16:06:39.000Z</time></trkpt>
        <trkpt lat="28.8250623" lon="105.3124095"><ele>468.35</ele><time>2026-05-10T16:06:45.000Z</time></trkpt>
        <trkpt lat="28.8249671" lon="105.3123674"><ele>465.79</ele><time>2026-05-10T16:06:53.000Z</time></trkpt>
        <trkpt lat="28.8248652" lon="105.3123148"><ele>462.76</ele><time>2026-05-10T16:07:01.000Z</time></trkpt>
        <trkpt lat="28.8247581" lon="105.312271"><ele>459.65</ele><time>2026-05-10T16:07:09.000Z</time></trkpt>
        <trkpt lat="28.8246634" lon="105.3122459"><ele>456.37</ele><time>2026-05-10T16:07:15.000Z</time></trkpt>
        <trkpt lat="28.8245686" lon="105.3122893"><ele>453.81</ele><time>2026-05-10T16:07:23.000Z</time></trkpt>
        <trkpt lat="28.8245278" lon="105.3123219"><ele>451.71</ele><time>2026-05-10T16:07:27.000Z</time></trkpt>
        <trkpt lat="28.8245313" lon="105.312248"><ele>451.18</ele><time>2026-05-10T16:07:45.000Z</time></trkpt>
        <trkpt lat="28.8245055" lon="105.3121489"><ele>451.39</ele><time>2026-05-10T16:07:51.000Z</time></trkpt>
        <trkpt lat="28.8244547" lon="105.3120344"><ele>451.48</ele><time>2026-05-10T16:07:59.000Z</time></trkpt>
        <trkpt lat="28.8243907" lon="105.3119158"><ele>451.69</ele><time>2026-05-10T16:08:07.000Z</time></trkpt>
        <trkpt lat="28.8243298" lon="105.3117973"><ele>452.08</ele><time>2026-05-10T16:08:15.000Z</time></trkpt>
        <trkpt lat="28.8242822" lon="105.311681"><ele>452.72</ele><time>2026-05-10T16:08:23.000Z</time></trkpt>
        <trkpt lat="28.8242531" lon="105.3115629"><ele>453.47</ele><time>2026-05-10T16:08:31.000Z</time></trkpt>
        <trkpt lat="28.824225" lon="105.3114375"><ele>454.42</ele><time>2026-05-10T16:08:39.000Z</time></trkpt>
        <trkpt lat="28.824179" lon="105.3113268"><ele>455.57</ele><time>2026-05-10T16:08:47.000Z</time></trkpt>
        <trkpt lat="28.8241355" lon="105.311217"><ele>457.04</ele><time>2026-05-10T16:08:55.000Z</time></trkpt>
        <trkpt lat="28.8241582" lon="105.3111013"><ele>458.43</ele><time>2026-05-10T16:09:03.000Z</time></trkpt>
        <trkpt lat="28.8242432" lon="105.3110098"><ele>459.26</ele><time>2026-05-10T16:09:11.000Z</time></trkpt>
        <trkpt lat="28.824341" lon="105.3109226"><ele>459.32</ele><time>2026-05-10T16:09:19.000Z</time></trkpt>
        <trkpt lat="28.8244034" lon="105.3108103"><ele>459.28</ele><time>2026-05-10T16:09:27.000Z</time></trkpt>
        <trkpt lat="28.8244326" lon="105.3106861"><ele>459.62</ele><time>2026-05-10T16:09:35.000Z</time></trkpt>
        <trkpt lat="28.8244902" lon="105.3106029"><ele>459.49</ele><time>2026-05-10T16:09:41.000Z</time></trkpt>
        <trkpt lat="28.824577" lon="105.3105278"><ele>459.48</ele><time>2026-05-10T16:09:49.000Z</time></trkpt>
        <trkpt lat="28.8246158" lon="105.3104118"><ele>459.36</ele><time>2026-05-10T16:09:57.000Z</time></trkpt>
        <trkpt lat="28.8246314" lon="105.310286"><ele>459.58</ele><time>2026-05-10T16:10:05.000Z</time></trkpt>
        <trkpt lat="28.8246558" lon="105.3101683"><ele>459.43</ele><time>2026-05-10T16:10:13.000Z</time></trkpt>
        <trkpt lat="28.8246691" lon="105.3100485"><ele>458.89</ele><time>2026-05-10T16:10:21.000Z</time></trkpt>
        <trkpt lat="28.8246703" lon="105.3099831"><ele>458.31</ele><time>2026-05-10T16:10:27.000Z</time></trkpt>
        <trkpt lat="28.824606" lon="105.3099196"><ele>458.58</ele><time>2026-05-10T16:10:47.000Z</time></trkpt>
        <trkpt lat="28.8245561" lon="105.3098137"><ele>458.36</ele><time>2026-05-10T16:10:57.000Z</time></trkpt>
        <trkpt lat="28.8245032" lon="105.3097007"><ele>457.89</ele><time>2026-05-10T16:11:05.000Z</time></trkpt>
        <trkpt lat="28.824461" lon="105.3095996"><ele>457.04</ele><time>2026-05-10T16:11:11.000Z</time></trkpt>
        <trkpt lat="28.8244209" lon="105.3094968"><ele>455.93</ele><time>2026-05-10T16:11:17.000Z</time></trkpt>
        <trkpt lat="28.8243572" lon="105.3094168"><ele>454.88</ele><time>2026-05-10T16:11:23.000Z</time></trkpt>
        <trkpt lat="28.8242699" lon="105.3093878"><ele>454.27</ele><time>2026-05-10T16:11:29.000Z</time></trkpt>
        <trkpt lat="28.8241607" lon="105.3093897"><ele>454.36</ele><time>2026-05-10T16:11:35.000Z</time></trkpt>
        <trkpt lat="28.8240561" lon="105.3094058"><ele>454.78</ele><time>2026-05-10T16:11:41.000Z</time></trkpt>
        <trkpt lat="28.8239424" lon="105.3094357"><ele>454.97</ele><time>2026-05-10T16:11:49.000Z</time></trkpt>
        <trkpt lat="28.8238256" lon="105.3094674"><ele>455.2</ele><time>2026-05-10T16:11:57.000Z</time></trkpt>
        <trkpt lat="28.8237099" lon="105.3094897"><ele>454.99</ele><time>2026-05-10T16:12:05.000Z</time></trkpt>
        <trkpt lat="28.8236534" lon="105.3095572"><ele>455.6</ele><time>2026-05-10T16:12:13.000Z</time></trkpt>
        <trkpt lat="28.8235758" lon="105.3095466"><ele>456.82</ele><time>2026-05-10T16:12:29.000Z</time></trkpt>
        <trkpt lat="28.823494" lon="105.3094809"><ele>457.46</ele><time>2026-05-10T16:12:37.000Z</time></trkpt>
        <trkpt lat="28.8234485" lon="105.3093681"><ele>457.9</ele><time>2026-05-10T16:12:45.000Z</time></trkpt>
        <trkpt lat="28.8234168" lon="105.309253"><ele>457.75</ele><time>2026-05-10T16:12:51.000Z</time></trkpt>
        <trkpt lat="28.8233913" lon="105.3091397"><ele>457.3</ele><time>2026-05-10T16:12:57.000Z</time></trkpt>
        <trkpt lat="28.8233689" lon="105.30903"><ele>456.99</ele><time>2026-05-10T16:13:03.000Z</time></trkpt>
        <trkpt lat="28.8233407" lon="105.3089267"><ele>456.53</ele><time>2026-05-10T16:13:09.000Z</time></trkpt>
        <trkpt lat="28.823305" lon="105.3088266"><ele>455.67</ele><time>2026-05-10T16:13:15.000Z</time></trkpt>
        <trkpt lat="28.8232711" lon="105.3087228"><ele>454.91</ele><time>2026-05-10T16:13:21.000Z</time></trkpt>
        <trkpt lat="28.8232212" lon="105.3086266"><ele>454.28</ele><time>2026-05-10T16:13:27.000Z</time></trkpt>
        <trkpt lat="28.8231492" lon="105.3085613"><ele>453.33</ele><time>2026-05-10T16:13:33.000Z</time></trkpt>
        <trkpt lat="28.8230403" lon="105.3085445"><ele>452.8</ele><time>2026-05-10T16:13:41.000Z</time></trkpt>
        <trkpt lat="28.8229365" lon="105.3086049"><ele>452.87</ele><time>2026-05-10T16:13:49.000Z</time></trkpt>
        <trkpt lat="28.8228671" lon="105.308697"><ele>453.17</ele><time>2026-05-10T16:13:55.000Z</time></trkpt>
        <trkpt lat="28.8228128" lon="105.3088218"><ele>453.28</ele><time>2026-05-10T16:14:03.000Z</time></trkpt>
        <trkpt lat="28.8227694" lon="105.3089536"><ele>453.86</ele><time>2026-05-10T16:14:11.000Z</time></trkpt>
        <trkpt lat="28.8227298" lon="105.3090858"><ele>454.84</ele><time>2026-05-10T16:14:19.000Z</time></trkpt>
        <trkpt lat="28.8226959" lon="105.3091959"><ele>455.69</ele><time>2026-05-10T16:14:25.000Z</time></trkpt>
        <trkpt lat="28.8226681" lon="105.3092977"><ele>456.45</ele><time>2026-05-10T16:14:31.000Z</time></trkpt>
        <trkpt lat="28.8226448" lon="105.3094003"><ele>456.88</ele><time>2026-05-10T16:14:37.000Z</time></trkpt>
        <trkpt lat="28.8226062" lon="105.3094939"><ele>457.18</ele><time>2026-05-10T16:14:43.000Z</time></trkpt>
        <trkpt lat="28.8225343" lon="105.3095529"><ele>457.06</ele><time>2026-05-10T16:14:49.000Z</time></trkpt>
        <trkpt lat="28.822442" lon="105.3095573"><ele>457.14</ele><time>2026-05-10T16:14:55.000Z</time></trkpt>
        <trkpt lat="28.8223454" lon="105.3095366"><ele>457.04</ele><time>2026-05-10T16:15:01.000Z</time></trkpt>
        <trkpt lat="28.8222422" lon="105.3095422"><ele>456.31</ele><time>2026-05-10T16:15:07.000Z</time></trkpt>
        <trkpt lat="28.8221672" lon="105.3095984"><ele>456</ele><time>2026-05-10T16:15:13.000Z</time></trkpt>
        <trkpt lat="28.8221121" lon="105.3097043"><ele>455.68</ele><time>2026-05-10T16:15:21.000Z</time></trkpt>
        <trkpt lat="28.8220816" lon="105.3098391"><ele>455.77</ele><time>2026-05-10T16:15:29.000Z</time></trkpt>
        <trkpt lat="28.8220652" lon="105.309983"><ele>455.93</ele><time>2026-05-10T16:15:37.000Z</time></trkpt>
        <trkpt lat="28.8220732" lon="105.3101252"><ele>456.09</ele><time>2026-05-10T16:15:45.000Z</time></trkpt>
        <trkpt lat="28.8220508" lon="105.3102529"><ele>455.82</ele><time>2026-05-10T16:15:53.000Z</time></trkpt>
        <trkpt lat="28.8220058" lon="105.310207"><ele>456.06</ele><time>2026-05-10T16:15:59.000Z</time></trkpt>
        <trkpt lat="28.8219598" lon="105.3100852"><ele>457.5</ele><time>2026-05-10T16:16:07.000Z</time></trkpt>
        <trkpt lat="28.8219114" lon="105.3099447"><ele>459.71</ele><time>2026-05-10T16:16:15.000Z</time></trkpt>
        <trkpt lat="28.8218665" lon="105.3098093"><ele>460.96</ele><time>2026-05-10T16:16:23.000Z</time></trkpt>
        <trkpt lat="28.821824" lon="105.3096796"><ele>462.43</ele><time>2026-05-10T16:16:31.000Z</time></trkpt>
        <trkpt lat="28.8217816" lon="105.3095569"><ele>464.42</ele><time>2026-05-10T16:16:39.000Z</time></trkpt>
        <trkpt lat="28.8217372" lon="105.309444"><ele>466.67</ele><time>2026-05-10T16:16:47.000Z</time></trkpt>
        <trkpt lat="28.8216782" lon="105.30936"><ele>468.17</ele><time>2026-05-10T16:16:55.000Z</time></trkpt>
        <trkpt lat="28.8216049" lon="105.3092991"><ele>469.85</ele><time>2026-05-10T16:17:03.000Z</time></trkpt>
        <trkpt lat="28.8215245" lon="105.3092507"><ele>471.38</ele><time>2026-05-10T16:17:11.000Z</time></trkpt>
        <trkpt lat="28.821441" lon="105.3091911"><ele>472.63</ele><time>2026-05-10T16:17:19.000Z</time></trkpt>
        <trkpt lat="28.8213659" lon="105.309102"><ele>473.54</ele><time>2026-05-10T16:17:27.000Z</time></trkpt>
        <trkpt lat="28.8213108" lon="105.3089879"><ele>474.95</ele><time>2026-05-10T16:17:35.000Z</time></trkpt>
        <trkpt lat="28.8212874" lon="105.3088632"><ele>475.9</ele><time>2026-05-10T16:17:43.000Z</time></trkpt>
        <trkpt lat="28.8212978" lon="105.308746"><ele>477.5</ele><time>2026-05-10T16:17:53.000Z</time></trkpt>
        <trkpt lat="28.821324" lon="105.3086397"><ele>479.35</ele><time>2026-05-10T16:18:05.000Z</time></trkpt>
        <trkpt lat="28.8213882" lon="105.3085624"><ele>481.27</ele><time>2026-05-10T16:18:15.000Z</time></trkpt>
        <trkpt lat="28.8214908" lon="105.3085334"><ele>483.36</ele><time>2026-05-10T16:18:25.000Z</time></trkpt>
        <trkpt lat="28.8215971" lon="105.3085213"><ele>484.89</ele><time>2026-05-10T16:18:35.000Z</time></trkpt>
        <trkpt lat="28.8216959" lon="105.3085163"><ele>486.53</ele><time>2026-05-10T16:18:45.000Z</time></trkpt>
        <trkpt lat="28.8217908" lon="105.3084739"><ele>488.3</ele><time>2026-05-10T16:18:57.000Z</time></trkpt>
        <trkpt lat="28.8218526" lon="105.3083967"><ele>489.33</ele><time>2026-05-10T16:19:05.000Z</time></trkpt>
        <trkpt lat="28.8218689" lon="105.3082823"><ele>490.16</ele><time>2026-05-10T16:19:15.000Z</time></trkpt>
        <trkpt lat="28.8218424" lon="105.3081692"><ele>491.73</ele><time>2026-05-10T16:19:25.000Z</time></trkpt>
        <trkpt lat="28.8218008" lon="105.3080661"><ele>493.79</ele><time>2026-05-10T16:19:35.000Z</time></trkpt>
        <trkpt lat="28.8217439" lon="105.307974"><ele>496.09</ele><time>2026-05-10T16:19:43.000Z</time></trkpt>
        <trkpt lat="28.8216816" lon="105.3078681"><ele>498.2</ele><time>2026-05-10T16:19:53.000Z</time></trkpt>
        <trkpt lat="28.8216293" lon="105.3077629"><ele>500.16</ele><time>2026-05-10T16:20:01.000Z</time></trkpt>
        <trkpt lat="28.8216048" lon="105.3076498"><ele>501.53</ele><time>2026-05-10T16:20:09.000Z</time></trkpt>
        <trkpt lat="28.8216118" lon="105.3075339"><ele>502.49</ele><time>2026-05-10T16:20:17.000Z</time></trkpt>
        <trkpt lat="28.8216461" lon="105.3074171"><ele>503.43</ele><time>2026-05-10T16:20:25.000Z</time></trkpt>
        <trkpt lat="28.8216557" lon="105.3073039"><ele>504.39</ele><time>2026-05-10T16:20:33.000Z</time></trkpt>
        <trkpt lat="28.8216185" lon="105.3072585"><ele>505.18</ele><time>2026-05-10T16:20:41.000Z</time></trkpt>
        <trkpt lat="28.8216572" lon="105.3071922"><ele>504.32</ele><time>2026-05-10T16:21:07.000Z</time></trkpt>
        <trkpt lat="28.8216644" lon="105.3070892"><ele>505.8</ele><time>2026-05-10T16:21:15.000Z</time></trkpt>
        <trkpt lat="28.8216437" lon="105.3069798"><ele>507.68</ele><time>2026-05-10T16:21:23.000Z</time></trkpt>
        <trkpt lat="28.8216205" lon="105.3068542"><ele>508.45</ele><time>2026-05-10T16:21:31.000Z</time></trkpt>
        <trkpt lat="28.8216381" lon="105.3067252"><ele>509.03</ele><time>2026-05-10T16:21:39.000Z</time></trkpt>
        <trkpt lat="28.8216658" lon="105.3066041"><ele>509.92</ele><time>2026-05-10T16:21:47.000Z</time></trkpt>
        <trkpt lat="28.8216689" lon="105.3064819"><ele>510.5</ele><time>2026-05-10T16:21:55.000Z</time></trkpt>
        <trkpt lat="28.8216642" lon="105.3063646"><ele>512.02</ele><time>2026-05-10T16:22:03.000Z</time></trkpt>
        <trkpt lat="28.8216513" lon="105.3062418"><ele>513.79</ele><time>2026-05-10T16:22:13.000Z</time></trkpt>
        <trkpt lat="28.8216091" lon="105.3061335"><ele>515.63</ele><time>2026-05-10T16:22:23.000Z</time></trkpt>
        <trkpt lat="28.8215715" lon="105.306033"><ele>517.41</ele><time>2026-05-10T16:22:33.000Z</time></trkpt>
        <trkpt lat="28.821559" lon="105.3059303"><ele>519.31</ele><time>2026-05-10T16:22:43.000Z</time></trkpt>
        <trkpt lat="28.8215491" lon="105.3058164"><ele>521.09</ele><time>2026-05-10T16:22:55.000Z</time></trkpt>
        <trkpt lat="28.821539" lon="105.3056967"><ele>523.17</ele><time>2026-05-10T16:23:07.000Z</time></trkpt>
        <trkpt lat="28.8215271" lon="105.3055808"><ele>525.42</ele><time>2026-05-10T16:23:19.000Z</time></trkpt>
        <trkpt lat="28.8214855" lon="105.3054861"><ele>527.13</ele><time>2026-05-10T16:23:29.000Z</time></trkpt>
        <trkpt lat="28.8213987" lon="105.305421"><ele>528.74</ele><time>2026-05-10T16:23:39.000Z</time></trkpt>
        <trkpt lat="28.821313" lon="105.3053655"><ele>530.02</ele><time>2026-05-10T16:23:47.000Z</time></trkpt>
        <trkpt lat="28.8212393" lon="105.3052873"><ele>531.24</ele><time>2026-05-10T16:23:55.000Z</time></trkpt>
        <trkpt lat="28.8211899" lon="105.3051861"><ele>532.11</ele><time>2026-05-10T16:24:03.000Z</time></trkpt>
        <trkpt lat="28.8211525" lon="105.3050807"><ele>533.23</ele><time>2026-05-10T16:24:11.000Z</time></trkpt>
        <trkpt lat="28.8211317" lon="105.3049634"><ele>534.51</ele><time>2026-05-10T16:24:19.000Z</time></trkpt>
        <trkpt lat="28.821117" lon="105.3048399"><ele>535.74</ele><time>2026-05-10T16:24:27.000Z</time></trkpt>
        <trkpt lat="28.821117" lon="105.3047183"><ele>538.08</ele><time>2026-05-10T16:24:35.000Z</time></trkpt>
        <trkpt lat="28.8211159" lon="105.304604"><ele>539.85</ele><time>2026-05-10T16:24:43.000Z</time></trkpt>
        <trkpt lat="28.8210952" lon="105.3044951"><ele>541.79</ele><time>2026-05-10T16:24:51.000Z</time></trkpt>
        <trkpt lat="28.8210408" lon="105.3043987"><ele>543.28</ele><time>2026-05-10T16:24:59.000Z</time></trkpt>
        <trkpt lat="28.8209928" lon="105.3042983"><ele>544.46</ele><time>2026-05-10T16:25:07.000Z</time></trkpt>
        <trkpt lat="28.8209563" lon="105.3041932"><ele>545.62</ele><time>2026-05-10T16:25:15.000Z</time></trkpt>
        <trkpt lat="28.8209207" lon="105.3040935"><ele>546.35</ele><time>2026-05-10T16:25:23.000Z</time></trkpt>
        <trkpt lat="28.8208628" lon="105.3039909"><ele>547.45</ele><time>2026-05-10T16:25:33.000Z</time></trkpt>
        <trkpt lat="28.8208227" lon="105.3038856"><ele>548.24</ele><time>2026-05-10T16:25:41.000Z</time></trkpt>
        <trkpt lat="28.8208248" lon="105.3037681"><ele>549.02</ele><time>2026-05-10T16:25:49.000Z</time></trkpt>
        <trkpt lat="28.8208574" lon="105.3036454"><ele>549.41</ele><time>2026-05-10T16:25:57.000Z</time></trkpt>
        <trkpt lat="28.8209304" lon="105.3035463"><ele>549.26</ele><time>2026-05-10T16:26:05.000Z</time></trkpt>
        <trkpt lat="28.8210203" lon="105.3035721"><ele>548.71</ele><time>2026-05-10T16:26:13.000Z</time></trkpt>
        <trkpt lat="28.8210564" lon="105.303691"><ele>548.44</ele><time>2026-05-10T16:26:21.000Z</time></trkpt>
        <trkpt lat="28.8210924" lon="105.3038288"><ele>548.67</ele><time>2026-05-10T16:26:29.000Z</time></trkpt>
        <trkpt lat="28.8211184" lon="105.3039535"><ele>549.12</ele><time>2026-05-10T16:26:37.000Z</time></trkpt>
        <trkpt lat="28.8211547" lon="105.3040625"><ele>550.98</ele><time>2026-05-10T16:26:45.000Z</time></trkpt>
        <trkpt lat="28.8212162" lon="105.3041566"><ele>553.06</ele><time>2026-05-10T16:26:55.000Z</time></trkpt>
        <trkpt lat="28.8212821" lon="105.304235"><ele>555.14</ele><time>2026-05-10T16:27:07.000Z</time></trkpt>
        <trkpt lat="28.821348" lon="105.3043172"><ele>557.77</ele><time>2026-05-10T16:27:21.000Z</time></trkpt>
        <trkpt lat="28.8214023" lon="105.3044034"><ele>560.74</ele><time>2026-05-10T16:27:33.000Z</time></trkpt>
        <trkpt lat="28.82146" lon="105.3044936"><ele>563.09</ele><time>2026-05-10T16:27:45.000Z</time></trkpt>
        <trkpt lat="28.8214601" lon="105.3045591"><ele>565.59</ele><time>2026-05-10T16:27:57.000Z</time></trkpt>
        <trkpt lat="28.8215154" lon="105.3046126"><ele>567.38</ele><time>2026-05-10T16:28:27.000Z</time></trkpt>
        <trkpt lat="28.821579" lon="105.3047066"><ele>569.2</ele><time>2026-05-10T16:28:37.000Z</time></trkpt>
        <trkpt lat="28.8216463" lon="105.3048118"><ele>570.35</ele><time>2026-05-10T16:28:45.000Z</time></trkpt>
        <trkpt lat="28.8217432" lon="105.3049163"><ele>570.93</ele><time>2026-05-10T16:28:51.000Z</time></trkpt>
        <trkpt lat="28.8218383" lon="105.3050276"><ele>570.41</ele><time>2026-05-10T16:28:57.000Z</time></trkpt>
        <trkpt lat="28.8219023" lon="105.3051234"><ele>569.09</ele><time>2026-05-10T16:29:01.000Z</time></trkpt>
        <trkpt lat="28.8219785" lon="105.3052255"><ele>568.02</ele><time>2026-05-10T16:29:05.000Z</time></trkpt>
        <trkpt lat="28.8220684" lon="105.3052917"><ele>567.44</ele><time>2026-05-10T16:29:09.000Z</time></trkpt>
        <trkpt lat="28.8221765" lon="105.3053005"><ele>568.29</ele><time>2026-05-10T16:29:17.000Z</time></trkpt>
        <trkpt lat="28.8222665" lon="105.3053392"><ele>569.5</ele><time>2026-05-10T16:29:25.000Z</time></trkpt>
        <trkpt lat="28.8223202" lon="105.3054235"><ele>570.57</ele><time>2026-05-10T16:29:31.000Z</time></trkpt>
        <trkpt lat="28.8223663" lon="105.3055339"><ele>569.96</ele><time>2026-05-10T16:29:37.000Z</time></trkpt>
        <trkpt lat="28.8224016" lon="105.3056639"><ele>570.87</ele><time>2026-05-10T16:29:45.000Z</time></trkpt>
        <trkpt lat="28.8224588" lon="105.3057828"><ele>571.29</ele><time>2026-05-10T16:29:51.000Z</time></trkpt>
        <trkpt lat="28.8225457" lon="105.305805"><ele>571.41</ele><time>2026-05-10T16:29:55.000Z</time></trkpt>
        <trkpt lat="28.822586" lon="105.305712"><ele>571.1</ele><time>2026-05-10T16:30:01.000Z</time></trkpt>
        <trkpt lat="28.8225943" lon="105.3055797"><ele>570.45</ele><time>2026-05-10T16:30:09.000Z</time></trkpt>
        <trkpt lat="28.8226172" lon="105.3054585"><ele>569.83</ele><time>2026-05-10T16:30:15.000Z</time></trkpt>
        <trkpt lat="28.8226528" lon="105.3053462"><ele>570.46</ele><time>2026-05-10T16:30:21.000Z</time></trkpt>
        <trkpt lat="28.8227304" lon="105.3052561"><ele>571.54</ele><time>2026-05-10T16:30:29.000Z</time></trkpt>
        <trkpt lat="28.8228403" lon="105.3052246"><ele>571.98</ele><time>2026-05-10T16:30:37.000Z</time></trkpt>
        <trkpt lat="28.8229442" lon="105.3052685"><ele>571.5</ele><time>2026-05-10T16:30:43.000Z</time></trkpt>
        <trkpt lat="28.8230365" lon="105.3053272"><ele>571.14</ele><time>2026-05-10T16:30:49.000Z</time></trkpt>
        <trkpt lat="28.8231264" lon="105.305334"><ele>571.11</ele><time>2026-05-10T16:30:55.000Z</time></trkpt>
        <trkpt lat="28.8232313" lon="105.3052919"><ele>571.59</ele><time>2026-05-10T16:31:03.000Z</time></trkpt>
        <trkpt lat="28.8233295" lon="105.3052633"><ele>572.03</ele><time>2026-05-10T16:31:09.000Z</time></trkpt>
        <trkpt lat="28.8234084" lon="105.3053012"><ele>573.07</ele><time>2026-05-10T16:31:15.000Z</time></trkpt>
        <trkpt lat="28.8235195" lon="105.3053545"><ele>573.17</ele><time>2026-05-10T16:31:21.000Z</time></trkpt>
        <trkpt lat="28.8236194" lon="105.3053527"><ele>572.76</ele><time>2026-05-10T16:31:25.000Z</time></trkpt>
        <trkpt lat="28.8237117" lon="105.3053207"><ele>572.34</ele><time>2026-05-10T16:31:29.000Z</time></trkpt>
        <trkpt lat="28.8237649" lon="105.3052289"><ele>571.54</ele><time>2026-05-10T16:31:33.000Z</time></trkpt>
        <trkpt lat="28.8237987" lon="105.3051241"><ele>571.35</ele><time>2026-05-10T16:31:37.000Z</time></trkpt>
        <trkpt lat="28.8238728" lon="105.3050299"><ele>571.98</ele><time>2026-05-10T16:31:45.000Z</time></trkpt>
        <trkpt lat="28.8239438" lon="105.30494"><ele>572.31</ele><time>2026-05-10T16:31:53.000Z</time></trkpt>
        <trkpt lat="28.8240117" lon="105.304851"><ele>572.83</ele><time>2026-05-10T16:32:01.000Z</time></trkpt>
        <trkpt lat="28.8240903" lon="105.3047754"><ele>572.65</ele><time>2026-05-10T16:32:09.000Z</time></trkpt>
        <trkpt lat="28.824159" lon="105.3046721"><ele>572.31</ele><time>2026-05-10T16:32:17.000Z</time></trkpt>
        <trkpt lat="28.8242443" lon="105.3045876"><ele>572.88</ele><time>2026-05-10T16:32:25.000Z</time></trkpt>
        <trkpt lat="28.8243313" lon="105.3045404"><ele>572.77</ele><time>2026-05-10T16:32:31.000Z</time></trkpt>
        <trkpt lat="28.8244272" lon="105.3045227"><ele>573.15</ele><time>2026-05-10T16:32:37.000Z</time></trkpt>
        <trkpt lat="28.8245201" lon="105.3045302"><ele>574.57</ele><time>2026-05-10T16:32:43.000Z</time></trkpt>
        <trkpt lat="28.8246264" lon="105.3045239"><ele>576.92</ele><time>2026-05-10T16:32:51.000Z</time></trkpt>
        <trkpt lat="28.8247384" lon="105.3045162"><ele>578.57</ele><time>2026-05-10T16:32:59.000Z</time></trkpt>
        <trkpt lat="28.8248493" lon="105.3045299"><ele>580.39</ele><time>2026-05-10T16:33:07.000Z</time></trkpt>
        <trkpt lat="28.8249524" lon="105.3045846"><ele>581.79</ele><time>2026-05-10T16:33:15.000Z</time></trkpt>
        <trkpt lat="28.8250347" lon="105.3046756"><ele>582.12</ele><time>2026-05-10T16:33:23.000Z</time></trkpt>
        <trkpt lat="28.8251057" lon="105.3047814"><ele>582.33</ele><time>2026-05-10T16:33:31.000Z</time></trkpt>
        <trkpt lat="28.8251921" lon="105.3048714"><ele>582.78</ele><time>2026-05-10T16:33:39.000Z</time></trkpt>
        <trkpt lat="28.8252943" lon="105.3048523"><ele>584.71</ele><time>2026-05-10T16:33:49.000Z</time></trkpt>
        <trkpt lat="28.8253505" lon="105.3047377"><ele>586.43</ele><time>2026-05-10T16:33:55.000Z</time></trkpt>
        <trkpt lat="28.825406" lon="105.3046076"><ele>588.52</ele><time>2026-05-10T16:34:03.000Z</time></trkpt>
        <trkpt lat="28.8254852" lon="105.3045001"><ele>589.36</ele><time>2026-05-10T16:34:11.000Z</time></trkpt>
        <trkpt lat="28.8255794" lon="105.3044134"><ele>589.74</ele><time>2026-05-10T16:34:19.000Z</time></trkpt>
        <trkpt lat="28.8256697" lon="105.3043363"><ele>588.64</ele><time>2026-05-10T16:34:27.000Z</time></trkpt>
        <trkpt lat="28.8257565" lon="105.3042926"><ele>589</ele><time>2026-05-10T16:34:33.000Z</time></trkpt>
        <trkpt lat="28.8258614" lon="105.3042667"><ele>589.41</ele><time>2026-05-10T16:34:41.000Z</time></trkpt>
        <trkpt lat="28.8259599" lon="105.3042136"><ele>588.56</ele><time>2026-05-10T16:34:49.000Z</time></trkpt>
        <trkpt lat="28.8260449" lon="105.3041442"><ele>587.97</ele><time>2026-05-10T16:34:57.000Z</time></trkpt>
        <trkpt lat="28.8261062" lon="105.3040411"><ele>588.9</ele><time>2026-05-10T16:35:07.000Z</time></trkpt>
        <trkpt lat="28.8261785" lon="105.3039752"><ele>589.28</ele><time>2026-05-10T16:35:13.000Z</time></trkpt>
        <trkpt lat="28.826277" lon="105.3039193"><ele>588.12</ele><time>2026-05-10T16:35:19.000Z</time></trkpt>
        <trkpt lat="28.8263576" lon="105.3038174"><ele>585.91</ele><time>2026-05-10T16:35:25.000Z</time></trkpt>
        <trkpt lat="28.8264057" lon="105.3037032"><ele>584.46</ele><time>2026-05-10T16:35:31.000Z</time></trkpt>
        <trkpt lat="28.8264366" lon="105.3035789"><ele>583.76</ele><time>2026-05-10T16:35:37.000Z</time></trkpt>
        <trkpt lat="28.8264462" lon="105.3034664"><ele>581.5</ele><time>2026-05-10T16:35:41.000Z</time></trkpt>
        <trkpt lat="28.8264487" lon="105.3033428"><ele>580.33</ele><time>2026-05-10T16:35:45.000Z</time></trkpt>
        <trkpt lat="28.8264492" lon="105.3032295"><ele>579.27</ele><time>2026-05-10T16:35:49.000Z</time></trkpt>
        <trkpt lat="28.8264642" lon="105.3031235"><ele>578.7</ele><time>2026-05-10T16:35:55.000Z</time></trkpt>
        <trkpt lat="28.8264851" lon="105.3030188"><ele>578.79</ele><time>2026-05-10T16:36:03.000Z</time></trkpt>
        <trkpt lat="28.8265219" lon="105.3029069"><ele>579.74</ele><time>2026-05-10T16:36:11.000Z</time></trkpt>
        <trkpt lat="28.8265652" lon="105.3027907"><ele>580.67</ele><time>2026-05-10T16:36:19.000Z</time></trkpt>
        <trkpt lat="28.8266024" lon="105.30268"><ele>582.27</ele><time>2026-05-10T16:36:27.000Z</time></trkpt>
        <trkpt lat="28.8266723" lon="105.3025928"><ele>584.72</ele><time>2026-05-10T16:36:35.000Z</time></trkpt>
        <trkpt lat="28.8267739" lon="105.3025345"><ele>587.55</ele><time>2026-05-10T16:36:43.000Z</time></trkpt>
        <trkpt lat="28.8268924" lon="105.302517"><ele>589.53</ele><time>2026-05-10T16:36:51.000Z</time></trkpt>
        <trkpt lat="28.827007" lon="105.3025379"><ele>590.25</ele><time>2026-05-10T16:36:59.000Z</time></trkpt>
        <trkpt lat="28.8271202" lon="105.3025743"><ele>589.7</ele><time>2026-05-10T16:37:07.000Z</time></trkpt>
        <trkpt lat="28.8272197" lon="105.3026198"><ele>588.87</ele><time>2026-05-10T16:37:13.000Z</time></trkpt>
        <trkpt lat="28.827247" lon="105.3026837"><ele>587.79</ele><time>2026-05-10T16:37:21.000Z</time></trkpt>
        <trkpt lat="28.827247" lon="105.3026837"><ele>587.79</ele><time>2026-05-10T16:37:42.000Z</time></trkpt>
        <trkpt lat="28.827309" lon="105.3027476"><ele>588.92</ele><time>2026-05-10T16:37:50.000Z</time></trkpt>
        <trkpt lat="28.827309" lon="105.3027476"><ele>588.92</ele><time>2026-05-10T16:37:57.000Z</time></trkpt>
        <trkpt lat="28.8273991" lon="105.3028131"><ele>588.29</ele><time>2026-05-10T16:38:05.000Z</time></trkpt>
        <trkpt lat="28.8274959" lon="105.3028541"><ele>587.12</ele><time>2026-05-10T16:38:11.000Z</time></trkpt>
        <trkpt lat="28.827592" lon="105.3028835"><ele>585.48</ele><time>2026-05-10T16:38:17.000Z</time></trkpt>
        <trkpt lat="28.8277054" lon="105.3028938"><ele>585.01</ele><time>2026-05-10T16:38:23.000Z</time></trkpt>
        <trkpt lat="28.8278155" lon="105.3029066"><ele>585.93</ele><time>2026-05-10T16:38:29.000Z</time></trkpt>
        <trkpt lat="28.827911" lon="105.3028984"><ele>586.68</ele><time>2026-05-10T16:38:35.000Z</time></trkpt>
        <trkpt lat="28.8279975" lon="105.3028617"><ele>587.78</ele><time>2026-05-10T16:38:41.000Z</time></trkpt>
        <trkpt lat="28.8280882" lon="105.3028239"><ele>588.05</ele><time>2026-05-10T16:38:47.000Z</time></trkpt>
        <trkpt lat="28.828197" lon="105.3027529"><ele>587.82</ele><time>2026-05-10T16:38:53.000Z</time></trkpt>
        <trkpt lat="28.8282232" lon="105.302642"><ele>588.94</ele><time>2026-05-10T16:38:59.000Z</time></trkpt>
        <trkpt lat="28.8281659" lon="105.3025419"><ele>589.22</ele><time>2026-05-10T16:39:05.000Z</time></trkpt>
        <trkpt lat="28.8280816" lon="105.3024355"><ele>588.69</ele><time>2026-05-10T16:39:11.000Z</time></trkpt>
        <trkpt lat="28.8280261" lon="105.3023082"><ele>586.39</ele><time>2026-05-10T16:39:17.000Z</time></trkpt>
        <trkpt lat="28.8280045" lon="105.3021929"><ele>584.47</ele><time>2026-05-10T16:39:21.000Z</time></trkpt>
        <trkpt lat="28.8280142" lon="105.3020823"><ele>583.44</ele><time>2026-05-10T16:39:27.000Z</time></trkpt>
        <trkpt lat="28.8280752" lon="105.3019801"><ele>583.58</ele><time>2026-05-10T16:39:35.000Z</time></trkpt>
        <trkpt lat="28.8281675" lon="105.3019073"><ele>583.72</ele><time>2026-05-10T16:39:43.000Z</time></trkpt>
        <trkpt lat="28.8282785" lon="105.3018652"><ele>583.68</ele><time>2026-05-10T16:39:51.000Z</time></trkpt>
        <trkpt lat="28.8283731" lon="105.3017857"><ele>583.69</ele><time>2026-05-10T16:39:59.000Z</time></trkpt>
        <trkpt lat="28.8284117" lon="105.3016716"><ele>581.55</ele><time>2026-05-10T16:40:05.000Z</time></trkpt>
        <trkpt lat="28.8284284" lon="105.3015314"><ele>578.32</ele><time>2026-05-10T16:40:11.000Z</time></trkpt>
        <trkpt lat="28.8284652" lon="105.3014136"><ele>577.23</ele><time>2026-05-10T16:40:17.000Z</time></trkpt>
        <trkpt lat="28.8285284" lon="105.3013368"><ele>577.33</ele><time>2026-05-10T16:40:23.000Z</time></trkpt>
        <trkpt lat="28.8286327" lon="105.3013174"><ele>578.23</ele><time>2026-05-10T16:40:31.000Z</time></trkpt>
        <trkpt lat="28.8287387" lon="105.3013453"><ele>579.69</ele><time>2026-05-10T16:40:39.000Z</time></trkpt>
        <trkpt lat="28.8288566" lon="105.3013762"><ele>579.59</ele><time>2026-05-10T16:40:47.000Z</time></trkpt>
        <trkpt lat="28.8289679" lon="105.3013613"><ele>580.09</ele><time>2026-05-10T16:40:55.000Z</time></trkpt>
        <trkpt lat="28.8290506" lon="105.3013056"><ele>581.12</ele><time>2026-05-10T16:41:01.000Z</time></trkpt>
        <trkpt lat="28.8291263" lon="105.3012214"><ele>581.29</ele><time>2026-05-10T16:41:07.000Z</time></trkpt>
        <trkpt lat="28.8292144" lon="105.3011456"><ele>580.42</ele><time>2026-05-10T16:41:15.000Z</time></trkpt>
        <trkpt lat="28.8293258" lon="105.3010581"><ele>578.88</ele><time>2026-05-10T16:41:21.000Z</time></trkpt>
        <trkpt lat="28.8294061" lon="105.3009644"><ele>577.06</ele><time>2026-05-10T16:41:25.000Z</time></trkpt>
        <trkpt lat="28.8294992" lon="105.3008826"><ele>575.84</ele><time>2026-05-10T16:41:31.000Z</time></trkpt>
        <trkpt lat="28.829584" lon="105.3008171"><ele>575</ele><time>2026-05-10T16:41:37.000Z</time></trkpt>
        <trkpt lat="28.8296805" lon="105.3007487"><ele>574.7</ele><time>2026-05-10T16:41:45.000Z</time></trkpt>
        <trkpt lat="28.8297725" lon="105.3006837"><ele>575.65</ele><time>2026-05-10T16:41:51.000Z</time></trkpt>
        <trkpt lat="28.8298522" lon="105.3006166"><ele>577.08</ele><time>2026-05-10T16:41:59.000Z</time></trkpt>
        <trkpt lat="28.8299261" lon="105.3005427"><ele>579.43</ele><time>2026-05-10T16:42:05.000Z</time></trkpt>
        <trkpt lat="28.8300029" lon="105.3004796"><ele>579.04</ele><time>2026-05-10T16:42:11.000Z</time></trkpt>
        <trkpt lat="28.8300723" lon="105.3004019"><ele>578.99</ele><time>2026-05-10T16:42:17.000Z</time></trkpt>
        <trkpt lat="28.8301517" lon="105.3003456"><ele>577.95</ele><time>2026-05-10T16:42:21.000Z</time></trkpt>
        <trkpt lat="28.8302293" lon="105.3002816"><ele>577.34</ele><time>2026-05-10T16:42:25.000Z</time></trkpt>
        <trkpt lat="28.830265" lon="105.3001864"><ele>576.82</ele><time>2026-05-10T16:42:29.000Z</time></trkpt>
        <trkpt lat="28.8302598" lon="105.3000791"><ele>576.35</ele><time>2026-05-10T16:42:35.000Z</time></trkpt>
        <trkpt lat="28.8302711" lon="105.2999574"><ele>575.29</ele><time>2026-05-10T16:42:43.000Z</time></trkpt>
        <trkpt lat="28.8303124" lon="105.2998519"><ele>574.71</ele><time>2026-05-10T16:42:49.000Z</time></trkpt>
        <trkpt lat="28.8303527" lon="105.2997553"><ele>574.16</ele><time>2026-05-10T16:42:55.000Z</time></trkpt>
        <trkpt lat="28.830384" lon="105.2996302"><ele>573.89</ele><time>2026-05-10T16:43:03.000Z</time></trkpt>
        <trkpt lat="28.8303798" lon="105.2994753"><ele>572.66</ele><time>2026-05-10T16:43:09.000Z</time></trkpt>
        <trkpt lat="28.8304248" lon="105.2993664"><ele>570.5</ele><time>2026-05-10T16:43:13.000Z</time></trkpt>
        <trkpt lat="28.8304898" lon="105.2992764"><ele>569.1</ele><time>2026-05-10T16:43:17.000Z</time></trkpt>
        <trkpt lat="28.8305564" lon="105.2991829"><ele>568.24</ele><time>2026-05-10T16:43:23.000Z</time></trkpt>
        <trkpt lat="28.8306439" lon="105.2991097"><ele>569.04</ele><time>2026-05-10T16:43:31.000Z</time></trkpt>
        <trkpt lat="28.8307514" lon="105.2990595"><ele>569.29</ele><time>2026-05-10T16:43:39.000Z</time></trkpt>
        <trkpt lat="28.8308696" lon="105.299025"><ele>569.29</ele><time>2026-05-10T16:43:47.000Z</time></trkpt>
        <trkpt lat="28.8309697" lon="105.2989961"><ele>568.72</ele><time>2026-05-10T16:43:53.000Z</time></trkpt>
        <trkpt lat="28.8310624" lon="105.2989197"><ele>567.14</ele><time>2026-05-10T16:43:59.000Z</time></trkpt>
        <trkpt lat="28.8311445" lon="105.2988335"><ele>564.82</ele><time>2026-05-10T16:44:05.000Z</time></trkpt>
        <trkpt lat="28.8311783" lon="105.2987249"><ele>562.35</ele><time>2026-05-10T16:44:11.000Z</time></trkpt>
        <trkpt lat="28.8311967" lon="105.2985938"><ele>559.35</ele><time>2026-05-10T16:44:17.000Z</time></trkpt>
        <trkpt lat="28.8312145" lon="105.2984564"><ele>556.58</ele><time>2026-05-10T16:44:23.000Z</time></trkpt>
        <trkpt lat="28.8312379" lon="105.2983364"><ele>553.7</ele><time>2026-05-10T16:44:29.000Z</time></trkpt>
        <trkpt lat="28.8312626" lon="105.2982149"><ele>550.95</ele><time>2026-05-10T16:44:35.000Z</time></trkpt>
        <trkpt lat="28.8312675" lon="105.2980998"><ele>548.04</ele><time>2026-05-10T16:44:41.000Z</time></trkpt>
        <trkpt lat="28.8312618" lon="105.2979649"><ele>545.36</ele><time>2026-05-10T16:44:51.000Z</time></trkpt>
        <trkpt lat="28.8312945" lon="105.2978615"><ele>542.44</ele><time>2026-05-10T16:44:57.000Z</time></trkpt>
        <trkpt lat="28.8313772" lon="105.2978122"><ele>540.37</ele><time>2026-05-10T16:45:03.000Z</time></trkpt>
        <trkpt lat="28.8314729" lon="105.2977889"><ele>537.38</ele><time>2026-05-10T16:45:09.000Z</time></trkpt>
        <trkpt lat="28.8315618" lon="105.2977399"><ele>534.84</ele><time>2026-05-10T16:45:17.000Z</time></trkpt>
        <trkpt lat="28.8315117" lon="105.2976388"><ele>531.79</ele><time>2026-05-10T16:45:31.000Z</time></trkpt>
        <trkpt lat="28.8314753" lon="105.2975309"><ele>526.09</ele><time>2026-05-10T16:45:49.000Z</time></trkpt>
        <trkpt lat="28.8314701" lon="105.2974237"><ele>519.01</ele><time>2026-05-10T16:46:01.000Z</time></trkpt>
        <trkpt lat="28.831525" lon="105.2973487"><ele>513.73</ele><time>2026-05-10T16:46:09.000Z</time></trkpt>
        <trkpt lat="28.8315202" lon="105.2972538"><ele>507.59</ele><time>2026-05-10T16:46:19.000Z</time></trkpt>
        <trkpt lat="28.8314592" lon="105.2971819"><ele>502.59</ele><time>2026-05-10T16:46:29.000Z</time></trkpt>
        <trkpt lat="28.8314308" lon="105.2970886"><ele>498.28</ele><time>2026-05-10T16:46:39.000Z</time></trkpt>
        <trkpt lat="28.83137" lon="105.2969983"><ele>494.8</ele><time>2026-05-10T16:46:51.000Z</time></trkpt>
        <trkpt lat="28.831293" lon="105.2969212"><ele>491.17</ele><time>2026-05-10T16:46:59.000Z</time></trkpt>
        <trkpt lat="28.8312281" lon="105.2968236"><ele>488.2</ele><time>2026-05-10T16:47:11.000Z</time></trkpt>
        <trkpt lat="28.8311605" lon="105.2967345"><ele>485.11</ele><time>2026-05-10T16:47:21.000Z</time></trkpt>
        <trkpt lat="28.8310928" lon="105.2966504"><ele>481.95</ele><time>2026-05-10T16:47:45.000Z</time></trkpt>
        <trkpt lat="28.8310558" lon="105.2965499"><ele>474.79</ele><time>2026-05-10T16:48:05.000Z</time></trkpt>
        <trkpt lat="28.8310859" lon="105.2964446"><ele>466.98</ele><time>2026-05-10T16:48:15.000Z</time></trkpt>
        <trkpt lat="28.8311276" lon="105.2963392"><ele>460.89</ele><time>2026-05-10T16:48:29.000Z</time></trkpt>
        <trkpt lat="28.8310774" lon="105.2962789"><ele>455.64</ele><time>2026-05-10T16:48:41.000Z</time></trkpt>
        <trkpt lat="28.8310376" lon="105.2961869"><ele>450.74</ele><time>2026-05-10T16:48:49.000Z</time></trkpt>
        <trkpt lat="28.8310102" lon="105.2960612"><ele>446.01</ele><time>2026-05-10T16:48:55.000Z</time></trkpt>
        <trkpt lat="28.8310089" lon="105.2959358"><ele>442.25</ele><time>2026-05-10T16:49:01.000Z</time></trkpt>
        <trkpt lat="28.8310845" lon="105.2958584"><ele>439.23</ele><time>2026-05-10T16:49:11.000Z</time></trkpt>
        <trkpt lat="28.8311064" lon="105.2957653"><ele>436.53</ele><time>2026-05-10T16:49:17.000Z</time></trkpt>
        <trkpt lat="28.8310741" lon="105.2956764"><ele>434.64</ele><time>2026-05-10T16:49:23.000Z</time></trkpt>
        <trkpt lat="28.8309969" lon="105.2956125"><ele>433.81</ele><time>2026-05-10T16:49:33.000Z</time></trkpt>
        <trkpt lat="28.8308968" lon="105.2955782"><ele>432.33</ele><time>2026-05-10T16:49:43.000Z</time></trkpt>
        <trkpt lat="28.8307877" lon="105.2955433"><ele>430.83</ele><time>2026-05-10T16:49:55.000Z</time></trkpt>
        <trkpt lat="28.8308077" lon="105.2954752"><ele>427.08</ele><time>2026-05-10T16:50:07.000Z</time></trkpt>
        <trkpt lat="28.8309033" lon="105.2954475"><ele>422.88</ele><time>2026-05-10T16:50:15.000Z</time></trkpt>
        <trkpt lat="28.8310199" lon="105.2954304"><ele>418.58</ele><time>2026-05-10T16:50:23.000Z</time></trkpt>
        <trkpt lat="28.83114" lon="105.2954276"><ele>414.37</ele><time>2026-05-10T16:50:31.000Z</time></trkpt>
        <trkpt lat="28.8312285" lon="105.2953606"><ele>410.98</ele><time>2026-05-10T16:50:39.000Z</time></trkpt>
        <trkpt lat="28.8312654" lon="105.2952605"><ele>408.54</ele><time>2026-05-10T16:50:47.000Z</time></trkpt>
        <trkpt lat="28.8313164" lon="105.295163"><ele>406.08</ele><time>2026-05-10T16:50:55.000Z</time></trkpt>
        <trkpt lat="28.8313908" lon="105.295104"><ele>402.96</ele><time>2026-05-10T16:51:01.000Z</time></trkpt>
        <trkpt lat="28.8314846" lon="105.2950686"><ele>400.19</ele><time>2026-05-10T16:51:07.000Z</time></trkpt>
        <trkpt lat="28.8315918" lon="105.2950361"><ele>396.74</ele><time>2026-05-10T16:51:15.000Z</time></trkpt>
        <trkpt lat="28.8317028" lon="105.2950417"><ele>393.34</ele><time>2026-05-10T16:51:23.000Z</time></trkpt>
        <trkpt lat="28.8317843" lon="105.2950298"><ele>390</ele><time>2026-05-10T16:51:31.000Z</time></trkpt>
        <trkpt lat="28.8318783" lon="105.2950368"><ele>388.17</ele><time>2026-05-10T16:52:09.000Z</time></trkpt>
        <trkpt lat="28.8319723" lon="105.2950108"><ele>384.48</ele><time>2026-05-10T16:52:17.000Z</time></trkpt>
        <trkpt lat="28.8320635" lon="105.2949817"><ele>381.5</ele><time>2026-05-10T16:52:23.000Z</time></trkpt>
        <trkpt lat="28.8321518" lon="105.2949213"><ele>378.32</ele><time>2026-05-10T16:52:31.000Z</time></trkpt>
        <trkpt lat="28.832226" lon="105.294846"><ele>374.74</ele><time>2026-05-10T16:52:39.000Z</time></trkpt>
        <trkpt lat="28.8322956" lon="105.2947565"><ele>371.56</ele><time>2026-05-10T16:52:47.000Z</time></trkpt>
        <trkpt lat="28.832357" lon="105.2946731"><ele>368.48</ele><time>2026-05-10T16:52:53.000Z</time></trkpt>
        <trkpt lat="28.8324365" lon="105.2946233"><ele>365.83</ele><time>2026-05-10T16:52:59.000Z</time></trkpt>
        <trkpt lat="28.8325195" lon="105.2945539"><ele>363.29</ele><time>2026-05-10T16:53:07.000Z</time></trkpt>
        <trkpt lat="28.8325787" lon="105.2944467"><ele>360.29</ele><time>2026-05-10T16:53:15.000Z</time></trkpt>
        <trkpt lat="28.8325969" lon="105.2943313"><ele>357.46</ele><time>2026-05-10T16:53:21.000Z</time></trkpt>
        <trkpt lat="28.8325802" lon="105.2941903"><ele>355.08</ele><time>2026-05-10T16:53:27.000Z</time></trkpt>
        <trkpt lat="28.8326077" lon="105.2940723"><ele>354.05</ele><time>2026-05-10T16:53:35.000Z</time></trkpt>
        <trkpt lat="28.832581" lon="105.2939677"><ele>352.54</ele><time>2026-05-10T16:53:43.000Z</time></trkpt>
        <trkpt lat="28.8325301" lon="105.2938659"><ele>351.43</ele><time>2026-05-10T16:53:49.000Z</time></trkpt>
        <trkpt lat="28.8324832" lon="105.2937675"><ele>349.87</ele><time>2026-05-10T16:53:57.000Z</time></trkpt>
        <trkpt lat="28.8324352" lon="105.2936564"><ele>348.54</ele><time>2026-05-10T16:54:05.000Z</time></trkpt>
        <trkpt lat="28.8323487" lon="105.2936369"><ele>346.35</ele><time>2026-05-10T16:54:27.000Z</time></trkpt>
        <trkpt lat="28.8322195" lon="105.2936528"><ele>343.74</ele><time>2026-05-10T16:54:37.000Z</time></trkpt>
        <trkpt lat="28.8321386" lon="105.2936659"><ele>342.04</ele><time>2026-05-10T16:54:43.000Z</time></trkpt>
        <trkpt lat="28.8320516" lon="105.2936745"><ele>341.25</ele><time>2026-05-10T16:54:51.000Z</time></trkpt>
        <trkpt lat="28.831955" lon="105.2936825"><ele>340.64</ele><time>2026-05-10T16:54:57.000Z</time></trkpt>
        <trkpt lat="28.8318594" lon="105.293662"><ele>340.27</ele><time>2026-05-10T16:55:01.000Z</time></trkpt>
        <trkpt lat="28.8317648" lon="105.2936438"><ele>340.33</ele><time>2026-05-10T16:55:05.000Z</time></trkpt>
        <trkpt lat="28.8316705" lon="105.2936485"><ele>339.81</ele><time>2026-05-10T16:55:09.000Z</time></trkpt>
        <trkpt lat="28.8315611" lon="105.2936355"><ele>338.9</ele><time>2026-05-10T16:55:15.000Z</time></trkpt>
        <trkpt lat="28.8315007" lon="105.2936374"><ele>337.18</ele><time>2026-05-10T16:55:25.000Z</time></trkpt>
        <trkpt lat="28.8314024" lon="105.2936352"><ele>336.99</ele><time>2026-05-10T16:55:37.000Z</time></trkpt>
        <trkpt lat="28.8312928" lon="105.2936658"><ele>336.05</ele><time>2026-05-10T16:55:43.000Z</time></trkpt>
        <trkpt lat="28.8311793" lon="105.2936991"><ele>333.72</ele><time>2026-05-10T16:55:49.000Z</time></trkpt>
        <trkpt lat="28.8310759" lon="105.2937174"><ele>330.15</ele><time>2026-05-10T16:55:53.000Z</time></trkpt>
        <trkpt lat="28.8309621" lon="105.2937129"><ele>326.86</ele><time>2026-05-10T16:55:57.000Z</time></trkpt>
        <trkpt lat="28.8308543" lon="105.2936917"><ele>324.35</ele><time>2026-05-10T16:56:01.000Z</time></trkpt>
        <trkpt lat="28.8307624" lon="105.293651"><ele>322.72</ele><time>2026-05-10T16:56:07.000Z</time></trkpt>
        <trkpt lat="28.830687" lon="105.2935736"><ele>321.45</ele><time>2026-05-10T16:56:13.000Z</time></trkpt>
        <trkpt lat="28.8306223" lon="105.2934841"><ele>320.84</ele><time>2026-05-10T16:56:19.000Z</time></trkpt>
        <trkpt lat="28.8305372" lon="105.2934"><ele>320.35</ele><time>2026-05-10T16:56:27.000Z</time></trkpt>
        <trkpt lat="28.8304291" lon="105.293358"><ele>320.29</ele><time>2026-05-10T16:56:35.000Z</time></trkpt>
        <trkpt lat="28.8303176" lon="105.2933844"><ele>320.51</ele><time>2026-05-10T16:56:43.000Z</time></trkpt>
        <trkpt lat="28.830219" lon="105.2934649"><ele>320.64</ele><time>2026-05-10T16:56:51.000Z</time></trkpt>
        <trkpt lat="28.8301425" lon="105.2935548"><ele>320.26</ele><time>2026-05-10T16:56:57.000Z</time></trkpt>
        <trkpt lat="28.8300787" lon="105.29365"><ele>320.16</ele><time>2026-05-10T16:57:03.000Z</time></trkpt>
        <trkpt lat="28.8300141" lon="105.2937379"><ele>320.03</ele><time>2026-05-10T16:57:09.000Z</time></trkpt>
        <trkpt lat="28.8299347" lon="105.2938019"><ele>320.31</ele><time>2026-05-10T16:57:15.000Z</time></trkpt>
        <trkpt lat="28.8298468" lon="105.2938477"><ele>320.68</ele><time>2026-05-10T16:57:21.000Z</time></trkpt>
        <trkpt lat="28.8297589" lon="105.2939132"><ele>321</ele><time>2026-05-10T16:57:29.000Z</time></trkpt>
        <trkpt lat="28.8296774" lon="105.2939713"><ele>321.09</ele><time>2026-05-10T16:57:35.000Z</time></trkpt>
        <trkpt lat="28.8295877" lon="105.2940473"><ele>321.5</ele><time>2026-05-10T16:57:43.000Z</time></trkpt>
        <trkpt lat="28.8295161" lon="105.2941476"><ele>321.91</ele><time>2026-05-10T16:57:51.000Z</time></trkpt>
        <trkpt lat="28.8294513" lon="105.2942587"><ele>321.65</ele><time>2026-05-10T16:57:59.000Z</time></trkpt>
        <trkpt lat="28.8294046" lon="105.2943596"><ele>321.68</ele><time>2026-05-10T16:58:05.000Z</time></trkpt>
        <trkpt lat="28.8293928" lon="105.294465"><ele>321.73</ele><time>2026-05-10T16:58:11.000Z</time></trkpt>
        <trkpt lat="28.8294075" lon="105.2945709"><ele>320.82</ele><time>2026-05-10T16:58:17.000Z</time></trkpt>
        <trkpt lat="28.8294527" lon="105.2946694"><ele>320.24</ele><time>2026-05-10T16:58:23.000Z</time></trkpt>
        <trkpt lat="28.8294776" lon="105.2947792"><ele>319.86</ele><time>2026-05-10T16:58:27.000Z</time></trkpt>
        <trkpt lat="28.8294769" lon="105.2948912"><ele>320.28</ele><time>2026-05-10T16:58:31.000Z</time></trkpt>
        <trkpt lat="28.8294472" lon="105.2950188"><ele>321.49</ele><time>2026-05-10T16:58:37.000Z</time></trkpt>
        <trkpt lat="28.8293868" lon="105.2951242"><ele>322.53</ele><time>2026-05-10T16:58:43.000Z</time></trkpt>
        <trkpt lat="28.8293252" lon="105.2952188"><ele>323.07</ele><time>2026-05-10T16:58:49.000Z</time></trkpt>
        <trkpt lat="28.8292675" lon="105.2953061"><ele>323.56</ele><time>2026-05-10T16:58:55.000Z</time></trkpt>
        <trkpt lat="28.8292067" lon="105.2953851"><ele>323.83</ele><time>2026-05-10T16:59:01.000Z</time></trkpt>
        <trkpt lat="28.8291404" lon="105.2954554"><ele>324.27</ele><time>2026-05-10T16:59:07.000Z</time></trkpt>
        <trkpt lat="28.829087" lon="105.2955407"><ele>324.18</ele><time>2026-05-10T16:59:13.000Z</time></trkpt>
        <trkpt lat="28.8290154" lon="105.2956046"><ele>324.21</ele><time>2026-05-10T16:59:19.000Z</time></trkpt>
        <trkpt lat="28.8289452" lon="105.2956702"><ele>323.95</ele><time>2026-05-10T16:59:25.000Z</time></trkpt>
        <trkpt lat="28.82887" lon="105.295739"><ele>323.6</ele><time>2026-05-10T16:59:31.000Z</time></trkpt>
        <trkpt lat="28.8287846" lon="105.2957938"><ele>323.69</ele><time>2026-05-10T16:59:37.000Z</time></trkpt>
        <trkpt lat="28.8286817" lon="105.295853"><ele>324.21</ele><time>2026-05-10T16:59:45.000Z</time></trkpt>
        <trkpt lat="28.8285897" lon="105.2958982"><ele>325.03</ele><time>2026-05-10T16:59:51.000Z</time></trkpt>
        <trkpt lat="28.828512" lon="105.2959542"><ele>325.49</ele><time>2026-05-10T16:59:57.000Z</time></trkpt>
        <trkpt lat="28.8284625" lon="105.2960614"><ele>325.27</ele><time>2026-05-10T17:00:05.000Z</time></trkpt>
        <trkpt lat="28.8284519" lon="105.296192"><ele>325.18</ele><time>2026-05-10T17:00:13.000Z</time></trkpt>
        <trkpt lat="28.8284758" lon="105.2963042"><ele>325.61</ele><time>2026-05-10T17:00:19.000Z</time></trkpt>
        <trkpt lat="28.828486" lon="105.2964111"><ele>325.91</ele><time>2026-05-10T17:00:25.000Z</time></trkpt>
        <trkpt lat="28.8285067" lon="105.2965163"><ele>326.94</ele><time>2026-05-10T17:00:31.000Z</time></trkpt>
        <trkpt lat="28.8284781" lon="105.296612"><ele>327.25</ele><time>2026-05-10T17:00:37.000Z</time></trkpt>
        <trkpt lat="28.8284142" lon="105.2967085"><ele>326.38</ele><time>2026-05-10T17:00:41.000Z</time></trkpt>
        <trkpt lat="28.8283224" lon="105.2967869"><ele>324.31</ele><time>2026-05-10T17:00:45.000Z</time></trkpt>
        <trkpt lat="28.8282698" lon="105.2968769"><ele>323.15</ele><time>2026-05-10T17:00:51.000Z</time></trkpt>
        <trkpt lat="28.8282211" lon="105.2969668"><ele>323.18</ele><time>2026-05-10T17:00:57.000Z</time></trkpt>
        <trkpt lat="28.8281388" lon="105.2970305"><ele>324.39</ele><time>2026-05-10T17:01:05.000Z</time></trkpt>
        <trkpt lat="28.8280358" lon="105.2970124"><ele>324.72</ele><time>2026-05-10T17:01:13.000Z</time></trkpt>
        <trkpt lat="28.8279426" lon="105.2969426"><ele>324.62</ele><time>2026-05-10T17:01:19.000Z</time></trkpt>
        <trkpt lat="28.8278566" lon="105.2968777"><ele>324.79</ele><time>2026-05-10T17:01:23.000Z</time></trkpt>
        <trkpt lat="28.8277735" lon="105.296821"><ele>324.61</ele><time>2026-05-10T17:01:27.000Z</time></trkpt>
        <trkpt lat="28.827697" lon="105.2968497"><ele>324.45</ele><time>2026-05-10T17:01:33.000Z</time></trkpt>
        <trkpt lat="28.8276168" lon="105.2969344"><ele>324.09</ele><time>2026-05-10T17:01:41.000Z</time></trkpt>
        <trkpt lat="28.8275144" lon="105.2969907"><ele>323.94</ele><time>2026-05-10T17:01:49.000Z</time></trkpt>
        <trkpt lat="28.8274396" lon="105.2970099"><ele>322.7</ele><time>2026-05-10T17:01:57.000Z</time></trkpt>
        <trkpt lat="28.8273456" lon="105.2970156"><ele>323</ele><time>2026-05-10T17:02:07.000Z</time></trkpt>
        <trkpt lat="28.8272528" lon="105.2970283"><ele>323.16</ele><time>2026-05-10T17:02:13.000Z</time></trkpt>
        <trkpt lat="28.8271496" lon="105.2970271"><ele>323.46</ele><time>2026-05-10T17:02:21.000Z</time></trkpt>
        <trkpt lat="28.8270617" lon="105.2969878"><ele>323.66</ele><time>2026-05-10T17:02:27.000Z</time></trkpt>
        <trkpt lat="28.8270307" lon="105.2969634"><ele>322.86</ele><time>2026-05-10T17:02:31.000Z</time></trkpt>
        <trkpt lat="28.82712" lon="105.2969034"><ele>323.44</ele><time>2026-05-10T17:02:41.000Z</time></trkpt>
        <trkpt lat="28.8272456" lon="105.2968684"><ele>322.75</ele><time>2026-05-10T17:02:47.000Z</time></trkpt>
        <trkpt lat="28.8273656" lon="105.2968376"><ele>321.74</ele><time>2026-05-10T17:02:55.000Z</time></trkpt>
        <trkpt lat="28.8274292" lon="105.2967862"><ele>320.03</ele><time>2026-05-10T17:03:05.000Z</time></trkpt>
        <trkpt lat="28.8273949" lon="105.296694"><ele>318.58</ele><time>2026-05-10T17:03:21.000Z</time></trkpt>
        <trkpt lat="28.8273078" lon="105.2966261"><ele>317.19</ele><time>2026-05-10T17:03:25.000Z</time></trkpt>
        <trkpt lat="28.8271854" lon="105.2966016"><ele>315.47</ele><time>2026-05-10T17:03:29.000Z</time></trkpt>
        <trkpt lat="28.8270699" lon="105.2965777"><ele>314.65</ele><time>2026-05-10T17:03:35.000Z</time></trkpt>
        <trkpt lat="28.8270184" lon="105.2964882"><ele>314.69</ele><time>2026-05-10T17:03:41.000Z</time></trkpt>
        <trkpt lat="28.827032" lon="105.2963631"><ele>314.19</ele><time>2026-05-10T17:03:49.000Z</time></trkpt>
        <trkpt lat="28.8270604" lon="105.2962371"><ele>313.77</ele><time>2026-05-10T17:03:57.000Z</time></trkpt>
        <trkpt lat="28.8271049" lon="105.296217"><ele>312.2</ele><time>2026-05-10T17:04:01.000Z</time></trkpt>
        <trkpt lat="28.8270703" lon="105.2961463"><ele>312.03</ele><time>2026-05-10T17:04:13.000Z</time></trkpt>
        <trkpt lat="28.8269989" lon="105.2960685"><ele>311.6</ele><time>2026-05-10T17:04:19.000Z</time></trkpt>
        <trkpt lat="28.8269053" lon="105.2960204"><ele>310.52</ele><time>2026-05-10T17:04:25.000Z</time></trkpt>
        <trkpt lat="28.8268259" lon="105.2959434"><ele>309.81</ele><time>2026-05-10T17:04:33.000Z</time></trkpt>
        <trkpt lat="28.8268149" lon="105.2958291"><ele>311.84</ele><time>2026-05-10T17:04:41.000Z</time></trkpt>
        <trkpt lat="28.8268702" lon="105.2957339"><ele>312.91</ele><time>2026-05-10T17:04:49.000Z</time></trkpt>
        <trkpt lat="28.8269223" lon="105.2956372"><ele>313.29</ele><time>2026-05-10T17:04:55.000Z</time></trkpt>
        <trkpt lat="28.8269747" lon="105.295524"><ele>314.43</ele><time>2026-05-10T17:05:03.000Z</time></trkpt>
        <trkpt lat="28.8270479" lon="105.2954573"><ele>315.72</ele><time>2026-05-10T17:05:11.000Z</time></trkpt>
        <trkpt lat="28.8270947" lon="105.2953537"><ele>318.37</ele><time>2026-05-10T17:05:35.000Z</time></trkpt>
        <trkpt lat="28.8271255" lon="105.2952473"><ele>320.2</ele><time>2026-05-10T17:05:41.000Z</time></trkpt>
        <trkpt lat="28.8271384" lon="105.2951366"><ele>322.4</ele><time>2026-05-10T17:05:47.000Z</time></trkpt>
        <trkpt lat="28.8271441" lon="105.2950091"><ele>324.11</ele><time>2026-05-10T17:05:55.000Z</time></trkpt>
        <trkpt lat="28.8271225" lon="105.2948999"><ele>324.01</ele><time>2026-05-10T17:06:01.000Z</time></trkpt>
        <trkpt lat="28.8270715" lon="105.2947846"><ele>323.3</ele><time>2026-05-10T17:06:09.000Z</time></trkpt>
        <trkpt lat="28.8270198" lon="105.2946826"><ele>323.1</ele><time>2026-05-10T17:06:15.000Z</time></trkpt>
        <trkpt lat="28.8269523" lon="105.2946013"><ele>322.83</ele><time>2026-05-10T17:06:21.000Z</time></trkpt>
        <trkpt lat="28.8268754" lon="105.2945263"><ele>323.37</ele><time>2026-05-10T17:06:27.000Z</time></trkpt>
        <trkpt lat="28.8268007" lon="105.2944538"><ele>323.75</ele><time>2026-05-10T17:06:33.000Z</time></trkpt>
        <trkpt lat="28.8267241" lon="105.294382"><ele>323.59</ele><time>2026-05-10T17:06:39.000Z</time></trkpt>
        <trkpt lat="28.8266554" lon="105.2943054"><ele>323.62</ele><time>2026-05-10T17:06:45.000Z</time></trkpt>
        <trkpt lat="28.8265583" lon="105.2941991"><ele>323.54</ele><time>2026-05-10T17:06:51.000Z</time></trkpt>
        <trkpt lat="28.8264867" lon="105.2940983"><ele>323.01</ele><time>2026-05-10T17:06:55.000Z</time></trkpt>
        <trkpt lat="28.8264795" lon="105.2939597"><ele>322.61</ele><time>2026-05-10T17:07:01.000Z</time></trkpt>
        <trkpt lat="28.8264355" lon="105.2938635"><ele>321.66</ele><time>2026-05-10T17:07:07.000Z</time></trkpt>
        <trkpt lat="28.82634" lon="105.2937928"><ele>321.06</ele><time>2026-05-10T17:07:15.000Z</time></trkpt>
        <trkpt lat="28.8262446" lon="105.2937545"><ele>320.15</ele><time>2026-05-10T17:07:21.000Z</time></trkpt>
        <trkpt lat="28.8261352" lon="105.2937136"><ele>320.33</ele><time>2026-05-10T17:07:29.000Z</time></trkpt>
        <trkpt lat="28.8260261" lon="105.2936664"><ele>320.42</ele><time>2026-05-10T17:07:37.000Z</time></trkpt>
        <trkpt lat="28.8259158" lon="105.2936209"><ele>321.02</ele><time>2026-05-10T17:07:45.000Z</time></trkpt>
        <trkpt lat="28.8258174" lon="105.2935546"><ele>321.94</ele><time>2026-05-10T17:07:53.000Z</time></trkpt>
        <trkpt lat="28.8257555" lon="105.29346"><ele>323.38</ele><time>2026-05-10T17:08:01.000Z</time></trkpt>
        <trkpt lat="28.825764" lon="105.2933419"><ele>325.27</ele><time>2026-05-10T17:08:09.000Z</time></trkpt>
        <trkpt lat="28.8258171" lon="105.2932302"><ele>327.41</ele><time>2026-05-10T17:08:17.000Z</time></trkpt>
        <trkpt lat="28.8258491" lon="105.2931054"><ele>329.69</ele><time>2026-05-10T17:08:25.000Z</time></trkpt>
        <trkpt lat="28.8258403" lon="105.2929918"><ele>331.02</ele><time>2026-05-10T17:08:31.000Z</time></trkpt>
        <trkpt lat="28.8258024" lon="105.2928874"><ele>332.21</ele><time>2026-05-10T17:08:37.000Z</time></trkpt>
        <trkpt lat="28.8257907" lon="105.2927842"><ele>332.15</ele><time>2026-05-10T17:08:43.000Z</time></trkpt>
        <trkpt lat="28.825797" lon="105.2926601"><ele>332.33</ele><time>2026-05-10T17:08:51.000Z</time></trkpt>
        <trkpt lat="28.8258259" lon="105.2925354"><ele>334.87</ele><time>2026-05-10T17:08:59.000Z</time></trkpt>
        <trkpt lat="28.8258579" lon="105.2924094"><ele>336.43</ele><time>2026-05-10T17:09:07.000Z</time></trkpt>
        <trkpt lat="28.8258301" lon="105.2922991"><ele>336.18</ele><time>2026-05-10T17:09:13.000Z</time></trkpt>
        <trkpt lat="28.8257853" lon="105.2921927"><ele>334.88</ele><time>2026-05-10T17:09:19.000Z</time></trkpt>
        <trkpt lat="28.8257729" lon="105.292082"><ele>333.09</ele><time>2026-05-10T17:09:25.000Z</time></trkpt>
        <trkpt lat="28.8257966" lon="105.2919746"><ele>332.28</ele><time>2026-05-10T17:09:33.000Z</time></trkpt>
        <trkpt lat="28.8258218" lon="105.2919286"><ele>332.28</ele><time>2026-05-10T17:09:37.000Z</time></trkpt>
        <trkpt lat="28.8258829" lon="105.2918455"><ele>333.14</ele><time>2026-05-10T17:09:53.000Z</time></trkpt>
        <trkpt lat="28.8259664" lon="105.2917581"><ele>333.91</ele><time>2026-05-10T17:10:01.000Z</time></trkpt>
        <trkpt lat="28.8260287" lon="105.2916641"><ele>334.61</ele><time>2026-05-10T17:10:07.000Z</time></trkpt>
        <trkpt lat="28.8260679" lon="105.2915558"><ele>336.1</ele><time>2026-05-10T17:10:15.000Z</time></trkpt>
        <trkpt lat="28.8260275" lon="105.291439"><ele>336.34</ele><time>2026-05-10T17:10:23.000Z</time></trkpt>
        <trkpt lat="28.8259837" lon="105.2913098"><ele>336</ele><time>2026-05-10T17:10:31.000Z</time></trkpt>
        <trkpt lat="28.8259414" lon="105.2912"><ele>335.57</ele><time>2026-05-10T17:10:37.000Z</time></trkpt>
        <trkpt lat="28.8258912" lon="105.2910982"><ele>334.53</ele><time>2026-05-10T17:10:43.000Z</time></trkpt>
        <trkpt lat="28.8258185" lon="105.2909966"><ele>332.95</ele><time>2026-05-10T17:10:49.000Z</time></trkpt>
        <trkpt lat="28.8257292" lon="105.2909481"><ele>330.54</ele><time>2026-05-10T17:10:53.000Z</time></trkpt>
        <trkpt lat="28.8256387" lon="105.2909708"><ele>329.37</ele><time>2026-05-10T17:10:59.000Z</time></trkpt>
        <trkpt lat="28.8256279" lon="105.2909936"><ele>330.71</ele><time>2026-05-10T17:11:05.000Z</time></trkpt>
        <trkpt lat="28.8255961" lon="105.2910703"><ele>333.41</ele><time>2026-05-10T17:11:21.000Z</time></trkpt>
        <trkpt lat="28.8255785" lon="105.2911807"><ele>336.59</ele><time>2026-05-10T17:11:31.000Z</time></trkpt>
        <trkpt lat="28.8255962" lon="105.2912953"><ele>340.11</ele><time>2026-05-10T17:11:37.000Z</time></trkpt>
        <trkpt lat="28.8256205" lon="105.291412"><ele>345</ele><time>2026-05-10T17:11:45.000Z</time></trkpt>
        <trkpt lat="28.825563" lon="105.2914869"><ele>349.74</ele><time>2026-05-10T17:11:55.000Z</time></trkpt>
        <trkpt lat="28.8255274" lon="105.2915844"><ele>350.03</ele><time>2026-05-10T17:12:03.000Z</time></trkpt>
        <trkpt lat="28.8254529" lon="105.2916597"><ele>351.44</ele><time>2026-05-10T17:12:15.000Z</time></trkpt>
        <trkpt lat="28.825372" lon="105.2917323"><ele>351.44</ele><time>2026-05-10T17:12:25.000Z</time></trkpt>
        <trkpt lat="28.8253545" lon="105.2918311"><ele>351.23</ele><time>2026-05-10T17:12:45.000Z</time></trkpt>
        <trkpt lat="28.8252977" lon="105.2919185"><ele>354.42</ele><time>2026-05-10T17:12:59.000Z</time></trkpt>
        <trkpt lat="28.8252449" lon="105.292009"><ele>355.77</ele><time>2026-05-10T17:13:17.000Z</time></trkpt>
        <trkpt lat="28.8251736" lon="105.2920748"><ele>357.54</ele><time>2026-05-10T17:13:29.000Z</time></trkpt>
        <trkpt lat="28.825125" lon="105.2921596"><ele>359.57</ele><time>2026-05-10T17:14:21.000Z</time></trkpt>
        <trkpt lat="28.8251572" lon="105.2922427"><ele>360.29</ele><time>2026-05-10T17:14:33.000Z</time></trkpt>
        <trkpt lat="28.8252261" lon="105.292326"><ele>361.35</ele><time>2026-05-10T17:14:57.000Z</time></trkpt>
        <trkpt lat="28.8252863" lon="105.2924208"><ele>364.64</ele><time>2026-05-10T17:15:07.000Z</time></trkpt>
        <trkpt lat="28.8253533" lon="105.2925146"><ele>366.17</ele><time>2026-05-10T17:15:17.000Z</time></trkpt>
        <trkpt lat="28.825407" lon="105.2926196"><ele>367.43</ele><time>2026-05-10T17:15:29.000Z</time></trkpt>
        <trkpt lat="28.8254565" lon="105.2927133"><ele>368.53</ele><time>2026-05-10T17:15:39.000Z</time></trkpt>
        <trkpt lat="28.8254356" lon="105.2928083"><ele>371.05</ele><time>2026-05-10T17:15:51.000Z</time></trkpt>
        <trkpt lat="28.8253781" lon="105.2928912"><ele>369.01</ele><time>2026-05-10T17:16:29.000Z</time></trkpt>
        <trkpt lat="28.8253707" lon="105.2929914"><ele>365.85</ele><time>2026-05-10T17:16:47.000Z</time></trkpt>
        <trkpt lat="28.8253283" lon="105.2930885"><ele>362.43</ele><time>2026-05-10T17:17:01.000Z</time></trkpt>
        <trkpt lat="28.8252745" lon="105.2931951"><ele>356.73</ele><time>2026-05-10T17:17:13.000Z</time></trkpt>
        <trkpt lat="28.8251949" lon="105.2932714"><ele>349.57</ele><time>2026-05-10T17:17:23.000Z</time></trkpt>
        <trkpt lat="28.8251089" lon="105.2933566"><ele>342.85</ele><time>2026-05-10T17:17:33.000Z</time></trkpt>
        <trkpt lat="28.8250438" lon="105.2934518"><ele>335.58</ele><time>2026-05-10T17:17:41.000Z</time></trkpt>
        <trkpt lat="28.8249886" lon="105.2935488"><ele>329.52</ele><time>2026-05-10T17:17:48.000Z</time></trkpt>
        <trkpt lat="28.8248988" lon="105.2936447"><ele>324.47</ele><time>2026-05-10T17:17:56.000Z</time></trkpt>
        <trkpt lat="28.824802" lon="105.2937062"><ele>319.29</ele><time>2026-05-10T17:18:03.000Z</time></trkpt>
        <trkpt lat="28.8247113" lon="105.293786"><ele>316.64</ele><time>2026-05-10T17:18:12.000Z</time></trkpt>
        <trkpt lat="28.8246119" lon="105.2938852"><ele>316.25</ele><time>2026-05-10T17:18:22.000Z</time></trkpt>
        <trkpt lat="28.8245424" lon="105.293976"><ele>319.29</ele><time>2026-05-10T17:18:28.000Z</time></trkpt>
        <trkpt lat="28.82451" lon="105.2941071"><ele>324.13</ele><time>2026-05-10T17:18:36.000Z</time></trkpt>
        <trkpt lat="28.8244765" lon="105.2942164"><ele>330.54</ele><time>2026-05-10T17:18:39.000Z</time></trkpt>
        <trkpt lat="28.8243997" lon="105.2943675"><ele>339.88</ele><time>2026-05-10T17:18:44.000Z</time></trkpt>
        <trkpt lat="28.8243479" lon="105.2945245"><ele>352.53</ele><time>2026-05-10T17:18:52.000Z</time></trkpt>
        <trkpt lat="28.8243028" lon="105.2946514"><ele>366.44</ele><time>2026-05-10T17:18:58.000Z</time></trkpt>
        <trkpt lat="28.8242888" lon="105.2947793"><ele>377.61</ele><time>2026-05-10T17:19:06.000Z</time></trkpt>
        <trkpt lat="28.824302" lon="105.2948911"><ele>388.73</ele><time>2026-05-10T17:19:18.000Z</time></trkpt>
        <trkpt lat="28.8243091" lon="105.2949978"><ele>398.32</ele><time>2026-05-10T17:19:36.000Z</time></trkpt>
        <trkpt lat="28.8243232" lon="105.2950997"><ele>404.6</ele><time>2026-05-10T17:19:52.000Z</time></trkpt>
        <trkpt lat="28.8243077" lon="105.2952069"><ele>408.1</ele><time>2026-05-10T17:20:10.000Z</time></trkpt>
        <trkpt lat="28.8243022" lon="105.2953125"><ele>410.88</ele><time>2026-05-10T17:20:20.000Z</time></trkpt>
        <trkpt lat="28.8242889" lon="105.2954189"><ele>413.06</ele><time>2026-05-10T17:20:32.000Z</time></trkpt>
        <trkpt lat="28.824284" lon="105.2955346"><ele>415.44</ele><time>2026-05-10T17:20:46.000Z</time></trkpt>
        <trkpt lat="28.8242955" lon="105.2956449"><ele>418.77</ele><time>2026-05-10T17:20:58.000Z</time></trkpt>
        <trkpt lat="28.8243144" lon="105.2957614"><ele>421.33</ele><time>2026-05-10T17:21:08.000Z</time></trkpt>
        <trkpt lat="28.8242543" lon="105.2957766"><ele>422.59</ele><time>2026-05-10T17:21:20.000Z</time></trkpt>
        <trkpt lat="28.8241872" lon="105.2958425"><ele>424.8</ele><time>2026-05-10T17:21:34.000Z</time></trkpt>
        <trkpt lat="28.8241453" lon="105.295941"><ele>427.67</ele><time>2026-05-10T17:21:46.000Z</time></trkpt>
        <trkpt lat="28.8240731" lon="105.2960054"><ele>429.36</ele><time>2026-05-10T17:22:00.000Z</time></trkpt>
        <trkpt lat="28.8239832" lon="105.2960254"><ele>431.98</ele><time>2026-05-10T17:22:30.000Z</time></trkpt>
        <trkpt lat="28.8238819" lon="105.2960358"><ele>435.44</ele><time>2026-05-10T17:22:42.000Z</time></trkpt>
        <trkpt lat="28.8237813" lon="105.2960417"><ele>438.91</ele><time>2026-05-10T17:22:50.000Z</time></trkpt>
        <trkpt lat="28.8236797" lon="105.2960547"><ele>441.56</ele><time>2026-05-10T17:23:00.000Z</time></trkpt>
        <trkpt lat="28.823647" lon="105.2960608"><ele>442.67</ele><time>2026-05-10T17:23:04.000Z</time></trkpt>
        <trkpt lat="28.8235725" lon="105.2960863"><ele>443.44</ele><time>2026-05-10T17:23:26.000Z</time></trkpt>
        <trkpt lat="28.8234742" lon="105.296091"><ele>443.95</ele><time>2026-05-10T17:23:36.000Z</time></trkpt>
        <trkpt lat="28.8233635" lon="105.2961405"><ele>444.77</ele><time>2026-05-10T17:23:42.000Z</time></trkpt>
        <trkpt lat="28.8232486" lon="105.2961971"><ele>445.47</ele><time>2026-05-10T17:23:48.000Z</time></trkpt>
        <trkpt lat="28.8231502" lon="105.2963041"><ele>446.81</ele><time>2026-05-10T17:23:54.000Z</time></trkpt>
        <trkpt lat="28.8230705" lon="105.2963909"><ele>447.57</ele><time>2026-05-10T17:24:00.000Z</time></trkpt>
        <trkpt lat="28.8230159" lon="105.296487"><ele>447.84</ele><time>2026-05-10T17:24:10.000Z</time></trkpt>
        <trkpt lat="28.8229715" lon="105.2965897"><ele>448.74</ele><time>2026-05-10T17:24:20.000Z</time></trkpt>
        <trkpt lat="28.822928" lon="105.296692"><ele>449.85</ele><time>2026-05-10T17:24:28.000Z</time></trkpt>
        <trkpt lat="28.8229075" lon="105.2968127"><ele>450.5</ele><time>2026-05-10T17:24:36.000Z</time></trkpt>
        <trkpt lat="28.8228907" lon="105.2969264"><ele>452.24</ele><time>2026-05-10T17:24:44.000Z</time></trkpt>
        <trkpt lat="28.822882" lon="105.2970336"><ele>453.4</ele><time>2026-05-10T17:24:52.000Z</time></trkpt>
        <trkpt lat="28.8228713" lon="105.2971479"><ele>454.97</ele><time>2026-05-10T17:25:02.000Z</time></trkpt>
        <trkpt lat="28.8228462" lon="105.2972521"><ele>455.96</ele><time>2026-05-10T17:25:10.000Z</time></trkpt>
        <trkpt lat="28.8227826" lon="105.2973335"><ele>456.54</ele><time>2026-05-10T17:25:20.000Z</time></trkpt>
        <trkpt lat="28.8227483" lon="105.2972716"><ele>457.83</ele><time>2026-05-10T17:25:28.000Z</time></trkpt>
        <trkpt lat="28.8227142" lon="105.2971515"><ele>459.64</ele><time>2026-05-10T17:25:38.000Z</time></trkpt>
        <trkpt lat="28.8227069" lon="105.297024"><ele>462</ele><time>2026-05-10T17:25:46.000Z</time></trkpt>
        <trkpt lat="28.8227016" lon="105.2968965"><ele>464.17</ele><time>2026-05-10T17:25:54.000Z</time></trkpt>
        <trkpt lat="28.822684" lon="105.2967726"><ele>465.54</ele><time>2026-05-10T17:26:02.000Z</time></trkpt>
        <trkpt lat="28.8226521" lon="105.2966614"><ele>466.34</ele><time>2026-05-10T17:26:10.000Z</time></trkpt>
        <trkpt lat="28.8226294" lon="105.2965349"><ele>467.01</ele><time>2026-05-10T17:26:18.000Z</time></trkpt>
        <trkpt lat="28.8226174" lon="105.2964018"><ele>467.29</ele><time>2026-05-10T17:26:26.000Z</time></trkpt>
        <trkpt lat="28.8225954" lon="105.2962793"><ele>467.25</ele><time>2026-05-10T17:26:34.000Z</time></trkpt>
        <trkpt lat="28.8225574" lon="105.2961718"><ele>467.87</ele><time>2026-05-10T17:26:42.000Z</time></trkpt>
        <trkpt lat="28.8225365" lon="105.2962426"><ele>468.42</ele><time>2026-05-10T17:26:58.000Z</time></trkpt>
        <trkpt lat="28.8225329" lon="105.2962797"><ele>467.39</ele><time>2026-05-10T17:27:00.000Z</time></trkpt>
        <trkpt lat="28.8226056" lon="105.2962888"><ele>466.7</ele><time>2026-05-10T17:27:16.000Z</time></trkpt>
        <trkpt lat="28.8225907" lon="105.2962122"><ele>465.17</ele><time>2026-05-10T17:27:22.000Z</time></trkpt>
        <trkpt lat="28.8225061" lon="105.296146"><ele>464.83</ele><time>2026-05-10T17:27:28.000Z</time></trkpt>
        <trkpt lat="28.8224076" lon="105.2960998"><ele>464.83</ele><time>2026-05-10T17:27:34.000Z</time></trkpt>
        <trkpt lat="28.8223014" lon="105.2960674"><ele>465.01</ele><time>2026-05-10T17:27:42.000Z</time></trkpt>
        <trkpt lat="28.8221883" lon="105.2960506"><ele>465.05</ele><time>2026-05-10T17:27:52.000Z</time></trkpt>
        <trkpt lat="28.822076" lon="105.2960237"><ele>465.05</ele><time>2026-05-10T17:28:02.000Z</time></trkpt>
        <trkpt lat="28.8219736" lon="105.296011"><ele>466.43</ele><time>2026-05-10T17:28:14.000Z</time></trkpt>
        <trkpt lat="28.8218807" lon="105.2960032"><ele>467.24</ele><time>2026-05-10T17:28:26.000Z</time></trkpt>
        <trkpt lat="28.8217844" lon="105.2959786"><ele>467.23</ele><time>2026-05-10T17:28:36.000Z</time></trkpt>
        <trkpt lat="28.8217527" lon="105.2958903"><ele>466.49</ele><time>2026-05-10T17:28:44.000Z</time></trkpt>
        <trkpt lat="28.8217874" lon="105.2957931"><ele>463.69</ele><time>2026-05-10T17:28:50.000Z</time></trkpt>
        <trkpt lat="28.8218045" lon="105.2956662"><ele>461.07</ele><time>2026-05-10T17:29:00.000Z</time></trkpt>
        <trkpt lat="28.8217778" lon="105.295545"><ele>459.16</ele><time>2026-05-10T17:29:08.000Z</time></trkpt>
        <trkpt lat="28.8217494" lon="105.2954251"><ele>457.55</ele><time>2026-05-10T17:29:16.000Z</time></trkpt>
        <trkpt lat="28.8217439" lon="105.2953065"><ele>455.47</ele><time>2026-05-10T17:29:24.000Z</time></trkpt>
        <trkpt lat="28.8217012" lon="105.2951874"><ele>453.63</ele><time>2026-05-10T17:29:40.000Z</time></trkpt>
        <trkpt lat="28.821661" lon="105.2950711"><ele>449.83</ele><time>2026-05-10T17:29:54.000Z</time></trkpt>
        <trkpt lat="28.8215756" lon="105.2950147"><ele>445.77</ele><time>2026-05-10T17:30:02.000Z</time></trkpt>
        <trkpt lat="28.821491" lon="105.2949531"><ele>441.09</ele><time>2026-05-10T17:30:10.000Z</time></trkpt>
        <trkpt lat="28.8214133" lon="105.2948755"><ele>437.17</ele><time>2026-05-10T17:30:16.000Z</time></trkpt>
        <trkpt lat="28.8214063" lon="105.2947734"><ele>434.07</ele><time>2026-05-10T17:30:24.000Z</time></trkpt>
        <trkpt lat="28.8213523" lon="105.2946883"><ele>431.38</ele><time>2026-05-10T17:30:36.000Z</time></trkpt>
        <trkpt lat="28.8212845" lon="105.2945933"><ele>428.92</ele><time>2026-05-10T17:30:44.000Z</time></trkpt>
        <trkpt lat="28.8211954" lon="105.2945375"><ele>425.68</ele><time>2026-05-10T17:30:50.000Z</time></trkpt>
        <trkpt lat="28.821104" lon="105.2945003"><ele>423.51</ele><time>2026-05-10T17:30:56.000Z</time></trkpt>
        <trkpt lat="28.8210087" lon="105.2944806"><ele>421.45</ele><time>2026-05-10T17:31:02.000Z</time></trkpt>
        <trkpt lat="28.8209005" lon="105.2944499"><ele>419.92</ele><time>2026-05-10T17:31:10.000Z</time></trkpt>
        <trkpt lat="28.8208035" lon="105.2944299"><ele>419.52</ele><time>2026-05-10T17:31:16.000Z</time></trkpt>
        <trkpt lat="28.8207004" lon="105.294431"><ele>419.58</ele><time>2026-05-10T17:31:22.000Z</time></trkpt>
        <trkpt lat="28.8205989" lon="105.2944454"><ele>419.6</ele><time>2026-05-10T17:31:26.000Z</time></trkpt>
        <trkpt lat="28.8205084" lon="105.2944268"><ele>419.74</ele><time>2026-05-10T17:31:30.000Z</time></trkpt>
        <trkpt lat="28.8203908" lon="105.2944011"><ele>419.21</ele><time>2026-05-10T17:31:36.000Z</time></trkpt>
        <trkpt lat="28.8202899" lon="105.2943955"><ele>417.33</ele><time>2026-05-10T17:31:42.000Z</time></trkpt>
        <trkpt lat="28.8201844" lon="105.2943963"><ele>415.53</ele><time>2026-05-10T17:31:50.000Z</time></trkpt>
        <trkpt lat="28.8200757" lon="105.2943742"><ele>414.37</ele><time>2026-05-10T17:31:58.000Z</time></trkpt>
        <trkpt lat="28.819965" lon="105.294351"><ele>414.04</ele><time>2026-05-10T17:32:06.000Z</time></trkpt>
        <trkpt lat="28.8198942" lon="105.2943576"><ele>414.27</ele><time>2026-05-10T17:32:14.000Z</time></trkpt>
        <trkpt lat="28.8198685" lon="105.2944485"><ele>414.71</ele><time>2026-05-10T17:32:58.000Z</time></trkpt>
        <trkpt lat="28.8198678" lon="105.2945839"><ele>415.46</ele><time>2026-05-10T17:33:02.000Z</time></trkpt>
        <trkpt lat="28.8198747" lon="105.2947349"><ele>415.54</ele><time>2026-05-10T17:33:06.000Z</time></trkpt>
        <trkpt lat="28.8198565" lon="105.2948726"><ele>415.27</ele><time>2026-05-10T17:33:10.000Z</time></trkpt>
        <trkpt lat="28.8198363" lon="105.2949514"><ele>415.19</ele><time>2026-05-10T17:33:18.000Z</time></trkpt>
        <trkpt lat="28.8197855" lon="105.2950274"><ele>415.01</ele><time>2026-05-10T17:33:26.000Z</time></trkpt>
        <trkpt lat="28.8196979" lon="105.2951029"><ele>415.5</ele><time>2026-05-10T17:33:32.000Z</time></trkpt>
        <trkpt lat="28.8196285" lon="105.2951902"><ele>414.53</ele><time>2026-05-10T17:33:38.000Z</time></trkpt>
        <trkpt lat="28.8195689" lon="105.2952864"><ele>412.42</ele><time>2026-05-10T17:33:44.000Z</time></trkpt>
        <trkpt lat="28.8195093" lon="105.2954036"><ele>410.43</ele><time>2026-05-10T17:33:50.000Z</time></trkpt>
        <trkpt lat="28.8194493" lon="105.2955325"><ele>407.7</ele><time>2026-05-10T17:33:56.000Z</time></trkpt>
        <trkpt lat="28.8194036" lon="105.2956494"><ele>404.98</ele><time>2026-05-10T17:34:00.000Z</time></trkpt>
        <trkpt lat="28.8193574" lon="105.2957701"><ele>402.6</ele><time>2026-05-10T17:34:06.000Z</time></trkpt>
        <trkpt lat="28.8192857" lon="105.2958435"><ele>400.1</ele><time>2026-05-10T17:34:14.000Z</time></trkpt>
        <trkpt lat="28.8191996" lon="105.2959051"><ele>397.93</ele><time>2026-05-10T17:34:24.000Z</time></trkpt>
        <trkpt lat="28.8191234" lon="105.2959396"><ele>396.81</ele><time>2026-05-10T17:34:36.000Z</time></trkpt>
        <trkpt lat="28.819091" lon="105.2960249"><ele>395</ele><time>2026-05-10T17:34:46.000Z</time></trkpt>
        <trkpt lat="28.8191012" lon="105.2961371"><ele>392.07</ele><time>2026-05-10T17:34:54.000Z</time></trkpt>
        <trkpt lat="28.8191029" lon="105.2962305"><ele>389.88</ele><time>2026-05-10T17:35:04.000Z</time></trkpt>
        <trkpt lat="28.8191125" lon="105.2963414"><ele>389.11</ele><time>2026-05-10T17:35:34.000Z</time></trkpt>
        <trkpt lat="28.8191229" lon="105.2964583"><ele>388.32</ele><time>2026-05-10T17:35:42.000Z</time></trkpt>
        <trkpt lat="28.8191375" lon="105.2965688"><ele>387.62</ele><time>2026-05-10T17:35:50.000Z</time></trkpt>
        <trkpt lat="28.8191989" lon="105.2966696"><ele>386.42</ele><time>2026-05-10T17:36:00.000Z</time></trkpt>
        <trkpt lat="28.819264" lon="105.2967647"><ele>385.9</ele><time>2026-05-10T17:36:10.000Z</time></trkpt>
        <trkpt lat="28.8193324" lon="105.2968612"><ele>387.13</ele><time>2026-05-10T17:36:20.000Z</time></trkpt>
        <trkpt lat="28.8194156" lon="105.296917"><ele>389</ele><time>2026-05-10T17:36:30.000Z</time></trkpt>
        <trkpt lat="28.8195014" lon="105.2969606"><ele>391.59</ele><time>2026-05-10T17:36:42.000Z</time></trkpt>
        <trkpt lat="28.8195701" lon="105.2970342"><ele>394.09</ele><time>2026-05-10T17:36:54.000Z</time></trkpt>
        <trkpt lat="28.8196204" lon="105.2971254"><ele>397.08</ele><time>2026-05-10T17:37:08.000Z</time></trkpt>
        <trkpt lat="28.8196584" lon="105.2972214"><ele>400.18</ele><time>2026-05-10T17:37:22.000Z</time></trkpt>
        <trkpt lat="28.8196927" lon="105.297318"><ele>402.17</ele><time>2026-05-10T17:37:36.000Z</time></trkpt>
        <trkpt lat="28.8197279" lon="105.2974216"><ele>403.93</ele><time>2026-05-10T17:37:50.000Z</time></trkpt>
        <trkpt lat="28.8197652" lon="105.2975285"><ele>406.17</ele><time>2026-05-10T17:38:02.000Z</time></trkpt>
        <trkpt lat="28.8198423" lon="105.2975992"><ele>407.84</ele><time>2026-05-10T17:38:12.000Z</time></trkpt>
        <trkpt lat="28.8199061" lon="105.2976784"><ele>410.61</ele><time>2026-05-10T17:38:22.000Z</time></trkpt>
        <trkpt lat="28.8199826" lon="105.2977375"><ele>413.47</ele><time>2026-05-10T17:38:36.000Z</time></trkpt>
        <trkpt lat="28.8200758" lon="105.2977774"><ele>416.31</ele><time>2026-05-10T17:38:56.000Z</time></trkpt>
        <trkpt lat="28.8201584" lon="105.2978395"><ele>420.13</ele><time>2026-05-10T17:39:10.000Z</time></trkpt>
        <trkpt lat="28.8202512" lon="105.2978648"><ele>423.34</ele><time>2026-05-10T17:39:42.000Z</time></trkpt>
        <trkpt lat="28.8203064" lon="105.2979361"><ele>427.99</ele><time>2026-05-10T17:40:02.000Z</time></trkpt>
        <trkpt lat="28.820389" lon="105.2979742"><ele>432.23</ele><time>2026-05-10T17:40:26.000Z</time></trkpt>
        <trkpt lat="28.8204496" lon="105.2980504"><ele>434.99</ele><time>2026-05-10T17:41:18.000Z</time></trkpt>
        <trkpt lat="28.8204863" lon="105.2981524"><ele>443.51</ele><time>2026-05-10T17:41:36.000Z</time></trkpt>
        <trkpt lat="28.8205661" lon="105.2981587"><ele>448.99</ele><time>2026-05-10T17:41:52.000Z</time></trkpt>
        <trkpt lat="28.8206621" lon="105.2981255"><ele>453.73</ele><time>2026-05-10T17:42:06.000Z</time></trkpt>
        <trkpt lat="28.8207642" lon="105.2981135"><ele>457.74</ele><time>2026-05-10T17:42:18.000Z</time></trkpt>
        <trkpt lat="28.8208646" lon="105.2981187"><ele>459.16</ele><time>2026-05-10T17:42:28.000Z</time></trkpt>
        <trkpt lat="28.8209571" lon="105.2981569"><ele>459.35</ele><time>2026-05-10T17:42:38.000Z</time></trkpt>
        <trkpt lat="28.8210378" lon="105.2982134"><ele>460.85</ele><time>2026-05-10T17:42:48.000Z</time></trkpt>
        <trkpt lat="28.8211235" lon="105.2981907"><ele>462.1</ele><time>2026-05-10T17:43:02.000Z</time></trkpt>
        <trkpt lat="28.8211982" lon="105.2981221"><ele>465.68</ele><time>2026-05-10T17:43:14.000Z</time></trkpt>
        <trkpt lat="28.8212274" lon="105.2981861"><ele>469.23</ele><time>2026-05-10T17:43:22.000Z</time></trkpt>
        <trkpt lat="28.8212815" lon="105.2982705"><ele>470.98</ele><time>2026-05-10T17:43:30.000Z</time></trkpt>
        <trkpt lat="28.821289" lon="105.2983837"><ele>471.31</ele><time>2026-05-10T17:43:40.000Z</time></trkpt>
        <trkpt lat="28.8212587" lon="105.2985025"><ele>471.82</ele><time>2026-05-10T17:43:50.000Z</time></trkpt>
        <trkpt lat="28.8212448" lon="105.2985356"><ele>470.96</ele><time>2026-05-10T17:43:52.000Z</time></trkpt>
        <trkpt lat="28.8212448" lon="105.2985356"><ele>470.96</ele><time>2026-05-10T17:45:22.000Z</time></trkpt>
        <trkpt lat="28.8212126" lon="105.2986209"><ele>470.43</ele><time>2026-05-10T17:45:28.000Z</time></trkpt>
        <trkpt lat="28.8212126" lon="105.2986209"><ele>470.43</ele><time>2026-05-10T17:45:42.000Z</time></trkpt>
        <trkpt lat="28.8212226" lon="105.2985009"><ele>470.34</ele><time>2026-05-10T17:45:54.000Z</time></trkpt>
        <trkpt lat="28.8211445" lon="105.2985333"><ele>470.18</ele><time>2026-05-10T17:46:22.000Z</time></trkpt>
        <trkpt lat="28.8210569" lon="105.2986037"><ele>470.25</ele><time>2026-05-10T17:46:32.000Z</time></trkpt>
        <trkpt lat="28.8209726" lon="105.2986719"><ele>470.85</ele><time>2026-05-10T17:46:40.000Z</time></trkpt>
        <trkpt lat="28.8208734" lon="105.2987258"><ele>471.64</ele><time>2026-05-10T17:46:50.000Z</time></trkpt>
        <trkpt lat="28.8207672" lon="105.2987613"><ele>472.44</ele><time>2026-05-10T17:47:00.000Z</time></trkpt>
        <trkpt lat="28.8206632" lon="105.2988045"><ele>473.25</ele><time>2026-05-10T17:47:10.000Z</time></trkpt>
        <trkpt lat="28.8205797" lon="105.2988703"><ele>473.96</ele><time>2026-05-10T17:47:20.000Z</time></trkpt>
        <trkpt lat="28.8205351" lon="105.2989628"><ele>474.28</ele><time>2026-05-10T17:47:30.000Z</time></trkpt>
        <trkpt lat="28.8205292" lon="105.2990744"><ele>473.72</ele><time>2026-05-10T17:47:40.000Z</time></trkpt>
        <trkpt lat="28.8205285" lon="105.2991855"><ele>473.26</ele><time>2026-05-10T17:47:50.000Z</time></trkpt>
        <trkpt lat="28.8205339" lon="105.2993011"><ele>472.58</ele><time>2026-05-10T17:48:00.000Z</time></trkpt>
        <trkpt lat="28.820536" lon="105.29942"><ele>471.02</ele><time>2026-05-10T17:48:10.000Z</time></trkpt>
        <trkpt lat="28.8205326" lon="105.2995411"><ele>469.48</ele><time>2026-05-10T17:48:20.000Z</time></trkpt>
        <trkpt lat="28.8205344" lon="105.2996629"><ele>468.87</ele><time>2026-05-10T17:48:30.000Z</time></trkpt>
        <trkpt lat="28.820534" lon="105.2997887"><ele>468.45</ele><time>2026-05-10T17:48:40.000Z</time></trkpt>
        <trkpt lat="28.8205274" lon="105.2998989"><ele>468.21</ele><time>2026-05-10T17:48:48.000Z</time></trkpt>
        <trkpt lat="28.8205231" lon="105.2999905"><ele>467.6</ele><time>2026-05-10T17:48:56.000Z</time></trkpt>
        <trkpt lat="28.8205365" lon="105.3001027"><ele>467.16</ele><time>2026-05-10T17:49:08.000Z</time></trkpt>
        <trkpt lat="28.8205336" lon="105.3002195"><ele>467.49</ele><time>2026-05-10T17:49:18.000Z</time></trkpt>
        <trkpt lat="28.8205217" lon="105.3003451"><ele>467.31</ele><time>2026-05-10T17:49:26.000Z</time></trkpt>
        <trkpt lat="28.8204751" lon="105.3004584"><ele>467.03</ele><time>2026-05-10T17:49:34.000Z</time></trkpt>
        <trkpt lat="28.820413" lon="105.3005677"><ele>466.53</ele><time>2026-05-10T17:49:42.000Z</time></trkpt>
        <trkpt lat="28.8203613" lon="105.3006823"><ele>466.14</ele><time>2026-05-10T17:49:50.000Z</time></trkpt>
        <trkpt lat="28.8203289" lon="105.3008004"><ele>466.42</ele><time>2026-05-10T17:49:58.000Z</time></trkpt>
        <trkpt lat="28.8203112" lon="105.3009219"><ele>466.02</ele><time>2026-05-10T17:50:06.000Z</time></trkpt>
        <trkpt lat="28.8202567" lon="105.3010274"><ele>466.6</ele><time>2026-05-10T17:50:14.000Z</time></trkpt>
        <trkpt lat="28.8202015" lon="105.3011204"><ele>466.33</ele><time>2026-05-10T17:50:20.000Z</time></trkpt>
        <trkpt lat="28.8201387" lon="105.3012074"><ele>465.77</ele><time>2026-05-10T17:50:26.000Z</time></trkpt>
        <trkpt lat="28.8200982" lon="105.301319"><ele>464.72</ele><time>2026-05-10T17:50:32.000Z</time></trkpt>
        <trkpt lat="28.8200851" lon="105.3014284"><ele>463.52</ele><time>2026-05-10T17:50:38.000Z</time></trkpt>
        <trkpt lat="28.8200825" lon="105.3015374"><ele>461.74</ele><time>2026-05-10T17:50:44.000Z</time></trkpt>
        <trkpt lat="28.820077" lon="105.3016542"><ele>460.14</ele><time>2026-05-10T17:50:50.000Z</time></trkpt>
        <trkpt lat="28.8200631" lon="105.3017964"><ele>460.01</ele><time>2026-05-10T17:50:56.000Z</time></trkpt>
        <trkpt lat="28.8200134" lon="105.3019084"><ele>459.14</ele><time>2026-05-10T17:51:00.000Z</time></trkpt>
        <trkpt lat="28.819958" lon="105.3020126"><ele>458.23</ele><time>2026-05-10T17:51:04.000Z</time></trkpt>
        <trkpt lat="28.8199242" lon="105.3021406"><ele>457.52</ele><time>2026-05-10T17:51:10.000Z</time></trkpt>
        <trkpt lat="28.8198895" lon="105.3022578"><ele>455.03</ele><time>2026-05-10T17:51:18.000Z</time></trkpt>
        <trkpt lat="28.8198303" lon="105.3023508"><ele>453.16</ele><time>2026-05-10T17:51:28.000Z</time></trkpt>
        <trkpt lat="28.8197337" lon="105.3023842"><ele>449.66</ele><time>2026-05-10T17:51:38.000Z</time></trkpt>
        <trkpt lat="28.8196555" lon="105.3024549"><ele>446.66</ele><time>2026-05-10T17:51:48.000Z</time></trkpt>
        <trkpt lat="28.819604" lon="105.3025501"><ele>443.35</ele><time>2026-05-10T17:52:02.000Z</time></trkpt>
        <trkpt lat="28.8195248" lon="105.3025692"><ele>439.57</ele><time>2026-05-10T17:52:12.000Z</time></trkpt>
        <trkpt lat="28.8194173" lon="105.3025732"><ele>435.55</ele><time>2026-05-10T17:52:20.000Z</time></trkpt>
        <trkpt lat="28.819317" lon="105.3025852"><ele>432.41</ele><time>2026-05-10T17:52:30.000Z</time></trkpt>
        <trkpt lat="28.8192975" lon="105.3026775"><ele>427.83</ele><time>2026-05-10T17:52:36.000Z</time></trkpt>
        <trkpt lat="28.8193035" lon="105.3027954"><ele>423.32</ele><time>2026-05-10T17:52:40.000Z</time></trkpt>
        <trkpt lat="28.8193028" lon="105.3029181"><ele>419.96</ele><time>2026-05-10T17:52:44.000Z</time></trkpt>
        <trkpt lat="28.8192635" lon="105.3030627"><ele>418.47</ele><time>2026-05-10T17:52:50.000Z</time></trkpt>
        <trkpt lat="28.8192035" lon="105.3031853"><ele>418.36</ele><time>2026-05-10T17:52:56.000Z</time></trkpt>
        <trkpt lat="28.8191335" lon="105.3032916"><ele>417.29</ele><time>2026-05-10T17:53:02.000Z</time></trkpt>
        <trkpt lat="28.8190985" lon="105.3033918"><ele>415.8</ele><time>2026-05-10T17:53:08.000Z</time></trkpt>
        <trkpt lat="28.8190942" lon="105.3035023"><ele>415.23</ele><time>2026-05-10T17:53:20.000Z</time></trkpt>
        <trkpt lat="28.8190788" lon="105.3036198"><ele>414.08</ele><time>2026-05-10T17:53:28.000Z</time></trkpt>
        <trkpt lat="28.8190324" lon="105.3037192"><ele>413.47</ele><time>2026-05-10T17:53:34.000Z</time></trkpt>
        <trkpt lat="28.8189776" lon="105.3038253"><ele>412.38</ele><time>2026-05-10T17:53:40.000Z</time></trkpt>
        <trkpt lat="28.8188785" lon="105.3039178"><ele>410.63</ele><time>2026-05-10T17:53:46.000Z</time></trkpt>
        <trkpt lat="28.8188009" lon="105.3040074"><ele>408.52</ele><time>2026-05-10T17:53:50.000Z</time></trkpt>
        <trkpt lat="28.8187388" lon="105.3040997"><ele>406.83</ele><time>2026-05-10T17:53:54.000Z</time></trkpt>
        <trkpt lat="28.8187066" lon="105.3042055"><ele>405.47</ele><time>2026-05-10T17:53:58.000Z</time></trkpt>
        <trkpt lat="28.8186818" lon="105.304308"><ele>404.75</ele><time>2026-05-10T17:54:02.000Z</time></trkpt>
        <trkpt lat="28.8186439" lon="105.3044135"><ele>403.86</ele><time>2026-05-10T17:54:08.000Z</time></trkpt>
        <trkpt lat="28.8186138" lon="105.30452"><ele>401.54</ele><time>2026-05-10T17:54:14.000Z</time></trkpt>
        <trkpt lat="28.818581" lon="105.3046408"><ele>399.68</ele><time>2026-05-10T17:54:22.000Z</time></trkpt>
        <trkpt lat="28.8185608" lon="105.3047733"><ele>398.6</ele><time>2026-05-10T17:54:28.000Z</time></trkpt>
        <trkpt lat="28.8185365" lon="105.3048966"><ele>396.14</ele><time>2026-05-10T17:54:36.000Z</time></trkpt>
        <trkpt lat="28.8185247" lon="105.3050208"><ele>394.31</ele><time>2026-05-10T17:54:44.000Z</time></trkpt>
        <trkpt lat="28.8185491" lon="105.3051478"><ele>392.5</ele><time>2026-05-10T17:54:52.000Z</time></trkpt>
        <trkpt lat="28.8185915" lon="105.3052657"><ele>391.01</ele><time>2026-05-10T17:55:00.000Z</time></trkpt>
        <trkpt lat="28.8186405" lon="105.3053801"><ele>390.47</ele><time>2026-05-10T17:55:08.000Z</time></trkpt>
        <trkpt lat="28.8186784" lon="105.3054933"><ele>390.07</ele><time>2026-05-10T17:55:16.000Z</time></trkpt>
        <trkpt lat="28.8187044" lon="105.3056188"><ele>389.42</ele><time>2026-05-10T17:55:24.000Z</time></trkpt>
        <trkpt lat="28.8187682" lon="105.3057138"><ele>388.03</ele><time>2026-05-10T17:55:30.000Z</time></trkpt>
        <trkpt lat="28.8188516" lon="105.3058219"><ele>386.71</ele><time>2026-05-10T17:55:38.000Z</time></trkpt>
        <trkpt lat="28.8188864" lon="105.3059539"><ele>385.67</ele><time>2026-05-10T17:55:42.000Z</time></trkpt>
        <trkpt lat="28.8188837" lon="105.3060909"><ele>385.23</ele><time>2026-05-10T17:55:46.000Z</time></trkpt>
        <trkpt lat="28.8188819" lon="105.3062181"><ele>384.85</ele><time>2026-05-10T17:55:50.000Z</time></trkpt>
        <trkpt lat="28.8188753" lon="105.3063432"><ele>384.07</ele><time>2026-05-10T17:55:54.000Z</time></trkpt>
        <trkpt lat="28.8188671" lon="105.3064798"><ele>382.55</ele><time>2026-05-10T17:55:58.000Z</time></trkpt>
        <trkpt lat="28.8188566" lon="105.3066155"><ele>380.99</ele><time>2026-05-10T17:56:02.000Z</time></trkpt>
        <trkpt lat="28.8188433" lon="105.3067508"><ele>379.41</ele><time>2026-05-10T17:56:06.000Z</time></trkpt>
        <trkpt lat="28.8188367" lon="105.3068851"><ele>377.92</ele><time>2026-05-10T17:56:12.000Z</time></trkpt>
        <trkpt lat="28.8188269" lon="105.3070132"><ele>377.13</ele><time>2026-05-10T17:56:20.000Z</time></trkpt>
        <trkpt lat="28.8187918" lon="105.3071356"><ele>375.55</ele><time>2026-05-10T17:56:28.000Z</time></trkpt>
        <trkpt lat="28.8187427" lon="105.30719"><ele>372.98</ele><time>2026-05-10T17:56:40.000Z</time></trkpt>
        <trkpt lat="28.8187679" lon="105.3072572"><ele>371.63</ele><time>2026-05-10T17:57:34.000Z</time></trkpt>
        <trkpt lat="28.8188319" lon="105.30734"><ele>369.72</ele><time>2026-05-10T17:57:40.000Z</time></trkpt>
        <trkpt lat="28.818903" lon="105.3074319"><ele>367.48</ele><time>2026-05-10T17:57:46.000Z</time></trkpt>
        <trkpt lat="28.8189287" lon="105.3075405"><ele>364.93</ele><time>2026-05-10T17:57:54.000Z</time></trkpt>
        <trkpt lat="28.8189441" lon="105.3076601"><ele>361.62</ele><time>2026-05-10T17:58:02.000Z</time></trkpt>
        <trkpt lat="28.8189913" lon="105.3077789"><ele>358.21</ele><time>2026-05-10T17:58:08.000Z</time></trkpt>
        <trkpt lat="28.819034" lon="105.3078809"><ele>355.43</ele><time>2026-05-10T17:58:16.000Z</time></trkpt>
        <trkpt lat="28.8190252" lon="105.3079982"><ele>351.95</ele><time>2026-05-10T17:58:24.000Z</time></trkpt>
        <trkpt lat="28.8190516" lon="105.308136"><ele>348.25</ele><time>2026-05-10T17:58:30.000Z</time></trkpt>
        <trkpt lat="28.8190789" lon="105.3082801"><ele>345.11</ele><time>2026-05-10T17:58:36.000Z</time></trkpt>
        <trkpt lat="28.8190503" lon="105.3083934"><ele>342.53</ele><time>2026-05-10T17:58:40.000Z</time></trkpt>
        <trkpt lat="28.8190102" lon="105.3084397"><ele>341.56</ele><time>2026-05-10T17:58:44.000Z</time></trkpt>
        <trkpt lat="28.8189505" lon="105.3085145"><ele>341.03</ele><time>2026-05-10T17:59:02.000Z</time></trkpt>
        <trkpt lat="28.8189296" lon="105.3086331"><ele>341.25</ele><time>2026-05-10T17:59:06.000Z</time></trkpt>
        <trkpt lat="28.8189347" lon="105.3087659"><ele>340.99</ele><time>2026-05-10T17:59:10.000Z</time></trkpt>
        <trkpt lat="28.8189621" lon="105.3088779"><ele>341.16</ele><time>2026-05-10T17:59:14.000Z</time></trkpt>
        <trkpt lat="28.8189726" lon="105.3089844"><ele>341.1</ele><time>2026-05-10T17:59:20.000Z</time></trkpt>
        <trkpt lat="28.8189839" lon="105.3091048"><ele>340.63</ele><time>2026-05-10T17:59:26.000Z</time></trkpt>
        <trkpt lat="28.8189526" lon="105.3092051"><ele>339.26</ele><time>2026-05-10T17:59:32.000Z</time></trkpt>
        <trkpt lat="28.8189548" lon="105.3093201"><ele>338.96</ele><time>2026-05-10T17:59:40.000Z</time></trkpt>
        <trkpt lat="28.8189944" lon="105.3094272"><ele>338.99</ele><time>2026-05-10T17:59:50.000Z</time></trkpt>
        <trkpt lat="28.8189399" lon="105.3095089"><ele>338.44</ele><time>2026-05-10T18:00:00.000Z</time></trkpt>
        <trkpt lat="28.8188585" lon="105.3095653"><ele>337.27</ele><time>2026-05-10T18:00:08.000Z</time></trkpt>
        <trkpt lat="28.8187996" lon="105.3096465"><ele>334.08</ele><time>2026-05-10T18:00:14.000Z</time></trkpt>
        <trkpt lat="28.8188023" lon="105.3097478"><ele>332.1</ele><time>2026-05-10T18:00:20.000Z</time></trkpt>
        <trkpt lat="28.8188347" lon="105.3098709"><ele>331.26</ele><time>2026-05-10T18:00:28.000Z</time></trkpt>
        <trkpt lat="28.8188794" lon="105.3099853"><ele>330.36</ele><time>2026-05-10T18:00:34.000Z</time></trkpt>
        <trkpt lat="28.8189203" lon="105.3100987"><ele>329.89</ele><time>2026-05-10T18:00:40.000Z</time></trkpt>
        <trkpt lat="28.8189646" lon="105.310211"><ele>329.92</ele><time>2026-05-10T18:00:50.000Z</time></trkpt>
        <trkpt lat="28.8190051" lon="105.310325"><ele>329.46</ele><time>2026-05-10T18:00:58.000Z</time></trkpt>
        <trkpt lat="28.8190433" lon="105.310437"><ele>328.9</ele><time>2026-05-10T18:01:06.000Z</time></trkpt>
        <trkpt lat="28.8190708" lon="105.3105564"><ele>328.8</ele><time>2026-05-10T18:01:14.000Z</time></trkpt>
        <trkpt lat="28.819096" lon="105.3106803"><ele>329.1</ele><time>2026-05-10T18:01:22.000Z</time></trkpt>
        <trkpt lat="28.8191118" lon="105.3108074"><ele>329.1</ele><time>2026-05-10T18:01:30.000Z</time></trkpt>
        <trkpt lat="28.819118" lon="105.3109314"><ele>329.1</ele><time>2026-05-10T18:01:38.000Z</time></trkpt>
        <trkpt lat="28.8191216" lon="105.3110645"><ele>329.06</ele><time>2026-05-10T18:01:46.000Z</time></trkpt>
        <trkpt lat="28.8191052" lon="105.3111849"><ele>329.34</ele><time>2026-05-10T18:01:54.000Z</time></trkpt>
        <trkpt lat="28.8190895" lon="105.311302"><ele>329.75</ele><time>2026-05-10T18:02:02.000Z</time></trkpt>
        <trkpt lat="28.8190622" lon="105.3114168"><ele>329.82</ele><time>2026-05-10T18:02:10.000Z</time></trkpt>
        <trkpt lat="28.8190313" lon="105.3115395"><ele>329.75</ele><time>2026-05-10T18:02:18.000Z</time></trkpt>
        <trkpt lat="28.8190103" lon="105.3116656"><ele>329.54</ele><time>2026-05-10T18:02:26.000Z</time></trkpt>
        <trkpt lat="28.8190056" lon="105.3117949"><ele>329.49</ele><time>2026-05-10T18:02:34.000Z</time></trkpt>
        <trkpt lat="28.8190102" lon="105.3119243"><ele>330.13</ele><time>2026-05-10T18:02:42.000Z</time></trkpt>
        <trkpt lat="28.8190335" lon="105.3120439"><ele>330.34</ele><time>2026-05-10T18:02:50.000Z</time></trkpt>
        <trkpt lat="28.8190527" lon="105.312171"><ele>329.68</ele><time>2026-05-10T18:02:58.000Z</time></trkpt>
        <trkpt lat="28.8190723" lon="105.3123"><ele>328.61</ele><time>2026-05-10T18:03:06.000Z</time></trkpt>
        <trkpt lat="28.8190926" lon="105.3124292"><ele>327.42</ele><time>2026-05-10T18:03:14.000Z</time></trkpt>
        <trkpt lat="28.819114" lon="105.3125568"><ele>326.03</ele><time>2026-05-10T18:03:22.000Z</time></trkpt>
        <trkpt lat="28.8191309" lon="105.3126855"><ele>324.82</ele><time>2026-05-10T18:03:30.000Z</time></trkpt>
        <trkpt lat="28.8191477" lon="105.3128109"><ele>323.95</ele><time>2026-05-10T18:03:38.000Z</time></trkpt>
        <trkpt lat="28.8191581" lon="105.312938"><ele>323.67</ele><time>2026-05-10T18:03:46.000Z</time></trkpt>
        <trkpt lat="28.8191614" lon="105.3130608"><ele>323.63</ele><time>2026-05-10T18:03:54.000Z</time></trkpt>
        <trkpt lat="28.8191611" lon="105.3131831"><ele>323.61</ele><time>2026-05-10T18:04:02.000Z</time></trkpt>
        <trkpt lat="28.819147" lon="105.3133053"><ele>323.33</ele><time>2026-05-10T18:04:10.000Z</time></trkpt>
        <trkpt lat="28.8191141" lon="105.3134243"><ele>322.65</ele><time>2026-05-10T18:04:18.000Z</time></trkpt>
        <trkpt lat="28.8190739" lon="105.3135361"><ele>321.91</ele><time>2026-05-10T18:04:26.000Z</time></trkpt>
        <trkpt lat="28.8190337" lon="105.3136506"><ele>321.4</ele><time>2026-05-10T18:04:34.000Z</time></trkpt>
        <trkpt lat="28.8190007" lon="105.3137768"><ele>320.8</ele><time>2026-05-10T18:04:42.000Z</time></trkpt>
        <trkpt lat="28.8189623" lon="105.3139048"><ele>319.96</ele><time>2026-05-10T18:04:50.000Z</time></trkpt>
        <trkpt lat="28.8189164" lon="105.3140309"><ele>318.88</ele><time>2026-05-10T18:04:58.000Z</time></trkpt>
        <trkpt lat="28.8188721" lon="105.3141322"><ele>317.68</ele><time>2026-05-10T18:05:04.000Z</time></trkpt>
        <trkpt lat="28.8188213" lon="105.3142405"><ele>316.72</ele><time>2026-05-10T18:05:12.000Z</time></trkpt>
        <trkpt lat="28.8187704" lon="105.3143506"><ele>315.36</ele><time>2026-05-10T18:05:20.000Z</time></trkpt>
        <trkpt lat="28.818717" lon="105.3144643"><ele>314.76</ele><time>2026-05-10T18:05:28.000Z</time></trkpt>
        <trkpt lat="28.8186668" lon="105.3145808"><ele>314.17</ele><time>2026-05-10T18:05:36.000Z</time></trkpt>
        <trkpt lat="28.8186143" lon="105.314699"><ele>313.96</ele><time>2026-05-10T18:05:44.000Z</time></trkpt>
        <trkpt lat="28.8185525" lon="105.3148107"><ele>313.74</ele><time>2026-05-10T18:05:52.000Z</time></trkpt>
        <trkpt lat="28.8184958" lon="105.3149241"><ele>313.37</ele><time>2026-05-10T18:06:00.000Z</time></trkpt>
        <trkpt lat="28.8184452" lon="105.3150423"><ele>313</ele><time>2026-05-10T18:06:08.000Z</time></trkpt>
        <trkpt lat="28.8184084" lon="105.3151489"><ele>312.72</ele><time>2026-05-10T18:06:14.000Z</time></trkpt>
        <trkpt lat="28.8183786" lon="105.3152501"><ele>312.27</ele><time>2026-05-10T18:06:20.000Z</time></trkpt>
        <trkpt lat="28.8183532" lon="105.3153493"><ele>312.14</ele><time>2026-05-10T18:06:26.000Z</time></trkpt>
        <trkpt lat="28.8183494" lon="105.3154525"><ele>311.89</ele><time>2026-05-10T18:06:34.000Z</time></trkpt>
        <trkpt lat="28.81831" lon="105.3155667"><ele>311.94</ele><time>2026-05-10T18:06:42.000Z</time></trkpt>
        <trkpt lat="28.8182819" lon="105.3156713"><ele>312.37</ele><time>2026-05-10T18:06:48.000Z</time></trkpt>
        <trkpt lat="28.8182566" lon="105.3157964"><ele>312.66</ele><time>2026-05-10T18:06:56.000Z</time></trkpt>
        <trkpt lat="28.8182259" lon="105.315924"><ele>313.17</ele><time>2026-05-10T18:07:04.000Z</time></trkpt>
        <trkpt lat="28.8181782" lon="105.3160379"><ele>313.66</ele><time>2026-05-10T18:07:12.000Z</time></trkpt>
        <trkpt lat="28.8181405" lon="105.316154"><ele>313.13</ele><time>2026-05-10T18:07:20.000Z</time></trkpt>
        <trkpt lat="28.8180924" lon="105.316267"><ele>312.5</ele><time>2026-05-10T18:07:28.000Z</time></trkpt>
        <trkpt lat="28.8180574" lon="105.3163864"><ele>313.27</ele><time>2026-05-10T18:07:36.000Z</time></trkpt>
        <trkpt lat="28.8180242" lon="105.3165073"><ele>313.88</ele><time>2026-05-10T18:07:42.000Z</time></trkpt>
        <trkpt lat="28.8179869" lon="105.3166324"><ele>314.56</ele><time>2026-05-10T18:07:50.000Z</time></trkpt>
        <trkpt lat="28.8179457" lon="105.3167561"><ele>315.03</ele><time>2026-05-10T18:07:58.000Z</time></trkpt>
        <trkpt lat="28.8178977" lon="105.3168752"><ele>315.61</ele><time>2026-05-10T18:08:06.000Z</time></trkpt>
        <trkpt lat="28.8178582" lon="105.3169922"><ele>316.13</ele><time>2026-05-10T18:08:14.000Z</time></trkpt>
        <trkpt lat="28.8178191" lon="105.3171103"><ele>316.31</ele><time>2026-05-10T18:08:22.000Z</time></trkpt>
        <trkpt lat="28.8177838" lon="105.31722"><ele>316.33</ele><time>2026-05-10T18:08:30.000Z</time></trkpt>
        <trkpt lat="28.8177682" lon="105.3172826"><ele>315.74</ele><time>2026-05-10T18:08:36.000Z</time></trkpt>
        <trkpt lat="28.8177495" lon="105.3173758"><ele>314.93</ele><time>2026-05-10T18:08:50.000Z</time></trkpt>
        <trkpt lat="28.8177075" lon="105.3174718"><ele>314.57</ele><time>2026-05-10T18:08:56.000Z</time></trkpt>
        <trkpt lat="28.8176398" lon="105.3175747"><ele>314.69</ele><time>2026-05-10T18:09:04.000Z</time></trkpt>
        <trkpt lat="28.8175692" lon="105.3176821"><ele>314.97</ele><time>2026-05-10T18:09:12.000Z</time></trkpt>
        <trkpt lat="28.8176304" lon="105.3177114"><ele>315.95</ele><time>2026-05-10T18:09:24.000Z</time></trkpt>
        <trkpt lat="28.8177153" lon="105.3176531"><ele>316.61</ele><time>2026-05-10T18:09:32.000Z</time></trkpt>
        <trkpt lat="28.8178172" lon="105.3175905"><ele>317.29</ele><time>2026-05-10T18:09:42.000Z</time></trkpt>
        <trkpt lat="28.8179296" lon="105.3175411"><ele>318.84</ele><time>2026-05-10T18:09:52.000Z</time></trkpt>
        <trkpt lat="28.818035" lon="105.317527"><ele>320.24</ele><time>2026-05-10T18:10:02.000Z</time></trkpt>
        <trkpt lat="28.8181204" lon="105.3174654"><ele>320.98</ele><time>2026-05-10T18:10:14.000Z</time></trkpt>
        <trkpt lat="28.8181984" lon="105.3173862"><ele>322.48</ele><time>2026-05-10T18:10:26.000Z</time></trkpt>
        <trkpt lat="28.8182733" lon="105.3173137"><ele>324.45</ele><time>2026-05-10T18:10:38.000Z</time></trkpt>
        <trkpt lat="28.818336" lon="105.3172201"><ele>326.44</ele><time>2026-05-10T18:10:50.000Z</time></trkpt>
        <trkpt lat="28.8184022" lon="105.3171234"><ele>328.66</ele><time>2026-05-10T18:11:02.000Z</time></trkpt>
        <trkpt lat="28.8184791" lon="105.3170363"><ele>331.86</ele><time>2026-05-10T18:11:16.000Z</time></trkpt>
        <trkpt lat="28.8185629" lon="105.3169632"><ele>334.93</ele><time>2026-05-10T18:11:30.000Z</time></trkpt>
        <trkpt lat="28.8186453" lon="105.3168871"><ele>337.77</ele><time>2026-05-10T18:11:42.000Z</time></trkpt>
        <trkpt lat="28.8187371" lon="105.3168324"><ele>340.49</ele><time>2026-05-10T18:11:54.000Z</time></trkpt>
        <trkpt lat="28.8188236" lon="105.3167669"><ele>342.41</ele><time>2026-05-10T18:12:06.000Z</time></trkpt>
        <trkpt lat="28.8188993" lon="105.316699"><ele>344.44</ele><time>2026-05-10T18:12:16.000Z</time></trkpt>
        <trkpt lat="28.8189674" lon="105.3166164"><ele>345.58</ele><time>2026-05-10T18:12:26.000Z</time></trkpt>
        <trkpt lat="28.8190241" lon="105.3165301"><ele>347.08</ele><time>2026-05-10T18:12:38.000Z</time></trkpt>
        <trkpt lat="28.8190836" lon="105.3164419"><ele>348.86</ele><time>2026-05-10T18:12:48.000Z</time></trkpt>
        <trkpt lat="28.8191469" lon="105.316353"><ele>350.78</ele><time>2026-05-10T18:12:56.000Z</time></trkpt>
        <trkpt lat="28.8192156" lon="105.3162552"><ele>352.4</ele><time>2026-05-10T18:13:04.000Z</time></trkpt>
        <trkpt lat="28.8192769" lon="105.3161495"><ele>354.08</ele><time>2026-05-10T18:13:12.000Z</time></trkpt>
        <trkpt lat="28.8193197" lon="105.3160374"><ele>355.44</ele><time>2026-05-10T18:13:20.000Z</time></trkpt>
        <trkpt lat="28.819362" lon="105.3159327"><ele>356.55</ele><time>2026-05-10T18:13:28.000Z</time></trkpt>
        <trkpt lat="28.8194072" lon="105.3158317"><ele>357.89</ele><time>2026-05-10T18:13:36.000Z</time></trkpt>
        <trkpt lat="28.8194533" lon="105.3157386"><ele>359.06</ele><time>2026-05-10T18:13:44.000Z</time></trkpt>
        <trkpt lat="28.81949" lon="105.3156263"><ele>360.35</ele><time>2026-05-10T18:13:54.000Z</time></trkpt>
        <trkpt lat="28.8195117" lon="105.3155137"><ele>362.46</ele><time>2026-05-10T18:14:04.000Z</time></trkpt>
        <trkpt lat="28.8195287" lon="105.3154046"><ele>365.24</ele><time>2026-05-10T18:14:12.000Z</time></trkpt>
        <trkpt lat="28.8195608" lon="105.3152925"><ele>367.77</ele><time>2026-05-10T18:14:22.000Z</time></trkpt>
        <trkpt lat="28.8196289" lon="105.315195"><ele>370.08</ele><time>2026-05-10T18:14:32.000Z</time></trkpt>
        <trkpt lat="28.8197094" lon="105.3151259"><ele>371.35</ele><time>2026-05-10T18:14:40.000Z</time></trkpt>
        <trkpt lat="28.8197842" lon="105.3150478"><ele>372.36</ele><time>2026-05-10T18:14:48.000Z</time></trkpt>
        <trkpt lat="28.8198449" lon="105.3149573"><ele>373.81</ele><time>2026-05-10T18:14:56.000Z</time></trkpt>
        <trkpt lat="28.8198837" lon="105.3148548"><ele>375.04</ele><time>2026-05-10T18:15:04.000Z</time></trkpt>
        <trkpt lat="28.8199211" lon="105.3147509"><ele>375.9</ele><time>2026-05-10T18:15:12.000Z</time></trkpt>
        <trkpt lat="28.8199641" lon="105.3146504"><ele>376.39</ele><time>2026-05-10T18:15:20.000Z</time></trkpt>
        <trkpt lat="28.8200321" lon="105.3145757"><ele>376.94</ele><time>2026-05-10T18:15:28.000Z</time></trkpt>
        <trkpt lat="28.8200922" lon="105.3144872"><ele>377.12</ele><time>2026-05-10T18:15:36.000Z</time></trkpt>
        <trkpt lat="28.8201751" lon="105.3144142"><ele>377.05</ele><time>2026-05-10T18:15:44.000Z</time></trkpt>
        <trkpt lat="28.8202762" lon="105.3143634"><ele>375.86</ele><time>2026-05-10T18:15:52.000Z</time></trkpt>
        <trkpt lat="28.820313" lon="105.3144452"><ele>373.99</ele><time>2026-05-10T18:16:02.000Z</time></trkpt>
        <trkpt lat="28.8203413" lon="105.3145761"><ele>372.27</ele><time>2026-05-10T18:16:12.000Z</time></trkpt>
        <trkpt lat="28.8203589" lon="105.314714"><ele>370.03</ele><time>2026-05-10T18:16:20.000Z</time></trkpt>
        <trkpt lat="28.8203805" lon="105.3148414"><ele>367.38</ele><time>2026-05-10T18:16:26.000Z</time></trkpt>
        <trkpt lat="28.8203871" lon="105.3149677"><ele>365.52</ele><time>2026-05-10T18:16:32.000Z</time></trkpt>
        <trkpt lat="28.8204131" lon="105.3150877"><ele>364.27</ele><time>2026-05-10T18:16:40.000Z</time></trkpt>
        <trkpt lat="28.8204734" lon="105.3151782"><ele>362.7</ele><time>2026-05-10T18:16:48.000Z</time></trkpt>
        <trkpt lat="28.8205191" lon="105.3152885"><ele>360.16</ele><time>2026-05-10T18:16:56.000Z</time></trkpt>
        <trkpt lat="28.8205879" lon="105.3153943"><ele>357.63</ele><time>2026-05-10T18:17:04.000Z</time></trkpt>
        <trkpt lat="28.8206454" lon="105.3154989"><ele>355.39</ele><time>2026-05-10T18:17:12.000Z</time></trkpt>
        <trkpt lat="28.8207136" lon="105.3155364"><ele>352.93</ele><time>2026-05-10T18:17:24.000Z</time></trkpt>
        <trkpt lat="28.8207905" lon="105.3155951"><ele>352.72</ele><time>2026-05-10T18:17:48.000Z</time></trkpt>
        <trkpt lat="28.8208278" lon="105.3156915"><ele>349.3</ele><time>2026-05-10T18:17:58.000Z</time></trkpt>
        <trkpt lat="28.8208602" lon="105.3158198"><ele>346.81</ele><time>2026-05-10T18:18:04.000Z</time></trkpt>
        <trkpt lat="28.8208766" lon="105.3159468"><ele>345.22</ele><time>2026-05-10T18:18:08.000Z</time></trkpt>
        <trkpt lat="28.8208968" lon="105.3160591"><ele>344.2</ele><time>2026-05-10T18:18:12.000Z</time></trkpt>
        <trkpt lat="28.8209329" lon="105.3161665"><ele>343.48</ele><time>2026-05-10T18:18:16.000Z</time></trkpt>
        <trkpt lat="28.8210033" lon="105.3162278"><ele>342.59</ele><time>2026-05-10T18:18:22.000Z</time></trkpt>
        <trkpt lat="28.8210923" lon="105.3162867"><ele>341.28</ele><time>2026-05-10T18:18:30.000Z</time></trkpt>
        <trkpt lat="28.8211778" lon="105.3163623"><ele>339.34</ele><time>2026-05-10T18:18:38.000Z</time></trkpt>
        <trkpt lat="28.8212698" lon="105.3164218"><ele>336.68</ele><time>2026-05-10T18:18:48.000Z</time></trkpt>
        <trkpt lat="28.8213646" lon="105.3164679"><ele>333.68</ele><time>2026-05-10T18:19:00.000Z</time></trkpt>
        <trkpt lat="28.8213973" lon="105.3165747"><ele>329.28</ele><time>2026-05-10T18:19:06.000Z</time></trkpt>
        <trkpt lat="28.8213793" lon="105.3166991"><ele>324.56</ele><time>2026-05-10T18:19:10.000Z</time></trkpt>
        <trkpt lat="28.821351" lon="105.316826"><ele>321.91</ele><time>2026-05-10T18:19:16.000Z</time></trkpt>
        <trkpt lat="28.8213041" lon="105.3169314"><ele>321.09</ele><time>2026-05-10T18:19:22.000Z</time></trkpt>
        <trkpt lat="28.8213024" lon="105.3170346"><ele>319.41</ele><time>2026-05-10T18:19:30.000Z</time></trkpt>
        <trkpt lat="28.8213672" lon="105.317017"><ele>318.88</ele><time>2026-05-10T18:19:36.000Z</time></trkpt>
        <trkpt lat="28.8214277" lon="105.3169106"><ele>318.36</ele><time>2026-05-10T18:19:42.000Z</time></trkpt>
        <trkpt lat="28.8214873" lon="105.3167927"><ele>316.47</ele><time>2026-05-10T18:19:46.000Z</time></trkpt>
        <trkpt lat="28.8215428" lon="105.3166676"><ele>316.62</ele><time>2026-05-10T18:19:50.000Z</time></trkpt>
        <trkpt lat="28.8216013" lon="105.3165513"><ele>315.44</ele><time>2026-05-10T18:19:54.000Z</time></trkpt>
        <trkpt lat="28.8216646" lon="105.3164391"><ele>314.69</ele><time>2026-05-10T18:20:00.000Z</time></trkpt>
        <trkpt lat="28.8217206" lon="105.3163272"><ele>313.71</ele><time>2026-05-10T18:20:08.000Z</time></trkpt>
        <trkpt lat="28.8217856" lon="105.3162237"><ele>312.16</ele><time>2026-05-10T18:20:14.000Z</time></trkpt>
        <trkpt lat="28.8218539" lon="105.3161448"><ele>310.66</ele><time>2026-05-10T18:20:18.000Z</time></trkpt>
        <trkpt lat="28.8219301" lon="105.3162021"><ele>308.67</ele><time>2026-05-10T18:20:24.000Z</time></trkpt>
        <trkpt lat="28.8219786" lon="105.3163233"><ele>307.15</ele><time>2026-05-10T18:20:30.000Z</time></trkpt>
        <trkpt lat="28.8219839" lon="105.3164915"><ele>306.91</ele><time>2026-05-10T18:20:36.000Z</time></trkpt>
        <trkpt lat="28.8219887" lon="105.3166391"><ele>305.53</ele><time>2026-05-10T18:20:42.000Z</time></trkpt>
        <trkpt lat="28.8219192" lon="105.316721"><ele>303.8</ele><time>2026-05-10T18:20:50.000Z</time></trkpt>
        <trkpt lat="28.8218612" lon="105.3168079"><ele>301.93</ele><time>2026-05-10T18:20:54.000Z</time></trkpt>
        <trkpt lat="28.8218815" lon="105.316907"><ele>299.34</ele><time>2026-05-10T18:20:58.000Z</time></trkpt>
        <trkpt lat="28.8219381" lon="105.3170071"><ele>297.41</ele><time>2026-05-10T18:21:06.000Z</time></trkpt>
        <trkpt lat="28.8220087" lon="105.317112"><ele>295.44</ele><time>2026-05-10T18:21:14.000Z</time></trkpt>
        <trkpt lat="28.8220775" lon="105.317204"><ele>294.01</ele><time>2026-05-10T18:21:28.000Z</time></trkpt>
        <trkpt lat="28.8221321" lon="105.3173024"><ele>292.82</ele><time>2026-05-10T18:21:34.000Z</time></trkpt>
        <trkpt lat="28.822184" lon="105.3173973"><ele>290.62</ele><time>2026-05-10T18:21:38.000Z</time></trkpt>
        <trkpt lat="28.8222348" lon="105.317501"><ele>288.88</ele><time>2026-05-10T18:21:42.000Z</time></trkpt>
        <trkpt lat="28.8222859" lon="105.3176048"><ele>287.57</ele><time>2026-05-10T18:21:46.000Z</time></trkpt>
        <trkpt lat="28.8223129" lon="105.3177302"><ele>286.54</ele><time>2026-05-10T18:21:52.000Z</time></trkpt>
        <trkpt lat="28.8223423" lon="105.3178452"><ele>285.09</ele><time>2026-05-10T18:22:02.000Z</time></trkpt>
        <trkpt lat="28.8222992" lon="105.3179506"><ele>283.47</ele><time>2026-05-10T18:22:08.000Z</time></trkpt>
        <trkpt lat="28.8222802" lon="105.3180641"><ele>282.23</ele><time>2026-05-10T18:22:16.000Z</time></trkpt>
        <trkpt lat="28.8222864" lon="105.3181982"><ele>280.49</ele><time>2026-05-10T18:22:24.000Z</time></trkpt>
        <trkpt lat="28.8222879" lon="105.318312"><ele>279.82</ele><time>2026-05-10T18:22:28.000Z</time></trkpt>
        <trkpt lat="28.8223658" lon="105.3183955"><ele>279.34</ele><time>2026-05-10T18:22:34.000Z</time></trkpt>
        <trkpt lat="28.8224548" lon="105.3184538"><ele>278.22</ele><time>2026-05-10T18:22:40.000Z</time></trkpt>
        <trkpt lat="28.8225467" lon="105.3184972"><ele>277.65</ele><time>2026-05-10T18:22:46.000Z</time></trkpt>
        <trkpt lat="28.822651" lon="105.3185505"><ele>277.37</ele><time>2026-05-10T18:22:54.000Z</time></trkpt>
        <trkpt lat="28.8227269" lon="105.3186401"><ele>277.36</ele><time>2026-05-10T18:23:00.000Z</time></trkpt>
        <trkpt lat="28.8227841" lon="105.3187577"><ele>275.91</ele><time>2026-05-10T18:23:06.000Z</time></trkpt>
        <trkpt lat="28.8228861" lon="105.3188033"><ele>273.99</ele><time>2026-05-10T18:23:14.000Z</time></trkpt>
        <trkpt lat="28.8229672" lon="105.3187546"><ele>272.5</ele><time>2026-05-10T18:23:22.000Z</time></trkpt>
        <trkpt lat="28.8230069" lon="105.3186955"><ele>269.82</ele><time>2026-05-10T18:23:28.000Z</time></trkpt>
        <trkpt lat="28.8230661" lon="105.3186082"><ele>268</ele><time>2026-05-10T18:23:48.000Z</time></trkpt>
        <trkpt lat="28.8230998" lon="105.3185047"><ele>267.43</ele><time>2026-05-10T18:24:20.000Z</time></trkpt>
        <trkpt lat="28.8231752" lon="105.3184668"><ele>271.65</ele><time>2026-05-10T18:24:34.000Z</time></trkpt>
        <trkpt lat="28.8232556" lon="105.3185065"><ele>275.33</ele><time>2026-05-10T18:24:58.000Z</time></trkpt>
        <trkpt lat="28.8232882" lon="105.3184449"><ele>281.55</ele><time>2026-05-10T18:25:18.000Z</time></trkpt>
        <trkpt lat="28.8233371" lon="105.3183616"><ele>286.5</ele><time>2026-05-10T18:25:34.000Z</time></trkpt>
        <trkpt lat="28.8233907" lon="105.3182676"><ele>292.51</ele><time>2026-05-10T18:25:50.000Z</time></trkpt>
        <trkpt lat="28.8234609" lon="105.3181891"><ele>297.57</ele><time>2026-05-10T18:26:08.000Z</time></trkpt>
        <trkpt lat="28.8235227" lon="105.3180988"><ele>302.1</ele><time>2026-05-10T18:26:20.000Z</time></trkpt>
        <trkpt lat="28.8236127" lon="105.318044"><ele>306.94</ele><time>2026-05-10T18:26:36.000Z</time></trkpt>
        <trkpt lat="28.8237093" lon="105.3180055"><ele>311.24</ele><time>2026-05-10T18:26:46.000Z</time></trkpt>
        <trkpt lat="28.8237916" lon="105.3179507"><ele>313.73</ele><time>2026-05-10T18:26:56.000Z</time></trkpt>
        <trkpt lat="28.8238513" lon="105.3178736"><ele>315.32</ele><time>2026-05-10T18:27:08.000Z</time></trkpt>
        <trkpt lat="28.8239003" lon="105.3177716"><ele>318.18</ele><time>2026-05-10T18:27:24.000Z</time></trkpt>
        <trkpt lat="28.8239805" lon="105.3177347"><ele>322.19</ele><time>2026-05-10T18:27:38.000Z</time></trkpt>
        <trkpt lat="28.8240728" lon="105.3177459"><ele>324.77</ele><time>2026-05-10T18:27:50.000Z</time></trkpt>
        <trkpt lat="28.8241323" lon="105.3178362"><ele>328.55</ele><time>2026-05-10T18:28:00.000Z</time></trkpt>
        <trkpt lat="28.8241657" lon="105.3179463"><ele>332.15</ele><time>2026-05-10T18:28:10.000Z</time></trkpt>
        <trkpt lat="28.8242056" lon="105.3180528"><ele>335.06</ele><time>2026-05-10T18:28:26.000Z</time></trkpt>
        <trkpt lat="28.824272" lon="105.3181242"><ele>340.94</ele><time>2026-05-10T18:28:44.000Z</time></trkpt>
        <trkpt lat="28.824362" lon="105.3181668"><ele>346.31</ele><time>2026-05-10T18:28:58.000Z</time></trkpt>
        <trkpt lat="28.8244543" lon="105.3181896"><ele>348.28</ele><time>2026-05-10T18:29:10.000Z</time></trkpt>
        <trkpt lat="28.8245444" lon="105.3182164"><ele>351.23</ele><time>2026-05-10T18:29:20.000Z</time></trkpt>
        <trkpt lat="28.8246247" lon="105.3182644"><ele>351.75</ele><time>2026-05-10T18:29:40.000Z</time></trkpt>
        <trkpt lat="28.8247182" lon="105.3183106"><ele>353.76</ele><time>2026-05-10T18:29:56.000Z</time></trkpt>
        <trkpt lat="28.8247945" lon="105.3183793"><ele>356.32</ele><time>2026-05-10T18:30:14.000Z</time></trkpt>
        <trkpt lat="28.8248477" lon="105.318466"><ele>359.36</ele><time>2026-05-10T18:30:44.000Z</time></trkpt>
        <trkpt lat="28.824929" lon="105.3184866"><ele>362.8</ele><time>2026-05-10T18:30:58.000Z</time></trkpt>
        <trkpt lat="28.824988" lon="105.3184078"><ele>365.65</ele><time>2026-05-10T18:31:14.000Z</time></trkpt>
        <trkpt lat="28.8250237" lon="105.3182933"><ele>367.06</ele><time>2026-05-10T18:31:38.000Z</time></trkpt>
        <trkpt lat="28.8250105" lon="105.318174"><ele>369.85</ele><time>2026-05-10T18:31:56.000Z</time></trkpt>
        <trkpt lat="28.8250628" lon="105.3181715"><ele>372.21</ele><time>2026-05-10T18:32:24.000Z</time></trkpt>
        <trkpt lat="28.8251275" lon="105.3181267"><ele>376.68</ele><time>2026-05-10T18:33:02.000Z</time></trkpt>
        <trkpt lat="28.8251755" lon="105.3180427"><ele>381.31</ele><time>2026-05-10T18:33:14.000Z</time></trkpt>
        <trkpt lat="28.8251939" lon="105.3179346"><ele>385.22</ele><time>2026-05-10T18:33:24.000Z</time></trkpt>
        <trkpt lat="28.8252394" lon="105.3178382"><ele>387.9</ele><time>2026-05-10T18:33:34.000Z</time></trkpt>
        <trkpt lat="28.8251607" lon="105.3178609"><ele>389.16</ele><time>2026-05-10T18:33:48.000Z</time></trkpt>
        <trkpt lat="28.8251517" lon="105.3178747"><ele>391.16</ele><time>2026-05-10T18:33:56.000Z</time></trkpt>
        <trkpt lat="28.8251925" lon="105.3178639"><ele>392.23</ele><time>2026-05-10T18:33:58.000Z</time></trkpt>
        <trkpt lat="28.8252147" lon="105.317792"><ele>394.22</ele><time>2026-05-10T18:34:08.000Z</time></trkpt>
        <trkpt lat="28.8252331" lon="105.3176789"><ele>394.3</ele><time>2026-05-10T18:34:28.000Z</time></trkpt>
        <trkpt lat="28.8251887" lon="105.317573"><ele>395.93</ele><time>2026-05-10T18:34:38.000Z</time></trkpt>
        <trkpt lat="28.8252101" lon="105.3174782"><ele>397.25</ele><time>2026-05-10T18:35:00.000Z</time></trkpt>
        <trkpt lat="28.8252841" lon="105.3174812"><ele>399.07</ele><time>2026-05-10T18:35:26.000Z</time></trkpt>
        <trkpt lat="28.8253229" lon="105.317569"><ele>400.68</ele><time>2026-05-10T18:35:36.000Z</time></trkpt>
        <trkpt lat="28.8253821" lon="105.3176701"><ele>406.08</ele><time>2026-05-10T18:35:48.000Z</time></trkpt>
        <trkpt lat="28.8254308" lon="105.3177763"><ele>409.74</ele><time>2026-05-10T18:35:58.000Z</time></trkpt>
        <trkpt lat="28.8254851" lon="105.3178257"><ele>415.59</ele><time>2026-05-10T18:36:14.000Z</time></trkpt>
        <trkpt lat="28.8255132" lon="105.3177542"><ele>419.23</ele><time>2026-05-10T18:36:24.000Z</time></trkpt>
        <trkpt lat="28.8254876" lon="105.3176432"><ele>421.13</ele><time>2026-05-10T18:36:32.000Z</time></trkpt>
        <trkpt lat="28.8254877" lon="105.3175268"><ele>422.04</ele><time>2026-05-10T18:36:42.000Z</time></trkpt>
        <trkpt lat="28.8255456" lon="105.3174224"><ele>423.13</ele><time>2026-05-10T18:36:52.000Z</time></trkpt>
        <trkpt lat="28.8256398" lon="105.317366"><ele>423.2</ele><time>2026-05-10T18:37:02.000Z</time></trkpt>
        <trkpt lat="28.8256647" lon="105.317274"><ele>424.12</ele><time>2026-05-10T18:37:16.000Z</time></trkpt>
        <trkpt lat="28.8257298" lon="105.3171899"><ele>425.9</ele><time>2026-05-10T18:37:26.000Z</time></trkpt>
        <trkpt lat="28.825811" lon="105.3171242"><ele>427.54</ele><time>2026-05-10T18:37:34.000Z</time></trkpt>
        <trkpt lat="28.8258967" lon="105.3170661"><ele>427.29</ele><time>2026-05-10T18:37:42.000Z</time></trkpt>
        <trkpt lat="28.8259132" lon="105.3169723"><ele>426.81</ele><time>2026-05-10T18:37:56.000Z</time></trkpt>
        <trkpt lat="28.8258574" lon="105.3168863"><ele>428.33</ele><time>2026-05-10T18:38:08.000Z</time></trkpt>
        <trkpt lat="28.8257639" lon="105.3168114"><ele>428.39</ele><time>2026-05-10T18:38:18.000Z</time></trkpt>
        <trkpt lat="28.8256826" lon="105.3167346"><ele>427.66</ele><time>2026-05-10T18:38:26.000Z</time></trkpt>
        <trkpt lat="28.8256019" lon="105.3166628"><ele>426.59</ele><time>2026-05-10T18:38:34.000Z</time></trkpt>
        <trkpt lat="28.8255888" lon="105.3165546"><ele>426.81</ele><time>2026-05-10T18:38:44.000Z</time></trkpt>
        <trkpt lat="28.8256209" lon="105.316453"><ele>427.04</ele><time>2026-05-10T18:38:52.000Z</time></trkpt>
        <trkpt lat="28.8257084" lon="105.3164154"><ele>428.97</ele><time>2026-05-10T18:39:04.000Z</time></trkpt>
        <trkpt lat="28.8258088" lon="105.3164458"><ele>432.5</ele><time>2026-05-10T18:39:16.000Z</time></trkpt>
        <trkpt lat="28.825916" lon="105.3164786"><ele>434.04</ele><time>2026-05-10T18:39:26.000Z</time></trkpt>
        <trkpt lat="28.8259829" lon="105.3164243"><ele>433.03</ele><time>2026-05-10T18:39:36.000Z</time></trkpt>
        <trkpt lat="28.8260158" lon="105.3163233"><ele>434.02</ele><time>2026-05-10T18:39:50.000Z</time></trkpt>
        <trkpt lat="28.8260416" lon="105.3162152"><ele>436.74</ele><time>2026-05-10T18:40:02.000Z</time></trkpt>
        <trkpt lat="28.8260842" lon="105.3161094"><ele>440.08</ele><time>2026-05-10T18:40:16.000Z</time></trkpt>
        <trkpt lat="28.8261589" lon="105.3160413"><ele>444.88</ele><time>2026-05-10T18:40:30.000Z</time></trkpt>
        <trkpt lat="28.8261968" lon="105.3159514"><ele>446.61</ele><time>2026-05-10T18:40:46.000Z</time></trkpt>
        <trkpt lat="28.8261723" lon="105.3158498"><ele>449.05</ele><time>2026-05-10T18:41:08.000Z</time></trkpt>
        <trkpt lat="28.8261494" lon="105.3157403"><ele>454.61</ele><time>2026-05-10T18:41:26.000Z</time></trkpt>
        <trkpt lat="28.8261413" lon="105.3156332"><ele>460.29</ele><time>2026-05-10T18:41:42.000Z</time></trkpt>
        <trkpt lat="28.8260986" lon="105.3155322"><ele>464.27</ele><time>2026-05-10T18:41:54.000Z</time></trkpt>
        <trkpt lat="28.8260419" lon="105.3154388"><ele>467.12</ele><time>2026-05-10T18:42:06.000Z</time></trkpt>
        <trkpt lat="28.8259646" lon="105.3153557"><ele>470.62</ele><time>2026-05-10T18:42:22.000Z</time></trkpt>
        <trkpt lat="28.8259071" lon="105.3152629"><ele>472.7</ele><time>2026-05-10T18:42:34.000Z</time></trkpt>
        <trkpt lat="28.8258817" lon="105.3151614"><ele>473.48</ele><time>2026-05-10T18:42:44.000Z</time></trkpt>
        <trkpt lat="28.8259122" lon="105.3150541"><ele>473.63</ele><time>2026-05-10T18:42:56.000Z</time></trkpt>
        <trkpt lat="28.8259364" lon="105.3149321"><ele>473.84</ele><time>2026-05-10T18:43:06.000Z</time></trkpt>
        <trkpt lat="28.8259746" lon="105.3148184"><ele>475.09</ele><time>2026-05-10T18:43:18.000Z</time></trkpt>
        <trkpt lat="28.8260219" lon="105.3147213"><ele>477.85</ele><time>2026-05-10T18:43:32.000Z</time></trkpt>
        <trkpt lat="28.8260856" lon="105.3146457"><ele>481.51</ele><time>2026-05-10T18:43:50.000Z</time></trkpt>
        <trkpt lat="28.8261553" lon="105.3145666"><ele>484.28</ele><time>2026-05-10T18:44:10.000Z</time></trkpt>
        <trkpt lat="28.8262154" lon="105.3144863"><ele>488.01</ele><time>2026-05-10T18:44:30.000Z</time></trkpt>
        <trkpt lat="28.8261981" lon="105.3143824"><ele>491.08</ele><time>2026-05-10T18:44:42.000Z</time></trkpt>
        <trkpt lat="28.8262048" lon="105.3142761"><ele>493.38</ele><time>2026-05-10T18:44:58.000Z</time></trkpt>
        <trkpt lat="28.8262186" lon="105.3141664"><ele>497.52</ele><time>2026-05-10T18:45:12.000Z</time></trkpt>
        <trkpt lat="28.8262535" lon="105.3140697"><ele>501.22</ele><time>2026-05-10T18:45:32.000Z</time></trkpt>
        <trkpt lat="28.8262503" lon="105.3139687"><ele>505.26</ele><time>2026-05-10T18:45:48.000Z</time></trkpt>
        <trkpt lat="28.8263082" lon="105.3139056"><ele>508.88</ele><time>2026-05-10T18:46:16.000Z</time></trkpt>
        <trkpt lat="28.826371" lon="105.3139633"><ele>512.27</ele><time>2026-05-10T18:46:44.000Z</time></trkpt>
        <trkpt lat="28.8264234" lon="105.3140706"><ele>516.19</ele><time>2026-05-10T18:46:58.000Z</time></trkpt>
        <trkpt lat="28.8264936" lon="105.3141646"><ele>519.82</ele><time>2026-05-10T18:47:18.000Z</time></trkpt>
        <trkpt lat="28.8265045" lon="105.3141164"><ele>524</ele><time>2026-05-10T18:47:44.000Z</time></trkpt>
        <trkpt lat="28.8264986" lon="105.314006"><ele>529.85</ele><time>2026-05-10T18:48:00.000Z</time></trkpt>
        <trkpt lat="28.8264571" lon="105.3138975"><ele>533.76</ele><time>2026-05-10T18:48:14.000Z</time></trkpt>
        <trkpt lat="28.8264738" lon="105.3137923"><ele>538.78</ele><time>2026-05-10T18:48:36.000Z</time></trkpt>
        <trkpt lat="28.8265494" lon="105.3137653"><ele>543.77</ele><time>2026-05-10T18:48:50.000Z</time></trkpt>
        <trkpt lat="28.8266435" lon="105.313746"><ele>547.72</ele><time>2026-05-10T18:49:16.000Z</time></trkpt>
        <trkpt lat="28.8267401" lon="105.3137125"><ele>551.12</ele><time>2026-05-10T18:49:34.000Z</time></trkpt>
        <trkpt lat="28.826835" lon="105.313693"><ele>554.41</ele><time>2026-05-10T18:49:50.000Z</time></trkpt>
        <trkpt lat="28.8269274" lon="105.3137312"><ele>556.03</ele><time>2026-05-10T18:50:04.000Z</time></trkpt>
        <trkpt lat="28.8270206" lon="105.3137859"><ele>561.01</ele><time>2026-05-10T18:50:20.000Z</time></trkpt>
        <trkpt lat="28.8270983" lon="105.3138636"><ele>566.12</ele><time>2026-05-10T18:50:40.000Z</time></trkpt>
        <trkpt lat="28.82718" lon="105.313918"><ele>569.74</ele><time>2026-05-10T18:50:52.000Z</time></trkpt>
        <trkpt lat="28.8272639" lon="105.313901"><ele>570.7</ele><time>2026-05-10T18:51:06.000Z</time></trkpt>
        <trkpt lat="28.8273045" lon="105.3138065"><ele>570.48</ele><time>2026-05-10T18:51:20.000Z</time></trkpt>
        <trkpt lat="28.827343" lon="105.3137011"><ele>573.27</ele><time>2026-05-10T18:51:34.000Z</time></trkpt>
        <trkpt lat="28.8273962" lon="105.3135955"><ele>575.95</ele><time>2026-05-10T18:51:50.000Z</time></trkpt>
        <trkpt lat="28.8274698" lon="105.3135187"><ele>579.31</ele><time>2026-05-10T18:52:06.000Z</time></trkpt>
        <trkpt lat="28.8275209" lon="105.3134258"><ele>581.05</ele><time>2026-05-10T18:52:18.000Z</time></trkpt>
        <trkpt lat="28.827543" lon="105.3133233"><ele>580.86</ele><time>2026-05-10T18:52:28.000Z</time></trkpt>
        <trkpt lat="28.8275746" lon="105.3132128"><ele>582.24</ele><time>2026-05-10T18:52:38.000Z</time></trkpt>
        <trkpt lat="28.8276195" lon="105.3131065"><ele>582.88</ele><time>2026-05-10T18:52:46.000Z</time></trkpt>
        <trkpt lat="28.827684" lon="105.3130089"><ele>584.83</ele><time>2026-05-10T18:52:56.000Z</time></trkpt>
        <trkpt lat="28.8277489" lon="105.3129217"><ele>584.98</ele><time>2026-05-10T18:53:02.000Z</time></trkpt>
        <trkpt lat="28.8278449" lon="105.3128861"><ele>586.13</ele><time>2026-05-10T18:53:10.000Z</time></trkpt>
        <trkpt lat="28.8279489" lon="105.3128864"><ele>586.91</ele><time>2026-05-10T18:53:18.000Z</time></trkpt>
        <trkpt lat="28.8280591" lon="105.3129184"><ele>587.91</ele><time>2026-05-10T18:53:28.000Z</time></trkpt>
        <trkpt lat="28.8281656" lon="105.3129537"><ele>587.36</ele><time>2026-05-10T18:53:34.000Z</time></trkpt>
        <trkpt lat="28.8282613" lon="105.312956"><ele>586.92</ele><time>2026-05-10T18:53:40.000Z</time></trkpt>
        <trkpt lat="28.8283508" lon="105.3129111"><ele>588.43</ele><time>2026-05-10T18:53:48.000Z</time></trkpt>
        <trkpt lat="28.8284346" lon="105.3128583"><ele>590.33</ele><time>2026-05-10T18:53:56.000Z</time></trkpt>
        <trkpt lat="28.8285353" lon="105.3128281"><ele>590.46</ele><time>2026-05-10T18:54:06.000Z</time></trkpt>
        <trkpt lat="28.8286283" lon="105.3127925"><ele>591.14</ele><time>2026-05-10T18:54:14.000Z</time></trkpt>
        <trkpt lat="28.8287113" lon="105.3127373"><ele>591.64</ele><time>2026-05-10T18:54:22.000Z</time></trkpt>
        <trkpt lat="28.8287362" lon="105.3127155"><ele>590.99</ele><time>2026-05-10T18:54:24.000Z</time></trkpt>
        <trkpt lat="28.8287871" lon="105.3126579"><ele>590.48</ele><time>2026-05-10T18:54:34.000Z</time></trkpt>
        <trkpt lat="28.8288623" lon="105.3125739"><ele>590.54</ele><time>2026-05-10T18:54:44.000Z</time></trkpt>
        <trkpt lat="28.8289208" lon="105.312466"><ele>589.53</ele><time>2026-05-10T18:54:54.000Z</time></trkpt>
        <trkpt lat="28.8289441" lon="105.3123531"><ele>588.52</ele><time>2026-05-10T18:55:02.000Z</time></trkpt>
        <trkpt lat="28.8289889" lon="105.3122609"><ele>588.21</ele><time>2026-05-10T18:55:10.000Z</time></trkpt>
        <trkpt lat="28.8290698" lon="105.3121995"><ele>588.26</ele><time>2026-05-10T18:55:18.000Z</time></trkpt>
        <trkpt lat="28.829162" lon="105.3121635"><ele>588.33</ele><time>2026-05-10T18:55:26.000Z</time></trkpt>
        <trkpt lat="28.829261" lon="105.3121881"><ele>587.63</ele><time>2026-05-10T18:55:32.000Z</time></trkpt>
        <trkpt lat="28.8293538" lon="105.3122701"><ele>585.48</ele><time>2026-05-10T18:55:40.000Z</time></trkpt>
        <trkpt lat="28.8294385" lon="105.3123564"><ele>584.03</ele><time>2026-05-10T18:55:48.000Z</time></trkpt>
        <trkpt lat="28.8295179" lon="105.3124243"><ele>584.59</ele><time>2026-05-10T18:55:54.000Z</time></trkpt>
        <trkpt lat="28.8296158" lon="105.3124752"><ele>584.68</ele><time>2026-05-10T18:56:02.000Z</time></trkpt>
        <trkpt lat="28.8297087" lon="105.3125229"><ele>584.98</ele><time>2026-05-10T18:56:08.000Z</time></trkpt>
        <trkpt lat="28.8298071" lon="105.3125846"><ele>585.21</ele><time>2026-05-10T18:56:16.000Z</time></trkpt>
        <trkpt lat="28.8299194" lon="105.3126336"><ele>585.38</ele><time>2026-05-10T18:56:24.000Z</time></trkpt>
        <trkpt lat="28.8300354" lon="105.3126542"><ele>585.98</ele><time>2026-05-10T18:56:32.000Z</time></trkpt>
        <trkpt lat="28.8301271" lon="105.3126228"><ele>587.01</ele><time>2026-05-10T18:56:38.000Z</time></trkpt>
        <trkpt lat="28.8302163" lon="105.3125631"><ele>588.73</ele><time>2026-05-10T18:56:46.000Z</time></trkpt>
        <trkpt lat="28.8303085" lon="105.3124964"><ele>589.97</ele><time>2026-05-10T18:56:54.000Z</time></trkpt>
        <trkpt lat="28.8304093" lon="105.3124282"><ele>589.64</ele><time>2026-05-10T18:57:02.000Z</time></trkpt>
        <trkpt lat="28.8305126" lon="105.3123658"><ele>590.23</ele><time>2026-05-10T18:57:10.000Z</time></trkpt>
        <trkpt lat="28.8305453" lon="105.3123537"><ele>589.42</ele><time>2026-05-10T18:57:12.000Z</time></trkpt>
        <trkpt lat="28.8306139" lon="105.3122917"><ele>588.8</ele><time>2026-05-10T18:57:26.000Z</time></trkpt>
        <trkpt lat="28.8307031" lon="105.3122039"><ele>589.7</ele><time>2026-05-10T18:57:32.000Z</time></trkpt>
        <trkpt lat="28.8308141" lon="105.3121261"><ele>591.71</ele><time>2026-05-10T18:57:38.000Z</time></trkpt>
        <trkpt lat="28.8308983" lon="105.3120488"><ele>592.66</ele><time>2026-05-10T18:57:44.000Z</time></trkpt>
        <trkpt lat="28.8309852" lon="105.3120017"><ele>593.47</ele><time>2026-05-10T18:57:50.000Z</time></trkpt>
        <trkpt lat="28.8311008" lon="105.3119965"><ele>594.02</ele><time>2026-05-10T18:57:56.000Z</time></trkpt>
        <trkpt lat="28.8312097" lon="105.3119868"><ele>593.63</ele><time>2026-05-10T18:58:00.000Z</time></trkpt>
        <trkpt lat="28.8313058" lon="105.3119912"><ele>593.74</ele><time>2026-05-10T18:58:04.000Z</time></trkpt>
        <trkpt lat="28.8314056" lon="105.3119675"><ele>590.84</ele><time>2026-05-10T18:58:12.000Z</time></trkpt>
        <trkpt lat="28.8314991" lon="105.3119386"><ele>588.79</ele><time>2026-05-10T18:58:18.000Z</time></trkpt>
        <trkpt lat="28.8316" lon="105.311922"><ele>587.1</ele><time>2026-05-10T18:58:26.000Z</time></trkpt>
        <trkpt lat="28.831705" lon="105.3119176"><ele>586.52</ele><time>2026-05-10T18:58:36.000Z</time></trkpt>
        <trkpt lat="28.831811" lon="105.3118798"><ele>586.31</ele><time>2026-05-10T18:58:44.000Z</time></trkpt>
        <trkpt lat="28.8319156" lon="105.3118824"><ele>585.77</ele><time>2026-05-10T18:58:54.000Z</time></trkpt>
        <trkpt lat="28.8319867" lon="105.3119526"><ele>584.75</ele><time>2026-05-10T18:58:58.000Z</time></trkpt>
        <trkpt lat="28.832042" lon="105.3120658"><ele>583.19</ele><time>2026-05-10T18:59:02.000Z</time></trkpt>
        <trkpt lat="28.8321069" lon="105.3121825"><ele>582.62</ele><time>2026-05-10T18:59:08.000Z</time></trkpt>
        <trkpt lat="28.8321921" lon="105.3122547"><ele>580.97</ele><time>2026-05-10T18:59:14.000Z</time></trkpt>
        <trkpt lat="28.8323041" lon="105.3123131"><ele>579.9</ele><time>2026-05-10T18:59:20.000Z</time></trkpt>
        <trkpt lat="28.8323979" lon="105.3123911"><ele>578.8</ele><time>2026-05-10T18:59:26.000Z</time></trkpt>
        <trkpt lat="28.8325096" lon="105.3124434"><ele>577.93</ele><time>2026-05-10T18:59:32.000Z</time></trkpt>
        <trkpt lat="28.8325974" lon="105.312523"><ele>574.32</ele><time>2026-05-10T18:59:38.000Z</time></trkpt>
        <trkpt lat="28.8326171" lon="105.3126389"><ele>571.3</ele><time>2026-05-10T18:59:44.000Z</time></trkpt>
        <trkpt lat="28.8326231" lon="105.3127528"><ele>567.02</ele><time>2026-05-10T18:59:50.000Z</time></trkpt>
        <trkpt lat="28.8326142" lon="105.312894"><ele>562.71</ele><time>2026-05-10T18:59:56.000Z</time></trkpt>
        <trkpt lat="28.832611" lon="105.3130592"><ele>557.68</ele><time>2026-05-10T19:00:02.000Z</time></trkpt>
        <trkpt lat="28.8326046" lon="105.313198"><ele>554.03</ele><time>2026-05-10T19:00:06.000Z</time></trkpt>
        <trkpt lat="28.8326016" lon="105.3133154"><ele>550.91</ele><time>2026-05-10T19:00:10.000Z</time></trkpt>
        <trkpt lat="28.8326354" lon="105.3134187"><ele>549</ele><time>2026-05-10T19:00:14.000Z</time></trkpt>
        <trkpt lat="28.8327164" lon="105.3135014"><ele>547.43</ele><time>2026-05-10T19:00:20.000Z</time></trkpt>
        <trkpt lat="28.8327337" lon="105.3136039"><ele>545.58</ele><time>2026-05-10T19:00:28.000Z</time></trkpt>
        <trkpt lat="28.832726" lon="105.3137101"><ele>544.11</ele><time>2026-05-10T19:00:34.000Z</time></trkpt>
        <trkpt lat="28.8327311" lon="105.3137328"><ele>544.33</ele><time>2026-05-10T19:00:36.000Z</time></trkpt>
        <trkpt lat="28.8327071" lon="105.3138128"><ele>544.52</ele><time>2026-05-10T19:01:04.000Z</time></trkpt>
        <trkpt lat="28.8327355" lon="105.3139019"><ele>545.48</ele><time>2026-05-10T19:01:22.000Z</time></trkpt>
        <trkpt lat="28.8327199" lon="105.3139983"><ele>545.16</ele><time>2026-05-10T19:01:40.000Z</time></trkpt>
        <trkpt lat="28.8326789" lon="105.3140918"><ele>547.98</ele><time>2026-05-10T19:02:00.000Z</time></trkpt>
        <trkpt lat="28.8326213" lon="105.3141873"><ele>551.84</ele><time>2026-05-10T19:02:12.000Z</time></trkpt>
        <trkpt lat="28.8326838" lon="105.3142256"><ele>555.2</ele><time>2026-05-10T19:02:22.000Z</time></trkpt>
        <trkpt lat="28.832762" lon="105.3143004"><ele>555.95</ele><time>2026-05-10T19:02:32.000Z</time></trkpt>
        <trkpt lat="28.8328601" lon="105.3143618"><ele>554.99</ele><time>2026-05-10T19:02:40.000Z</time></trkpt>
        <trkpt lat="28.8329681" lon="105.3144258"><ele>556.9</ele><time>2026-05-10T19:02:48.000Z</time></trkpt>
        <trkpt lat="28.8330768" lon="105.3144218"><ele>558.71</ele><time>2026-05-10T19:02:56.000Z</time></trkpt>
        <trkpt lat="28.833189" lon="105.314407"><ele>559.68</ele><time>2026-05-10T19:03:06.000Z</time></trkpt>
        <trkpt lat="28.8332952" lon="105.3143955"><ele>560.41</ele><time>2026-05-10T19:03:14.000Z</time></trkpt>
        <trkpt lat="28.8334128" lon="105.3143919"><ele>560.45</ele><time>2026-05-10T19:03:22.000Z</time></trkpt>
        <trkpt lat="28.833513" lon="105.3143929"><ele>559.88</ele><time>2026-05-10T19:03:28.000Z</time></trkpt>
        <trkpt lat="28.8336066" lon="105.3144131"><ele>559.2</ele><time>2026-05-10T19:03:34.000Z</time></trkpt>
        <trkpt lat="28.8337007" lon="105.3144328"><ele>559.44</ele><time>2026-05-10T19:03:40.000Z</time></trkpt>
        <trkpt lat="28.833804" lon="105.3144677"><ele>559.85</ele><time>2026-05-10T19:03:48.000Z</time></trkpt>
        <trkpt lat="28.8338946" lon="105.3145367"><ele>559.91</ele><time>2026-05-10T19:03:56.000Z</time></trkpt>
        <trkpt lat="28.8339816" lon="105.3146249"><ele>559.06</ele><time>2026-05-10T19:04:04.000Z</time></trkpt>
        <trkpt lat="28.834062" lon="105.3147194"><ele>559.4</ele><time>2026-05-10T19:04:12.000Z</time></trkpt>
        <trkpt lat="28.8341671" lon="105.3147666"><ele>559.91</ele><time>2026-05-10T19:04:20.000Z</time></trkpt>
        <trkpt lat="28.8342423" lon="105.3147836"><ele>560.5</ele><time>2026-05-10T19:04:26.000Z</time></trkpt>
        <trkpt lat="28.8341814" lon="105.3147627"><ele>560.87</ele><time>2026-05-10T19:04:42.000Z</time></trkpt>
        <trkpt lat="28.834134" lon="105.3148438"><ele>562.44</ele><time>2026-05-10T19:04:48.000Z</time></trkpt>
        <trkpt lat="28.8341052" lon="105.3148858"><ele>563.3</ele><time>2026-05-10T19:04:52.000Z</time></trkpt>
        <trkpt lat="28.8340299" lon="105.3149785"><ele>564.27</ele><time>2026-05-10T19:05:00.000Z</time></trkpt>
        <trkpt lat="28.8339507" lon="105.3150636"><ele>563.89</ele><time>2026-05-10T19:05:04.000Z</time></trkpt>
        <trkpt lat="28.8338558" lon="105.3151103"><ele>563.78</ele><time>2026-05-10T19:05:08.000Z</time></trkpt>
        <trkpt lat="28.8337495" lon="105.3151514"><ele>562.18</ele><time>2026-05-10T19:05:12.000Z</time></trkpt>
        <trkpt lat="28.8336308" lon="105.3151637"><ele>561.26</ele><time>2026-05-10T19:05:16.000Z</time></trkpt>
        <trkpt lat="28.8335226" lon="105.3151734"><ele>559.5</ele><time>2026-05-10T19:05:20.000Z</time></trkpt>
        <trkpt lat="28.8334251" lon="105.3151962"><ele>556.42</ele><time>2026-05-10T19:05:24.000Z</time></trkpt>
        <trkpt lat="28.8333228" lon="105.3152373"><ele>553.41</ele><time>2026-05-10T19:05:28.000Z</time></trkpt>
        <trkpt lat="28.8332279" lon="105.3152905"><ele>550.77</ele><time>2026-05-10T19:05:32.000Z</time></trkpt>
        <trkpt lat="28.8331491" lon="105.3153544"><ele>548.32</ele><time>2026-05-10T19:05:36.000Z</time></trkpt>
        <trkpt lat="28.833067" lon="105.3154294"><ele>546.21</ele><time>2026-05-10T19:05:41.000Z</time></trkpt>
        <trkpt lat="28.8329643" lon="105.3154477"><ele>543.75</ele><time>2026-05-10T19:05:51.000Z</time></trkpt>
        <trkpt lat="28.8328646" lon="105.3154244"><ele>539.33</ele><time>2026-05-10T19:05:59.000Z</time></trkpt>
        <trkpt lat="28.8327888" lon="105.3153577"><ele>537.23</ele><time>2026-05-10T19:06:07.000Z</time></trkpt>
        <trkpt lat="28.8327125" lon="105.3152867"><ele>537.06</ele><time>2026-05-10T19:06:19.000Z</time></trkpt>
        <trkpt lat="28.8326279" lon="105.3152754"><ele>538.96</ele><time>2026-05-10T19:06:35.000Z</time></trkpt>
        <trkpt lat="28.8325371" lon="105.3152839"><ele>542.36</ele><time>2026-05-10T19:06:51.000Z</time></trkpt>
        <trkpt lat="28.8324484" lon="105.3152593"><ele>545.39</ele><time>2026-05-10T19:07:03.000Z</time></trkpt>
        <trkpt lat="28.8323586" lon="105.3152059"><ele>548.02</ele><time>2026-05-10T19:07:15.000Z</time></trkpt>
        <trkpt lat="28.8322689" lon="105.315144"><ele>550.42</ele><time>2026-05-10T19:07:25.000Z</time></trkpt>
        <trkpt lat="28.8321815" lon="105.3150815"><ele>551.84</ele><time>2026-05-10T19:07:35.000Z</time></trkpt>
        <trkpt lat="28.8320919" lon="105.3150673"><ele>554.15</ele><time>2026-05-10T19:07:45.000Z</time></trkpt>
        <trkpt lat="28.8320008" lon="105.3150933"><ele>556.16</ele><time>2026-05-10T19:07:55.000Z</time></trkpt>
        <trkpt lat="28.831929" lon="105.3151712"><ele>558.18</ele><time>2026-05-10T19:08:03.000Z</time></trkpt>
        <trkpt lat="28.8318836" lon="105.3152939"><ele>558.24</ele><time>2026-05-10T19:08:11.000Z</time></trkpt>
        <trkpt lat="28.8318874" lon="105.3154235"><ele>557.99</ele><time>2026-05-10T19:08:19.000Z</time></trkpt>
        <trkpt lat="28.8319007" lon="105.3155487"><ele>557.65</ele><time>2026-05-10T19:08:27.000Z</time></trkpt>
        <trkpt lat="28.8318873" lon="105.3156639"><ele>557.48</ele><time>2026-05-10T19:08:35.000Z</time></trkpt>
        <trkpt lat="28.8318059" lon="105.3157398"><ele>556.9</ele><time>2026-05-10T19:08:43.000Z</time></trkpt>
        <trkpt lat="28.8317173" lon="105.3158094"><ele>556.76</ele><time>2026-05-10T19:08:49.000Z</time></trkpt>
        <trkpt lat="28.8316366" lon="105.3158756"><ele>556.8</ele><time>2026-05-10T19:08:55.000Z</time></trkpt>
        <trkpt lat="28.8315477" lon="105.3159422"><ele>555.96</ele><time>2026-05-10T19:09:01.000Z</time></trkpt>
        <trkpt lat="28.8314502" lon="105.3159943"><ele>555.41</ele><time>2026-05-10T19:09:05.000Z</time></trkpt>
        <trkpt lat="28.8313559" lon="105.3160762"><ele>554.68</ele><time>2026-05-10T19:09:09.000Z</time></trkpt>
        <trkpt lat="28.8312698" lon="105.3161612"><ele>553.98</ele><time>2026-05-10T19:09:13.000Z</time></trkpt>
        <trkpt lat="28.8311746" lon="105.3161991"><ele>553.06</ele><time>2026-05-10T19:09:21.000Z</time></trkpt>
        <trkpt lat="28.8310904" lon="105.3162544"><ele>551.3</ele><time>2026-05-10T19:09:31.000Z</time></trkpt>
        <trkpt lat="28.8310016" lon="105.3162236"><ele>547.26</ele><time>2026-05-10T19:09:39.000Z</time></trkpt>
        <trkpt lat="28.8309045" lon="105.3162228"><ele>543.08</ele><time>2026-05-10T19:09:53.000Z</time></trkpt>
        <trkpt lat="28.8308228" lon="105.3161533"><ele>537.16</ele><time>2026-05-10T19:10:01.000Z</time></trkpt>
        <trkpt lat="28.8308237" lon="105.316035"><ele>531.83</ele><time>2026-05-10T19:10:05.000Z</time></trkpt>
        <trkpt lat="28.8308302" lon="105.315903"><ele>529.15</ele><time>2026-05-10T19:10:09.000Z</time></trkpt>
        <trkpt lat="28.8307946" lon="105.3158021"><ele>528.22</ele><time>2026-05-10T19:10:13.000Z</time></trkpt>
        <trkpt lat="28.8307119" lon="105.315802"><ele>527.62</ele><time>2026-05-10T19:10:19.000Z</time></trkpt>
        <trkpt lat="28.8306625" lon="105.3158883"><ele>527.81</ele><time>2026-05-10T19:10:25.000Z</time></trkpt>
        <trkpt lat="28.830619" lon="105.3159974"><ele>526.48</ele><time>2026-05-10T19:10:33.000Z</time></trkpt>
        <trkpt lat="28.8305771" lon="105.3161079"><ele>524.19</ele><time>2026-05-10T19:10:41.000Z</time></trkpt>
        <trkpt lat="28.8305316" lon="105.3162221"><ele>523.85</ele><time>2026-05-10T19:10:51.000Z</time></trkpt>
        <trkpt lat="28.8304499" lon="105.3162811"><ele>524.76</ele><time>2026-05-10T19:10:59.000Z</time></trkpt>
        <trkpt lat="28.8303609" lon="105.3163167"><ele>524.79</ele><time>2026-05-10T19:11:05.000Z</time></trkpt>
        <trkpt lat="28.8302775" lon="105.3163656"><ele>524.44</ele><time>2026-05-10T19:11:11.000Z</time></trkpt>
        <trkpt lat="28.8301946" lon="105.3164168"><ele>524.07</ele><time>2026-05-10T19:11:17.000Z</time></trkpt>
        <trkpt lat="28.8301145" lon="105.3164801"><ele>524.26</ele><time>2026-05-10T19:11:23.000Z</time></trkpt>
        <trkpt lat="28.8300349" lon="105.3165417"><ele>524.94</ele><time>2026-05-10T19:11:29.000Z</time></trkpt>
        <trkpt lat="28.8299348" lon="105.3165751"><ele>526.03</ele><time>2026-05-10T19:11:37.000Z</time></trkpt>
        <trkpt lat="28.8298291" lon="105.3165534"><ele>525.68</ele><time>2026-05-10T19:11:45.000Z</time></trkpt>
        <trkpt lat="28.8297655" lon="105.316455"><ele>525.08</ele><time>2026-05-10T19:11:51.000Z</time></trkpt>
        <trkpt lat="28.8297547" lon="105.3163315"><ele>527.38</ele><time>2026-05-10T19:11:59.000Z</time></trkpt>
        <trkpt lat="28.8296893" lon="105.3162875"><ele>530</ele><time>2026-05-10T19:12:15.000Z</time></trkpt>
        <trkpt lat="28.829603" lon="105.3162599"><ele>532.36</ele><time>2026-05-10T19:12:33.000Z</time></trkpt>
        <trkpt lat="28.8295195" lon="105.3163002"><ele>535.1</ele><time>2026-05-10T19:12:55.000Z</time></trkpt>
        <trkpt lat="28.8294518" lon="105.3163957"><ele>538</ele><time>2026-05-10T19:13:07.000Z</time></trkpt>
        <trkpt lat="28.8294087" lon="105.3165145"><ele>540.53</ele><time>2026-05-10T19:13:17.000Z</time></trkpt>
        <trkpt lat="28.8293195" lon="105.3165648"><ele>542.6</ele><time>2026-05-10T19:13:27.000Z</time></trkpt>
        <trkpt lat="28.8292271" lon="105.3166117"><ele>544.97</ele><time>2026-05-10T19:13:35.000Z</time></trkpt>
        <trkpt lat="28.8291377" lon="105.3166701"><ele>545.96</ele><time>2026-05-10T19:13:43.000Z</time></trkpt>
        <trkpt lat="28.8290468" lon="105.3167119"><ele>546.8</ele><time>2026-05-10T19:13:51.000Z</time></trkpt>
        <trkpt lat="28.8289425" lon="105.3167336"><ele>549.72</ele><time>2026-05-10T19:14:01.000Z</time></trkpt>
        <trkpt lat="28.8288436" lon="105.3167573"><ele>553.85</ele><time>2026-05-10T19:14:11.000Z</time></trkpt>
        <trkpt lat="28.8288003" lon="105.3168502"><ele>557.65</ele><time>2026-05-10T19:14:21.000Z</time></trkpt>
        <trkpt lat="28.8288062" lon="105.3169602"><ele>559.86</ele><time>2026-05-10T19:14:29.000Z</time></trkpt>
        <trkpt lat="28.8288043" lon="105.3170057"><ele>561.12</ele><time>2026-05-10T19:14:35.000Z</time></trkpt>
        <trkpt lat="28.8288529" lon="105.31707"><ele>562.28</ele><time>2026-05-10T19:14:49.000Z</time></trkpt>
        <trkpt lat="28.8289207" lon="105.3171411"><ele>562.78</ele><time>2026-05-10T19:14:53.000Z</time></trkpt>
        <trkpt lat="28.8289376" lon="105.317251"><ele>562.51</ele><time>2026-05-10T19:14:57.000Z</time></trkpt>
        <trkpt lat="28.8289305" lon="105.3174007"><ele>562.2</ele><time>2026-05-10T19:15:03.000Z</time></trkpt>
        <trkpt lat="28.8289436" lon="105.3175337"><ele>563.29</ele><time>2026-05-10T19:15:11.000Z</time></trkpt>
        <trkpt lat="28.8290138" lon="105.3176439"><ele>563.24</ele><time>2026-05-10T19:15:21.000Z</time></trkpt>
        <trkpt lat="28.8290704" lon="105.31775"><ele>562.73</ele><time>2026-05-10T19:15:29.000Z</time></trkpt>
        <trkpt lat="28.8291211" lon="105.3178503"><ele>561.62</ele><time>2026-05-10T19:15:37.000Z</time></trkpt>
        <trkpt lat="28.8291614" lon="105.3179553"><ele>559.52</ele><time>2026-05-10T19:15:45.000Z</time></trkpt>
        <trkpt lat="28.8291558" lon="105.3180433"><ele>556.92</ele><time>2026-05-10T19:15:53.000Z</time></trkpt>
        <trkpt lat="28.829149" lon="105.3181426"><ele>554.42</ele><time>2026-05-10T19:16:25.000Z</time></trkpt>
        <trkpt lat="28.8291477" lon="105.3182655"><ele>551.51</ele><time>2026-05-10T19:16:41.000Z</time></trkpt>
        <trkpt lat="28.8291477" lon="105.3183781"><ele>547.79</ele><time>2026-05-10T19:16:49.000Z</time></trkpt>
        <trkpt lat="28.8291397" lon="105.3185007"><ele>543.54</ele><time>2026-05-10T19:16:57.000Z</time></trkpt>
        <trkpt lat="28.829141" lon="105.3186473"><ele>539.25</ele><time>2026-05-10T19:17:03.000Z</time></trkpt>
        <trkpt lat="28.8291458" lon="105.3187841"><ele>536.11</ele><time>2026-05-10T19:17:07.000Z</time></trkpt>
        <trkpt lat="28.8291631" lon="105.3189007"><ele>533.63</ele><time>2026-05-10T19:17:11.000Z</time></trkpt>
        <trkpt lat="28.8291759" lon="105.3190072"><ele>532.69</ele><time>2026-05-10T19:17:17.000Z</time></trkpt>
        <trkpt lat="28.8292052" lon="105.3191215"><ele>532.77</ele><time>2026-05-10T19:17:25.000Z</time></trkpt>
        <trkpt lat="28.8292263" lon="105.3192386"><ele>532.86</ele><time>2026-05-10T19:17:33.000Z</time></trkpt>
        <trkpt lat="28.8292171" lon="105.3193822"><ele>533.03</ele><time>2026-05-10T19:17:41.000Z</time></trkpt>
        <trkpt lat="28.8292035" lon="105.3195181"><ele>530.62</ele><time>2026-05-10T19:17:45.000Z</time></trkpt>
        <trkpt lat="28.8291963" lon="105.3196308"><ele>528.9</ele><time>2026-05-10T19:17:49.000Z</time></trkpt>
        <trkpt lat="28.8291932" lon="105.3197751"><ele>527.44</ele><time>2026-05-10T19:17:55.000Z</time></trkpt>
        <trkpt lat="28.8292027" lon="105.3198916"><ele>526.74</ele><time>2026-05-10T19:17:59.000Z</time></trkpt>
        <trkpt lat="28.8292336" lon="105.3200096"><ele>526.3</ele><time>2026-05-10T19:18:07.000Z</time></trkpt>
        <trkpt lat="28.8292539" lon="105.3201211"><ele>524.98</ele><time>2026-05-10T19:18:15.000Z</time></trkpt>
        <trkpt lat="28.8292957" lon="105.3202147"><ele>522.56</ele><time>2026-05-10T19:18:25.000Z</time></trkpt>
        <trkpt lat="28.8293625" lon="105.3202938"><ele>518.55</ele><time>2026-05-10T19:18:35.000Z</time></trkpt>
        <trkpt lat="28.829435" lon="105.3203912"><ele>514.1</ele><time>2026-05-10T19:18:41.000Z</time></trkpt>
        <trkpt lat="28.8295265" lon="105.3204433"><ele>511.45</ele><time>2026-05-10T19:18:53.000Z</time></trkpt>
        <trkpt lat="28.8296018" lon="105.3205154"><ele>507.05</ele><time>2026-05-10T19:19:01.000Z</time></trkpt>
        <trkpt lat="28.8296312" lon="105.3206509"><ele>502.19</ele><time>2026-05-10T19:19:07.000Z</time></trkpt>
        <trkpt lat="28.8296643" lon="105.3207953"><ele>498.38</ele><time>2026-05-10T19:19:11.000Z</time></trkpt>
        <trkpt lat="28.8296858" lon="105.3209112"><ele>496.48</ele><time>2026-05-10T19:19:15.000Z</time></trkpt>
        <trkpt lat="28.8297253" lon="105.3210236"><ele>495.54</ele><time>2026-05-10T19:19:21.000Z</time></trkpt>
        <trkpt lat="28.8297607" lon="105.3211249"><ele>493.39</ele><time>2026-05-10T19:19:25.000Z</time></trkpt>
        <trkpt lat="28.8298009" lon="105.3212413"><ele>491.24</ele><time>2026-05-10T19:19:31.000Z</time></trkpt>
        <trkpt lat="28.8298344" lon="105.3213521"><ele>488.35</ele><time>2026-05-10T19:19:37.000Z</time></trkpt>
        <trkpt lat="28.8298958" lon="105.3214492"><ele>485.18</ele><time>2026-05-10T19:19:41.000Z</time></trkpt>
        <trkpt lat="28.8299722" lon="105.3215484"><ele>483.76</ele><time>2026-05-10T19:19:47.000Z</time></trkpt>
        <trkpt lat="28.8300644" lon="105.3216584"><ele>481.36</ele><time>2026-05-10T19:19:53.000Z</time></trkpt>
        <trkpt lat="28.8301083" lon="105.3217966"><ele>479.42</ele><time>2026-05-10T19:19:59.000Z</time></trkpt>
        <trkpt lat="28.8301274" lon="105.3219319"><ele>478.11</ele><time>2026-05-10T19:20:07.000Z</time></trkpt>
        <trkpt lat="28.8301246" lon="105.32205"><ele>474.87</ele><time>2026-05-10T19:20:13.000Z</time></trkpt>
        <trkpt lat="28.8301359" lon="105.3221533"><ele>472.21</ele><time>2026-05-10T19:20:19.000Z</time></trkpt>
        <trkpt lat="28.8301815" lon="105.3222407"><ele>469.5</ele><time>2026-05-10T19:20:25.000Z</time></trkpt>
        <trkpt lat="28.8302612" lon="105.3223236"><ele>466.51</ele><time>2026-05-10T19:20:31.000Z</time></trkpt>
        <trkpt lat="28.8303148" lon="105.3224148"><ele>463.26</ele><time>2026-05-10T19:20:39.000Z</time></trkpt>
        <trkpt lat="28.8303961" lon="105.3224887"><ele>459.69</ele><time>2026-05-10T19:20:45.000Z</time></trkpt>
        <trkpt lat="28.8304917" lon="105.3225492"><ele>457.22</ele><time>2026-05-10T19:20:51.000Z</time></trkpt>
        <trkpt lat="28.8305872" lon="105.3226101"><ele>454.47</ele><time>2026-05-10T19:21:01.000Z</time></trkpt>
        <trkpt lat="28.8306746" lon="105.3226645"><ele>451.13</ele><time>2026-05-10T19:21:19.000Z</time></trkpt>
        <trkpt lat="28.8307562" lon="105.3227302"><ele>445.24</ele><time>2026-05-10T19:21:31.000Z</time></trkpt>
        <trkpt lat="28.8308261" lon="105.3226903"><ele>439.45</ele><time>2026-05-10T19:21:41.000Z</time></trkpt>
        <trkpt lat="28.8308625" lon="105.322574"><ele>436.14</ele><time>2026-05-10T19:21:49.000Z</time></trkpt>
        <trkpt lat="28.8308723" lon="105.3224375"><ele>434.58</ele><time>2026-05-10T19:21:57.000Z</time></trkpt>
        <trkpt lat="28.8308556" lon="105.3223048"><ele>433.33</ele><time>2026-05-10T19:22:05.000Z</time></trkpt>
        <trkpt lat="28.8308339" lon="105.3221702"><ele>431.72</ele><time>2026-05-10T19:22:13.000Z</time></trkpt>
        <trkpt lat="28.8308162" lon="105.3220398"><ele>430.45</ele><time>2026-05-10T19:22:19.000Z</time></trkpt>
        <trkpt lat="28.8308063" lon="105.3218931"><ele>429.11</ele><time>2026-05-10T19:22:25.000Z</time></trkpt>
        <trkpt lat="28.830817" lon="105.3217566"><ele>426.96</ele><time>2026-05-10T19:22:29.000Z</time></trkpt>
        <trkpt lat="28.8308373" lon="105.3216327"><ele>425.46</ele><time>2026-05-10T19:22:33.000Z</time></trkpt>
        <trkpt lat="28.8308124" lon="105.3215301"><ele>424.93</ele><time>2026-05-10T19:22:39.000Z</time></trkpt>
        <trkpt lat="28.8307743" lon="105.3214377"><ele>424.59</ele><time>2026-05-10T19:22:45.000Z</time></trkpt>
        <trkpt lat="28.8307509" lon="105.3213211"><ele>424.9</ele><time>2026-05-10T19:22:53.000Z</time></trkpt>
        <trkpt lat="28.8307618" lon="105.32119"><ele>424.18</ele><time>2026-05-10T19:23:01.000Z</time></trkpt>
        <trkpt lat="28.8308082" lon="105.3210913"><ele>423.54</ele><time>2026-05-10T19:23:07.000Z</time></trkpt>
        <trkpt lat="28.8308904" lon="105.3210297"><ele>422.79</ele><time>2026-05-10T19:23:13.000Z</time></trkpt>
        <trkpt lat="28.8309793" lon="105.3209846"><ele>422.42</ele><time>2026-05-10T19:23:19.000Z</time></trkpt>
        <trkpt lat="28.8310466" lon="105.3209156"><ele>422.15</ele><time>2026-05-10T19:23:25.000Z</time></trkpt>
        <trkpt lat="28.8310875" lon="105.320824"><ele>421.93</ele><time>2026-05-10T19:23:31.000Z</time></trkpt>
        <trkpt lat="28.8311129" lon="105.3207235"><ele>421.7</ele><time>2026-05-10T19:23:37.000Z</time></trkpt>
        <trkpt lat="28.8311375" lon="105.3206153"><ele>421.19</ele><time>2026-05-10T19:23:43.000Z</time></trkpt>
        <trkpt lat="28.8311609" lon="105.3205099"><ele>420.47</ele><time>2026-05-10T19:23:49.000Z</time></trkpt>
        <trkpt lat="28.8311712" lon="105.3203949"><ele>419.01</ele><time>2026-05-10T19:23:55.000Z</time></trkpt>
        <trkpt lat="28.8311683" lon="105.3202846"><ele>417.97</ele><time>2026-05-10T19:24:01.000Z</time></trkpt>
        <trkpt lat="28.8311534" lon="105.3201737"><ele>416.95</ele><time>2026-05-10T19:24:07.000Z</time></trkpt>
        <trkpt lat="28.8311296" lon="105.3200489"><ele>416.79</ele><time>2026-05-10T19:24:15.000Z</time></trkpt>
        <trkpt lat="28.831067" lon="105.3199695"><ele>416.49</ele><time>2026-05-10T19:24:21.000Z</time></trkpt>
        <trkpt lat="28.830979" lon="105.319938"><ele>416.55</ele><time>2026-05-10T19:24:27.000Z</time></trkpt>
        <trkpt lat="28.8308802" lon="105.3198872"><ele>416.42</ele><time>2026-05-10T19:24:35.000Z</time></trkpt>
        <trkpt lat="28.8307895" lon="105.3198048"><ele>416.07</ele><time>2026-05-10T19:24:43.000Z</time></trkpt>
        <trkpt lat="28.8307235" lon="105.319684"><ele>415.41</ele><time>2026-05-10T19:24:49.000Z</time></trkpt>
        <trkpt lat="28.8307496" lon="105.3195383"><ele>414.56</ele><time>2026-05-10T19:24:55.000Z</time></trkpt>
        <trkpt lat="28.8308076" lon="105.319451"><ele>412</ele><time>2026-05-10T19:25:01.000Z</time></trkpt>
        <trkpt lat="28.8308678" lon="105.3193672"><ele>410.03</ele><time>2026-05-10T19:25:17.000Z</time></trkpt>
        <trkpt lat="28.8309414" lon="105.319275"><ele>408.23</ele><time>2026-05-10T19:25:25.000Z</time></trkpt>
        <trkpt lat="28.8309769" lon="105.319171"><ele>406.84</ele><time>2026-05-10T19:25:33.000Z</time></trkpt>
        <trkpt lat="28.83098" lon="105.3190531"><ele>406.28</ele><time>2026-05-10T19:25:41.000Z</time></trkpt>
        <trkpt lat="28.8309601" lon="105.3189299"><ele>405.92</ele><time>2026-05-10T19:25:49.000Z</time></trkpt>
        <trkpt lat="28.8309407" lon="105.3188099"><ele>406.23</ele><time>2026-05-10T19:25:57.000Z</time></trkpt>
        <trkpt lat="28.8309219" lon="105.318694"><ele>406.95</ele><time>2026-05-10T19:26:05.000Z</time></trkpt>
        <trkpt lat="28.8308959" lon="105.3185805"><ele>408.09</ele><time>2026-05-10T19:26:13.000Z</time></trkpt>
        <trkpt lat="28.8308876" lon="105.3184564"><ele>409.44</ele><time>2026-05-10T19:26:21.000Z</time></trkpt>
        <trkpt lat="28.8309093" lon="105.3183294"><ele>411.01</ele><time>2026-05-10T19:26:29.000Z</time></trkpt>
        <trkpt lat="28.8309565" lon="105.3182071"><ele>411.84</ele><time>2026-05-10T19:26:37.000Z</time></trkpt>
        <trkpt lat="28.8310449" lon="105.3181106"><ele>411.96</ele><time>2026-05-10T19:26:45.000Z</time></trkpt>
        <trkpt lat="28.8311416" lon="105.3180257"><ele>411.99</ele><time>2026-05-10T19:26:53.000Z</time></trkpt>
        <trkpt lat="28.8312358" lon="105.3179423"><ele>412.06</ele><time>2026-05-10T19:27:01.000Z</time></trkpt>
        <trkpt lat="28.831333" lon="105.3178747"><ele>412.19</ele><time>2026-05-10T19:27:09.000Z</time></trkpt>
        <trkpt lat="28.8314272" lon="105.3178519"><ele>412.86</ele><time>2026-05-10T19:27:15.000Z</time></trkpt>
        <trkpt lat="28.8315263" lon="105.3178808"><ele>412.42</ele><time>2026-05-10T19:27:23.000Z</time></trkpt>
        <trkpt lat="28.831625" lon="105.3179313"><ele>412.91</ele><time>2026-05-10T19:27:31.000Z</time></trkpt>
        <trkpt lat="28.8317179" lon="105.3180006"><ele>413.39</ele><time>2026-05-10T19:27:39.000Z</time></trkpt>
        <trkpt lat="28.8317882" lon="105.3181018"><ele>413.55</ele><time>2026-05-10T19:27:47.000Z</time></trkpt>
        <trkpt lat="28.8318597" lon="105.3182035"><ele>413.75</ele><time>2026-05-10T19:27:55.000Z</time></trkpt>
        <trkpt lat="28.831943" lon="105.3182511"><ele>413.88</ele><time>2026-05-10T19:28:01.000Z</time></trkpt>
        <trkpt lat="28.8320513" lon="105.3182423"><ele>413.93</ele><time>2026-05-10T19:28:09.000Z</time></trkpt>
        <trkpt lat="28.8321476" lon="105.3182146"><ele>413.81</ele><time>2026-05-10T19:28:15.000Z</time></trkpt>
        <trkpt lat="28.8322376" lon="105.3181769"><ele>413.75</ele><time>2026-05-10T19:28:21.000Z</time></trkpt>
        <trkpt lat="28.8323427" lon="105.3181314"><ele>414.19</ele><time>2026-05-10T19:28:29.000Z</time></trkpt>
        <trkpt lat="28.8324527" lon="105.318084"><ele>415.4</ele><time>2026-05-10T19:28:37.000Z</time></trkpt>
        <trkpt lat="28.8325676" lon="105.3180492"><ele>416.61</ele><time>2026-05-10T19:28:45.000Z</time></trkpt>
        <trkpt lat="28.8326691" lon="105.3179934"><ele>417.37</ele><time>2026-05-10T19:28:53.000Z</time></trkpt>
        <trkpt lat="28.8327371" lon="105.3178915"><ele>418.19</ele><time>2026-05-10T19:29:01.000Z</time></trkpt>
        <trkpt lat="28.8327809" lon="105.3177726"><ele>419.09</ele><time>2026-05-10T19:29:09.000Z</time></trkpt>
        <trkpt lat="28.8328358" lon="105.3176825"><ele>418.95</ele><time>2026-05-10T19:29:15.000Z</time></trkpt>
        <trkpt lat="28.8329051" lon="105.3176191"><ele>418.62</ele><time>2026-05-10T19:29:21.000Z</time></trkpt>
        <trkpt lat="28.8329978" lon="105.3175497"><ele>417.86</ele><time>2026-05-10T19:29:29.000Z</time></trkpt>
        <trkpt lat="28.8331024" lon="105.3174782"><ele>417.84</ele><time>2026-05-10T19:29:37.000Z</time></trkpt>
        <trkpt lat="28.833199" lon="105.3174406"><ele>419.05</ele><time>2026-05-10T19:29:43.000Z</time></trkpt>
        <trkpt lat="28.8333035" lon="105.3174656"><ele>420.95</ele><time>2026-05-10T19:29:51.000Z</time></trkpt>
        <trkpt lat="28.8333926" lon="105.3175173"><ele>421.1</ele><time>2026-05-10T19:29:57.000Z</time></trkpt>
        <trkpt lat="28.8334988" lon="105.317572"><ele>420.9</ele><time>2026-05-10T19:30:05.000Z</time></trkpt>
        <trkpt lat="28.8335997" lon="105.3176064"><ele>420.42</ele><time>2026-05-10T19:30:11.000Z</time></trkpt>
        <trkpt lat="28.8336932" lon="105.3176339"><ele>421.08</ele><time>2026-05-10T19:30:17.000Z</time></trkpt>
        <trkpt lat="28.8337898" lon="105.3176906"><ele>421.52</ele><time>2026-05-10T19:30:25.000Z</time></trkpt>
        <trkpt lat="28.8338748" lon="105.3177717"><ele>421.46</ele><time>2026-05-10T19:30:33.000Z</time></trkpt>
        <trkpt lat="28.8339521" lon="105.3178734"><ele>420.89</ele><time>2026-05-10T19:30:41.000Z</time></trkpt>
        <trkpt lat="28.8340274" lon="105.3179436"><ele>420.76</ele><time>2026-05-10T19:30:47.000Z</time></trkpt>
        <trkpt lat="28.8341315" lon="105.3179646"><ele>420.63</ele><time>2026-05-10T19:30:55.000Z</time></trkpt>
        <trkpt lat="28.8342444" lon="105.3179349"><ele>420.38</ele><time>2026-05-10T19:31:03.000Z</time></trkpt>
        <trkpt lat="28.8343552" lon="105.3178849"><ele>420.54</ele><time>2026-05-10T19:31:11.000Z</time></trkpt>
        <trkpt lat="28.8344547" lon="105.3178044"><ele>421.33</ele><time>2026-05-10T19:31:19.000Z</time></trkpt>
        <trkpt lat="28.8345346" lon="105.3176971"><ele>420.84</ele><time>2026-05-10T19:31:27.000Z</time></trkpt>
        <trkpt lat="28.8346052" lon="105.3176114"><ele>420.15</ele><time>2026-05-10T19:31:33.000Z</time></trkpt>
        <trkpt lat="28.8346879" lon="105.3175793"><ele>419.63</ele><time>2026-05-10T19:31:39.000Z</time></trkpt>
        <trkpt lat="28.8347966" lon="105.3175834"><ele>419.03</ele><time>2026-05-10T19:31:47.000Z</time></trkpt>
        <trkpt lat="28.8348995" lon="105.3176207"><ele>418.58</ele><time>2026-05-10T19:31:55.000Z</time></trkpt>
        <trkpt lat="28.8349465" lon="105.3177349"><ele>417.7</ele><time>2026-05-10T19:32:03.000Z</time></trkpt>
        <trkpt lat="28.835004" lon="105.3178326"><ele>416.64</ele><time>2026-05-10T19:32:07.000Z</time></trkpt>
        <trkpt lat="28.8350542" lon="105.3179517"><ele>415.29</ele><time>2026-05-10T19:32:13.000Z</time></trkpt>
        <trkpt lat="28.8350542" lon="105.3180854"><ele>413.99</ele><time>2026-05-10T19:32:21.000Z</time></trkpt>
        <trkpt lat="28.8349765" lon="105.3181759"><ele>412.68</ele><time>2026-05-10T19:32:29.000Z</time></trkpt>
        <trkpt lat="28.8349452" lon="105.3182741"><ele>412.36</ele><time>2026-05-10T19:32:37.000Z</time></trkpt>
        <trkpt lat="28.8349719" lon="105.3183441"><ele>410.82</ele><time>2026-05-10T19:32:45.000Z</time></trkpt>
        <trkpt lat="28.8349596" lon="105.3182496"><ele>410.38</ele><time>2026-05-10T19:33:05.000Z</time></trkpt>
        <trkpt lat="28.8349283" lon="105.3181339"><ele>408.56</ele><time>2026-05-10T19:33:15.000Z</time></trkpt>
        <trkpt lat="28.834913" lon="105.3180041"><ele>408.85</ele><time>2026-05-10T19:33:23.000Z</time></trkpt>
        <trkpt lat="28.8349651" lon="105.3178829"><ele>408.59</ele><time>2026-05-10T19:33:33.000Z</time></trkpt>
        <trkpt lat="28.8350378" lon="105.3177599"><ele>406.9</ele><time>2026-05-10T19:33:41.000Z</time></trkpt>
        <trkpt lat="28.8351577" lon="105.3177399"><ele>407.59</ele><time>2026-05-10T19:33:47.000Z</time></trkpt>
        <trkpt lat="28.8352593" lon="105.3177148"><ele>408.66</ele><time>2026-05-10T19:33:53.000Z</time></trkpt>
        <trkpt lat="28.8353604" lon="105.3177453"><ele>409.05</ele><time>2026-05-10T19:34:01.000Z</time></trkpt>
        <trkpt lat="28.8354297" lon="105.3178351"><ele>409.69</ele><time>2026-05-10T19:34:09.000Z</time></trkpt>
        <trkpt lat="28.8355158" lon="105.3179285"><ele>410.29</ele><time>2026-05-10T19:34:17.000Z</time></trkpt>
        <trkpt lat="28.8355863" lon="105.3180361"><ele>410.6</ele><time>2026-05-10T19:34:25.000Z</time></trkpt>
        <trkpt lat="28.8356079" lon="105.3181517"><ele>410.7</ele><time>2026-05-10T19:34:33.000Z</time></trkpt>
        <trkpt lat="28.8356245" lon="105.3182672"><ele>411.24</ele><time>2026-05-10T19:34:39.000Z</time></trkpt>
        <trkpt lat="28.8355885" lon="105.3183695"><ele>413.61</ele><time>2026-05-10T19:34:49.000Z</time></trkpt>
        <trkpt lat="28.8355217" lon="105.3184527"><ele>415.78</ele><time>2026-05-10T19:35:01.000Z</time></trkpt>
        <trkpt lat="28.8354594" lon="105.3184001"><ele>420.46</ele><time>2026-05-10T19:35:05.000Z</time></trkpt>
        <trkpt lat="28.8353648" lon="105.3183701"><ele>419.52</ele><time>2026-05-10T19:35:23.000Z</time></trkpt>
        <trkpt lat="28.8353762" lon="105.3182937"><ele>416.87</ele><time>2026-05-10T19:35:31.000Z</time></trkpt>
        <trkpt lat="28.8354233" lon="105.3181992"><ele>413.82</ele><time>2026-05-10T19:35:43.000Z</time></trkpt>
        <trkpt lat="28.8355137" lon="105.3181386"><ele>410.57</ele><time>2026-05-10T19:35:51.000Z</time></trkpt>
        <trkpt lat="28.8355659" lon="105.318048"><ele>410.26</ele><time>2026-05-10T19:35:59.000Z</time></trkpt>
        <trkpt lat="28.8355417" lon="105.3179573"><ele>411.41</ele><time>2026-05-10T19:36:07.000Z</time></trkpt>
        <trkpt lat="28.8354669" lon="105.3178786"><ele>412.67</ele><time>2026-05-10T19:36:15.000Z</time></trkpt>
        <trkpt lat="28.8353891" lon="105.3177892"><ele>414.07</ele><time>2026-05-10T19:36:23.000Z</time></trkpt>
        <trkpt lat="28.8353059" lon="105.3177094"><ele>415.33</ele><time>2026-05-10T19:36:31.000Z</time></trkpt>
        <trkpt lat="28.8352077" lon="105.3176994"><ele>416.17</ele><time>2026-05-10T19:36:39.000Z</time></trkpt>
        <trkpt lat="28.8351169" lon="105.3177395"><ele>416.24</ele><time>2026-05-10T19:36:47.000Z</time></trkpt>
        <trkpt lat="28.8350859" lon="105.317848"><ele>416.53</ele><time>2026-05-10T19:36:55.000Z</time></trkpt>
        <trkpt lat="28.8350132" lon="105.3178865"><ele>416.09</ele><time>2026-05-10T19:37:03.000Z</time></trkpt>
        <trkpt lat="28.8349365" lon="105.3178252"><ele>417.22</ele><time>2026-05-10T19:37:11.000Z</time></trkpt>
        <trkpt lat="28.8348739" lon="105.3177271"><ele>419.25</ele><time>2026-05-10T19:37:17.000Z</time></trkpt>
        <trkpt lat="28.8348658" lon="105.3175991"><ele>422.63</ele><time>2026-05-10T19:37:27.000Z</time></trkpt>
        <trkpt lat="28.8349235" lon="105.3174908"><ele>424.75</ele><time>2026-05-10T19:37:35.000Z</time></trkpt>
        <trkpt lat="28.8349983" lon="105.317389"><ele>423.74</ele><time>2026-05-10T19:37:43.000Z</time></trkpt>
        <trkpt lat="28.8350796" lon="105.3173081"><ele>421.88</ele><time>2026-05-10T19:37:49.000Z</time></trkpt>
        <trkpt lat="28.8351527" lon="105.3172346"><ele>420.1</ele><time>2026-05-10T19:37:55.000Z</time></trkpt>
        <trkpt lat="28.8352549" lon="105.3172101"><ele>418.83</ele><time>2026-05-10T19:38:03.000Z</time></trkpt>
        <trkpt lat="28.8353305" lon="105.3171365"><ele>418.07</ele><time>2026-05-10T19:38:11.000Z</time></trkpt>
        <trkpt lat="28.8354019" lon="105.317057"><ele>417.46</ele><time>2026-05-10T19:38:17.000Z</time></trkpt>
        <trkpt lat="28.8354894" lon="105.3170145"><ele>418.39</ele><time>2026-05-10T19:38:23.000Z</time></trkpt>
        <trkpt lat="28.8355979" lon="105.3169957"><ele>419.17</ele><time>2026-05-10T19:38:31.000Z</time></trkpt>
        <trkpt lat="28.8357114" lon="105.316997"><ele>419.26</ele><time>2026-05-10T19:38:39.000Z</time></trkpt>
        <trkpt lat="28.8358279" lon="105.317018"><ele>418.98</ele><time>2026-05-10T19:38:47.000Z</time></trkpt>
        <trkpt lat="28.8359299" lon="105.3170291"><ele>418.44</ele><time>2026-05-10T19:38:53.000Z</time></trkpt>
        <trkpt lat="28.8360364" lon="105.3170237"><ele>418.13</ele><time>2026-05-10T19:39:01.000Z</time></trkpt>
        <trkpt lat="28.8361296" lon="105.316992"><ele>417.77</ele><time>2026-05-10T19:39:07.000Z</time></trkpt>
        <trkpt lat="28.8362062" lon="105.3169224"><ele>418.27</ele><time>2026-05-10T19:39:15.000Z</time></trkpt>
        <trkpt lat="28.8362209" lon="105.316809"><ele>418.92</ele><time>2026-05-10T19:39:23.000Z</time></trkpt>
        <trkpt lat="28.8362411" lon="105.3166838"><ele>419.18</ele><time>2026-05-10T19:39:31.000Z</time></trkpt>
        <trkpt lat="28.8362998" lon="105.3165762"><ele>419</ele><time>2026-05-10T19:39:39.000Z</time></trkpt>
        <trkpt lat="28.8363386" lon="105.3164581"><ele>418.2</ele><time>2026-05-10T19:39:45.000Z</time></trkpt>
        <trkpt lat="28.8363811" lon="105.3163538"><ele>418.05</ele><time>2026-05-10T19:39:53.000Z</time></trkpt>
        <trkpt lat="28.8364267" lon="105.3162513"><ele>417.92</ele><time>2026-05-10T19:40:01.000Z</time></trkpt>
        <trkpt lat="28.8364641" lon="105.3161407"><ele>417.99</ele><time>2026-05-10T19:40:09.000Z</time></trkpt>
        <trkpt lat="28.8364605" lon="105.3160228"><ele>417.86</ele><time>2026-05-10T19:40:17.000Z</time></trkpt>
        <trkpt lat="28.8364411" lon="105.3158997"><ele>417.89</ele><time>2026-05-10T19:40:25.000Z</time></trkpt>
        <trkpt lat="28.8364471" lon="105.3157809"><ele>418.54</ele><time>2026-05-10T19:40:33.000Z</time></trkpt>
        <trkpt lat="28.8364799" lon="105.3156669"><ele>418.76</ele><time>2026-05-10T19:40:41.000Z</time></trkpt>
        <trkpt lat="28.8365536" lon="105.3155812"><ele>418.94</ele><time>2026-05-10T19:40:49.000Z</time></trkpt>
        <trkpt lat="28.8365653" lon="105.3154625"><ele>418.95</ele><time>2026-05-10T19:40:57.000Z</time></trkpt>
        <trkpt lat="28.8365344" lon="105.3153407"><ele>419.05</ele><time>2026-05-10T19:41:05.000Z</time></trkpt>
        <trkpt lat="28.8365389" lon="105.3152152"><ele>419.98</ele><time>2026-05-10T19:41:15.000Z</time></trkpt>
        <trkpt lat="28.8365899" lon="105.3151175"><ele>421.09</ele><time>2026-05-10T19:41:23.000Z</time></trkpt>
        <trkpt lat="28.8366653" lon="105.3150278"><ele>421.42</ele><time>2026-05-10T19:41:31.000Z</time></trkpt>
        <trkpt lat="28.8367215" lon="105.3149348"><ele>421.95</ele><time>2026-05-10T19:41:38.000Z</time></trkpt>
        <trkpt lat="28.8367655" lon="105.3148161"><ele>422.78</ele><time>2026-05-10T19:41:47.000Z</time></trkpt>
        <trkpt lat="28.8368059" lon="105.3147074"><ele>423.79</ele><time>2026-05-10T19:41:55.000Z</time></trkpt>
        <trkpt lat="28.8368453" lon="105.3146192"><ele>424.44</ele><time>2026-05-10T19:42:09.000Z</time></trkpt>
        <trkpt lat="28.8368757" lon="105.3145141"><ele>424.09</ele><time>2026-05-10T19:42:19.000Z</time></trkpt>
        <trkpt lat="28.8368425" lon="105.314409"><ele>424.39</ele><time>2026-05-10T19:42:27.000Z</time></trkpt>
        <trkpt lat="28.8368045" lon="105.3142998"><ele>424.45</ele><time>2026-05-10T19:42:34.000Z</time></trkpt>
        <trkpt lat="28.8367486" lon="105.3141848"><ele>424.78</ele><time>2026-05-10T19:42:41.000Z</time></trkpt>
        <trkpt lat="28.8367164" lon="105.3140694"><ele>425.24</ele><time>2026-05-10T19:42:48.000Z</time></trkpt>
        <trkpt lat="28.8367323" lon="105.3139271"><ele>425.36</ele><time>2026-05-10T19:42:58.000Z</time></trkpt>
        <trkpt lat="28.8367339" lon="105.3137945"><ele>425.47</ele><time>2026-05-10T19:43:06.000Z</time></trkpt>
        <trkpt lat="28.8367294" lon="105.3136698"><ele>425.3</ele><time>2026-05-10T19:43:14.000Z</time></trkpt>
        <trkpt lat="28.8367222" lon="105.3135266"><ele>424.67</ele><time>2026-05-10T19:43:20.000Z</time></trkpt>
        <trkpt lat="28.8367663" lon="105.3134096"><ele>424.27</ele><time>2026-05-10T19:43:28.000Z</time></trkpt>
        <trkpt lat="28.8367918" lon="105.3133"><ele>423.29</ele><time>2026-05-10T19:43:37.000Z</time></trkpt>
        <trkpt lat="28.8367874" lon="105.3131957"><ele>421.45</ele><time>2026-05-10T19:43:44.000Z</time></trkpt>
        <trkpt lat="28.8368079" lon="105.3130822"><ele>419.63</ele><time>2026-05-10T19:43:52.000Z</time></trkpt>
        <trkpt lat="28.8368902" lon="105.3130599"><ele>417.33</ele><time>2026-05-10T19:44:02.000Z</time></trkpt>
        <trkpt lat="28.8369961" lon="105.3131098"><ele>414.14</ele><time>2026-05-10T19:44:10.000Z</time></trkpt>
        <trkpt lat="28.8370964" lon="105.3130861"><ele>411.28</ele><time>2026-05-10T19:44:18.000Z</time></trkpt>
        <trkpt lat="28.8371857" lon="105.313039"><ele>408.97</ele><time>2026-05-10T19:44:26.000Z</time></trkpt>
        <trkpt lat="28.8372745" lon="105.312984"><ele>406.65</ele><time>2026-05-10T19:44:34.000Z</time></trkpt>
        <trkpt lat="28.8373681" lon="105.3129463"><ele>404.99</ele><time>2026-05-10T19:44:40.000Z</time></trkpt>
        <trkpt lat="28.8374709" lon="105.3128961"><ele>402.7</ele><time>2026-05-10T19:44:46.000Z</time></trkpt>
        <trkpt lat="28.8375722" lon="105.3128585"><ele>400.54</ele><time>2026-05-10T19:44:52.000Z</time></trkpt>
        <trkpt lat="28.8376748" lon="105.3128144"><ele>398.8</ele><time>2026-05-10T19:45:00.000Z</time></trkpt>
        <trkpt lat="28.8377731" lon="105.3127722"><ele>396.78</ele><time>2026-05-10T19:45:06.000Z</time></trkpt>
        <trkpt lat="28.8378713" lon="105.3127122"><ele>394.52</ele><time>2026-05-10T19:45:14.000Z</time></trkpt>
        <trkpt lat="28.8379515" lon="105.312639"><ele>391.37</ele><time>2026-05-10T19:45:22.000Z</time></trkpt>
        <trkpt lat="28.8380115" lon="105.3125511"><ele>387.66</ele><time>2026-05-10T19:45:30.000Z</time></trkpt>
        <trkpt lat="28.8381085" lon="105.3125075"><ele>384.12</ele><time>2026-05-10T19:45:38.000Z</time></trkpt>
        <trkpt lat="28.8382075" lon="105.3125176"><ele>379.92</ele><time>2026-05-10T19:45:44.000Z</time></trkpt>
        <trkpt lat="28.8382954" lon="105.312478"><ele>376.64</ele><time>2026-05-10T19:45:52.000Z</time></trkpt>
        <trkpt lat="28.8383799" lon="105.3124148"><ele>373.27</ele><time>2026-05-10T19:46:02.000Z</time></trkpt>
        <trkpt lat="28.8384592" lon="105.312442"><ele>368.76</ele><time>2026-05-10T19:46:10.000Z</time></trkpt>
        <trkpt lat="28.8385371" lon="105.3125151"><ele>366.11</ele><time>2026-05-10T19:46:18.000Z</time></trkpt>
        <trkpt lat="28.838644" lon="105.3125245"><ele>364.44</ele><time>2026-05-10T19:46:26.000Z</time></trkpt>
        <trkpt lat="28.8387601" lon="105.3125028"><ele>363.56</ele><time>2026-05-10T19:46:34.000Z</time></trkpt>
        <trkpt lat="28.8388767" lon="105.3124838"><ele>362.9</ele><time>2026-05-10T19:46:40.000Z</time></trkpt>
        <trkpt lat="28.8389926" lon="105.3124632"><ele>361.49</ele><time>2026-05-10T19:46:46.000Z</time></trkpt>
        <trkpt lat="28.8391033" lon="105.31244"><ele>359.73</ele><time>2026-05-10T19:46:52.000Z</time></trkpt>
        <trkpt lat="28.8392143" lon="105.3124061"><ele>357.85</ele><time>2026-05-10T19:46:58.000Z</time></trkpt>
        <trkpt lat="28.8393282" lon="105.312367"><ele>355.68</ele><time>2026-05-10T19:47:04.000Z</time></trkpt>
        <trkpt lat="28.8394275" lon="105.3123419"><ele>353.26</ele><time>2026-05-10T19:47:08.000Z</time></trkpt>
        <trkpt lat="28.8395219" lon="105.3123334"><ele>351.41</ele><time>2026-05-10T19:47:12.000Z</time></trkpt>
        <trkpt lat="28.8396353" lon="105.3123393"><ele>350.03</ele><time>2026-05-10T19:47:18.000Z</time></trkpt>
        <trkpt lat="28.8397559" lon="105.312342"><ele>348.22</ele><time>2026-05-10T19:47:24.000Z</time></trkpt>
        <trkpt lat="28.8398791" lon="105.3123449"><ele>346.64</ele><time>2026-05-10T19:47:30.000Z</time></trkpt>
        <trkpt lat="28.8399984" lon="105.3123692"><ele>344.38</ele><time>2026-05-10T19:47:36.000Z</time></trkpt>
        <trkpt lat="28.8401093" lon="105.3123648"><ele>342.32</ele><time>2026-05-10T19:47:44.000Z</time></trkpt>
        <trkpt lat="28.840199" lon="105.3123234"><ele>339.83</ele><time>2026-05-10T19:47:52.000Z</time></trkpt>
        <trkpt lat="28.8402858" lon="105.3122786"><ele>337.16</ele><time>2026-05-10T19:48:00.000Z</time></trkpt>
        <trkpt lat="28.8403037" lon="105.3122604"><ele>335.2</ele><time>2026-05-10T19:48:02.000Z</time></trkpt>
        <trkpt lat="28.8403644" lon="105.3122245"><ele>333.55</ele><time>2026-05-10T19:48:12.000Z</time></trkpt>
        <trkpt lat="28.8404464" lon="105.3121689"><ele>331.24</ele><time>2026-05-10T19:48:22.000Z</time></trkpt>
        <trkpt lat="28.8405263" lon="105.3120949"><ele>328.37</ele><time>2026-05-10T19:48:30.000Z</time></trkpt>
        <trkpt lat="28.8405912" lon="105.3120055"><ele>325.8</ele><time>2026-05-10T19:48:42.000Z</time></trkpt>
        <trkpt lat="28.8406826" lon="105.3119771"><ele>322.24</ele><time>2026-05-10T19:48:52.000Z</time></trkpt>
        <trkpt lat="28.8407901" lon="105.3119754"><ele>318.44</ele><time>2026-05-10T19:48:58.000Z</time></trkpt>
        <trkpt lat="28.8408899" lon="105.3119768"><ele>314.93</ele><time>2026-05-10T19:49:04.000Z</time></trkpt>
        <trkpt lat="28.8409916" lon="105.3119869"><ele>311.62</ele><time>2026-05-10T19:49:10.000Z</time></trkpt>
        <trkpt lat="28.8410951" lon="105.3120008"><ele>308.54</ele><time>2026-05-10T19:49:16.000Z</time></trkpt>
        <trkpt lat="28.8411988" lon="105.31201"><ele>305.7</ele><time>2026-05-10T19:49:22.000Z</time></trkpt>
        <trkpt lat="28.8413052" lon="105.3120395"><ele>303.14</ele><time>2026-05-10T19:49:28.000Z</time></trkpt>
        <trkpt lat="28.841369" lon="105.3121253"><ele>300.58</ele><time>2026-05-10T19:49:34.000Z</time></trkpt>
        <trkpt lat="28.8414116" lon="105.3122393"><ele>298.77</ele><time>2026-05-10T19:49:42.000Z</time></trkpt>
        <trkpt lat="28.8414439" lon="105.3123703"><ele>297.29</ele><time>2026-05-10T19:49:50.000Z</time></trkpt>
        <trkpt lat="28.8414215" lon="105.3124981"><ele>296.07</ele><time>2026-05-10T19:49:58.000Z</time></trkpt>
        <trkpt lat="28.8413589" lon="105.3126063"><ele>295.4</ele><time>2026-05-10T19:50:06.000Z</time></trkpt>
        <trkpt lat="28.8413244" lon="105.3127138"><ele>294.67</ele><time>2026-05-10T19:50:14.000Z</time></trkpt>
        <trkpt lat="28.8413244" lon="105.3127138"><ele>294.67</ele><time>2026-05-10T19:50:15.000Z</time></trkpt>
      </trkseg>
  </trk>
</gpx>